<?xml version="1.0" encoding="UTF-8" standalone="no" ?>
<gpx xmlns="http://www.topografix.com/GPX/1/1" xmlns:xsi="http://www.w3.org/2001/XMLSchema-instance" xsi:schemaLocation="http://www.topografix.com/GPX/1/1 http://www.topografix.com/GPX/1/1/gpx.xsd" version="1.1" creator="VisuGPX - https://www.visugpx.com">
  <metadata>
    <name>Rotison</name>
    <desc><![CDATA[Rotison a l\'envers]]></desc>
  </metadata>
  <trk>
    <name><![CDATA[Rotison a l'envers]]></name>
    <cmt><![CDATA[Bruno, Jean MArie Jean Michel Thierry]]></cmt>
    <trkseg>
      <trkpt lat="45.11568" lon="4.96425">
        <ele>175.62699890137</ele>
        <time>2009-09-19T11:30:33Z</time>
      </trkpt>
      <trkpt lat="45.11565" lon="4.96428">
        <ele>175.99200439453</ele>
        <time>2009-09-19T11:30:46Z</time>
      </trkpt>
      <trkpt lat="45.11564" lon="4.96427">
        <ele>176.41400146484</ele>
        <time>2009-09-19T11:30:47Z</time>
      </trkpt>
      <trkpt lat="45.11563" lon="4.96427">
        <ele>176.15600585938</ele>
        <time>2009-09-19T11:30:51Z</time>
      </trkpt>
      <trkpt lat="45.11562" lon="4.96417">
        <ele>176.50700378418</ele>
        <time>2009-09-19T11:31:42Z</time>
      </trkpt>
      <trkpt lat="45.11562" lon="4.96417">
        <ele>176.56500244141</ele>
        <time>2009-09-19T11:31:43Z</time>
      </trkpt>
      <trkpt lat="45.11561" lon="4.96418">
        <ele>176.65400695801</ele>
        <time>2009-09-19T11:31:45Z</time>
      </trkpt>
      <trkpt lat="45.11556" lon="4.96423">
        <ele>176.51899719238</ele>
        <time>2009-09-19T11:31:50Z</time>
      </trkpt>
      <trkpt lat="45.11558" lon="4.96439">
        <ele>175.68200683594</ele>
        <time>2009-09-19T11:31:54Z</time>
      </trkpt>
      <trkpt lat="45.11571" lon="4.96443">
        <ele>176.26100158691</ele>
        <time>2009-09-19T11:32:01Z</time>
      </trkpt>
      <trkpt lat="45.11572" lon="4.96445">
        <ele>176.56799316406</ele>
        <time>2009-09-19T11:32:04Z</time>
      </trkpt>
      <trkpt lat="45.11577" lon="4.96459">
        <ele>176.17399597168</ele>
        <time>2009-09-19T11:32:10Z</time>
      </trkpt>
      <trkpt lat="45.11577" lon="4.9647">
        <ele>175.90699768066</ele>
        <time>2009-09-19T11:32:12Z</time>
      </trkpt>
      <trkpt lat="45.11583" lon="4.96522">
        <ele>175.17799377441</ele>
        <time>2009-09-19T11:32:20Z</time>
      </trkpt>
      <trkpt lat="45.11588" lon="4.96535">
        <ele>175.03900146484</ele>
        <time>2009-09-19T11:32:22Z</time>
      </trkpt>
      <trkpt lat="45.11618" lon="4.96615">
        <ele>175.19900512695</ele>
        <time>2009-09-19T11:32:32Z</time>
      </trkpt>
      <trkpt lat="45.11639" lon="4.96667">
        <ele>175.26400756836</ele>
        <time>2009-09-19T11:32:38Z</time>
      </trkpt>
      <trkpt lat="45.11701" lon="4.96793">
        <ele>177.09599304199</ele>
        <time>2009-09-19T11:32:53Z</time>
      </trkpt>
      <trkpt lat="45.11721" lon="4.96826">
        <ele>177.23500061035</ele>
        <time>2009-09-19T11:32:57Z</time>
      </trkpt>
      <trkpt lat="45.11732" lon="4.96854">
        <ele>177.2440032959</ele>
        <time>2009-09-19T11:33:00Z</time>
      </trkpt>
      <trkpt lat="45.11754" lon="4.96885">
        <ele>177.69700622559</ele>
        <time>2009-09-19T11:33:04Z</time>
      </trkpt>
      <trkpt lat="45.11847" lon="4.97021">
        <ele>178.2559967041</ele>
        <time>2009-09-19T11:33:21Z</time>
      </trkpt>
      <trkpt lat="45.1187" lon="4.97051">
        <ele>178.22999572754</ele>
        <time>2009-09-19T11:33:25Z</time>
      </trkpt>
      <trkpt lat="45.11878" lon="4.97091">
        <ele>178.37600708008</ele>
        <time>2009-09-19T11:33:29Z</time>
      </trkpt>
      <trkpt lat="45.11872" lon="4.97159">
        <ele>177.04899597168</ele>
        <time>2009-09-19T11:33:35Z</time>
      </trkpt>
      <trkpt lat="45.11912" lon="4.9739">
        <ele>176.80700683594</ele>
        <time>2009-09-19T11:33:54Z</time>
      </trkpt>
      <trkpt lat="45.11944" lon="4.97579">
        <ele>179.11399841309</ele>
        <time>2009-09-19T11:34:12Z</time>
      </trkpt>
      <trkpt lat="45.11971" lon="4.97736">
        <ele>179.82899475098</ele>
        <time>2009-09-19T11:34:28Z</time>
      </trkpt>
      <trkpt lat="45.1201" lon="4.97948">
        <ele>181.88800048828</ele>
        <time>2009-09-19T11:34:50Z</time>
      </trkpt>
      <trkpt lat="45.1206" lon="4.98146">
        <ele>183.56799316406</ele>
        <time>2009-09-19T11:35:12Z</time>
      </trkpt>
      <trkpt lat="45.12061" lon="4.98291">
        <ele>184.92999267578</ele>
        <time>2009-09-19T11:35:27Z</time>
      </trkpt>
      <trkpt lat="45.12052" lon="4.98347">
        <ele>185.48399353027</ele>
        <time>2009-09-19T11:35:33Z</time>
      </trkpt>
      <trkpt lat="45.12043" lon="4.9838">
        <ele>185.86199951172</ele>
        <time>2009-09-19T11:35:37Z</time>
      </trkpt>
      <trkpt lat="45.12011" lon="4.984">
        <ele>184.78799438477</ele>
        <time>2009-09-19T11:35:44Z</time>
      </trkpt>
      <trkpt lat="45.12005" lon="4.98398">
        <ele>184.31700134277</ele>
        <time>2009-09-19T11:35:45Z</time>
      </trkpt>
      <trkpt lat="45.11987" lon="4.98393">
        <ele>184.67500305176</ele>
        <time>2009-09-19T11:35:48Z</time>
      </trkpt>
      <trkpt lat="45.11967" lon="4.98429">
        <ele>185.58599853516</ele>
        <time>2009-09-19T11:35:55Z</time>
      </trkpt>
      <trkpt lat="45.11972" lon="4.9844">
        <ele>185.90400695801</ele>
        <time>2009-09-19T11:35:58Z</time>
      </trkpt>
      <trkpt lat="45.11972" lon="4.9844">
        <ele>186.08099365234</ele>
        <time>2009-09-19T11:36:00Z</time>
      </trkpt>
      <trkpt lat="45.11974" lon="4.98442">
        <ele>186.07400512695</ele>
        <time>2009-09-19T11:36:10Z</time>
      </trkpt>
      <trkpt lat="45.11973" lon="4.9844">
        <ele>186.33299255371</ele>
        <time>2009-09-19T11:36:18Z</time>
      </trkpt>
      <trkpt lat="45.11972" lon="4.9844">
        <ele>190.68299865723</ele>
        <time>2009-09-19T11:44:20Z</time>
      </trkpt>
      <trkpt lat="45.11973" lon="4.9844">
        <ele>190.6369934082</ele>
        <time>2009-09-19T11:44:21Z</time>
      </trkpt>
      <trkpt lat="45.11973" lon="4.9844">
        <ele>190.47900390625</ele>
        <time>2009-09-19T11:44:22Z</time>
      </trkpt>
      <trkpt lat="45.11975" lon="4.98441">
        <ele>190.71000671387</ele>
        <time>2009-09-19T11:44:25Z</time>
      </trkpt>
      <trkpt lat="45.11975" lon="4.98428">
        <ele>190.42599487305</ele>
        <time>2009-09-19T11:44:34Z</time>
      </trkpt>
      <trkpt lat="45.11969" lon="4.98435">
        <ele>190.87100219727</ele>
        <time>2009-09-19T11:44:41Z</time>
      </trkpt>
      <trkpt lat="45.11974" lon="4.9842">
        <ele>190.50500488281</ele>
        <time>2009-09-19T11:44:46Z</time>
      </trkpt>
      <trkpt lat="45.11977" lon="4.98401">
        <ele>190.71600341797</ele>
        <time>2009-09-19T11:44:50Z</time>
      </trkpt>
      <trkpt lat="45.11992" lon="4.98396">
        <ele>190.71699523926</ele>
        <time>2009-09-19T11:44:54Z</time>
      </trkpt>
      <trkpt lat="45.12035" lon="4.9843">
        <ele>192.54899597168</ele>
        <time>2009-09-19T11:45:07Z</time>
      </trkpt>
      <trkpt lat="45.12037" lon="4.98432">
        <ele>192.50300598144</ele>
        <time>2009-09-19T11:45:08Z</time>
      </trkpt>
      <trkpt lat="45.12054" lon="4.98412">
        <ele>192.44999694824</ele>
        <time>2009-09-19T11:45:15Z</time>
      </trkpt>
      <trkpt lat="45.12053" lon="4.98368">
        <ele>191.76800537109</ele>
        <time>2009-09-19T11:45:23Z</time>
      </trkpt>
      <trkpt lat="45.12064" lon="4.98307">
        <ele>190.89599609375</ele>
        <time>2009-09-19T11:45:32Z</time>
      </trkpt>
      <trkpt lat="45.12071" lon="4.98203">
        <ele>190.28199768066</ele>
        <time>2009-09-19T11:45:46Z</time>
      </trkpt>
      <trkpt lat="45.12051" lon="4.98064">
        <ele>189.26100158691</ele>
        <time>2009-09-19T11:46:04Z</time>
      </trkpt>
      <trkpt lat="45.1201" lon="4.97898">
        <ele>188.55200195312</ele>
        <time>2009-09-19T11:46:24Z</time>
      </trkpt>
      <trkpt lat="45.11983" lon="4.97749">
        <ele>187.21200561523</ele>
        <time>2009-09-19T11:46:41Z</time>
      </trkpt>
      <trkpt lat="45.11973" lon="4.97689">
        <ele>187.37100219727</ele>
        <time>2009-09-19T11:46:48Z</time>
      </trkpt>
      <trkpt lat="45.11945" lon="4.97533">
        <ele>186.19599914551</ele>
        <time>2009-09-19T11:47:06Z</time>
      </trkpt>
      <trkpt lat="45.11944" lon="4.97523">
        <ele>186.19099426269</ele>
        <time>2009-09-19T11:47:07Z</time>
      </trkpt>
      <trkpt lat="45.11921" lon="4.97388">
        <ele>184.17300415039</ele>
        <time>2009-09-19T11:47:22Z</time>
      </trkpt>
      <trkpt lat="45.11897" lon="4.97255">
        <ele>184.43400573731</ele>
        <time>2009-09-19T11:47:38Z</time>
      </trkpt>
      <trkpt lat="45.11883" lon="4.97174">
        <ele>184.87199401856</ele>
        <time>2009-09-19T11:47:48Z</time>
      </trkpt>
      <trkpt lat="45.1188" lon="4.97158">
        <ele>185.49899291992</ele>
        <time>2009-09-19T11:47:50Z</time>
      </trkpt>
      <trkpt lat="45.11897" lon="4.97089">
        <ele>186.88499450684</ele>
        <time>2009-09-19T11:48:00Z</time>
      </trkpt>
      <trkpt lat="45.1189" lon="4.97055">
        <ele>187.2559967041</ele>
        <time>2009-09-19T11:48:06Z</time>
      </trkpt>
      <trkpt lat="45.11849" lon="4.97008">
        <ele>186.54899597168</ele>
        <time>2009-09-19T11:48:15Z</time>
      </trkpt>
      <trkpt lat="45.11772" lon="4.96893">
        <ele>185.84899902344</ele>
        <time>2009-09-19T11:48:33Z</time>
      </trkpt>
      <trkpt lat="45.11763" lon="4.96861">
        <ele>185.44200134277</ele>
        <time>2009-09-19T11:48:37Z</time>
      </trkpt>
      <trkpt lat="45.11746" lon="4.96821">
        <ele>185.83500671387</ele>
        <time>2009-09-19T11:48:43Z</time>
      </trkpt>
      <trkpt lat="45.11715" lon="4.96798">
        <ele>185.60299682617</ele>
        <time>2009-09-19T11:48:49Z</time>
      </trkpt>
      <trkpt lat="45.11647" lon="4.96673">
        <ele>184.61599731445</ele>
        <time>2009-09-19T11:49:06Z</time>
      </trkpt>
      <trkpt lat="45.11595" lon="4.96538">
        <ele>183.31900024414</ele>
        <time>2009-09-19T11:49:22Z</time>
      </trkpt>
      <trkpt lat="45.11545" lon="4.9644">
        <ele>184.61399841309</ele>
        <time>2009-09-19T11:49:35Z</time>
      </trkpt>
      <trkpt lat="45.11475" lon="4.96332">
        <ele>186.20100402832</ele>
        <time>2009-09-19T11:49:52Z</time>
      </trkpt>
      <trkpt lat="45.11429" lon="4.96255">
        <ele>186.81799316406</ele>
        <time>2009-09-19T11:50:04Z</time>
      </trkpt>
      <trkpt lat="45.11349" lon="4.9609">
        <ele>186.03100585938</ele>
        <time>2009-09-19T11:50:25Z</time>
      </trkpt>
      <trkpt lat="45.1128" lon="4.95973">
        <ele>184.97799682617</ele>
        <time>2009-09-19T11:50:40Z</time>
      </trkpt>
      <trkpt lat="45.11198" lon="4.95849">
        <ele>182.87199401856</ele>
        <time>2009-09-19T11:50:57Z</time>
      </trkpt>
      <trkpt lat="45.11111" lon="4.95698">
        <ele>184.39100646973</ele>
        <time>2009-09-19T11:51:18Z</time>
      </trkpt>
      <trkpt lat="45.11043" lon="4.95625">
        <ele>184.43200683594</ele>
        <time>2009-09-19T11:51:32Z</time>
      </trkpt>
      <trkpt lat="45.10969" lon="4.95506">
        <ele>182.27799987793</ele>
        <time>2009-09-19T11:51:49Z</time>
      </trkpt>
      <trkpt lat="45.10923" lon="4.9534">
        <ele>181.68499755859</ele>
        <time>2009-09-19T11:52:07Z</time>
      </trkpt>
      <trkpt lat="45.1087" lon="4.95182">
        <ele>185.04200744629</ele>
        <time>2009-09-19T11:52:27Z</time>
      </trkpt>
      <trkpt lat="45.10865" lon="4.95168">
        <ele>185.89599609375</ele>
        <time>2009-09-19T11:52:29Z</time>
      </trkpt>
      <trkpt lat="45.10854" lon="4.95118">
        <ele>187.54499816894</ele>
        <time>2009-09-19T11:52:36Z</time>
      </trkpt>
      <trkpt lat="45.10851" lon="4.95091">
        <ele>188.90199279785</ele>
        <time>2009-09-19T11:52:40Z</time>
      </trkpt>
      <trkpt lat="45.10852" lon="4.95028">
        <ele>192.48300170898</ele>
        <time>2009-09-19T11:52:50Z</time>
      </trkpt>
      <trkpt lat="45.10854" lon="4.94984">
        <ele>195.21699523926</ele>
        <time>2009-09-19T11:52:57Z</time>
      </trkpt>
      <trkpt lat="45.1086" lon="4.94904">
        <ele>198.80999755859</ele>
        <time>2009-09-19T11:53:10Z</time>
      </trkpt>
      <trkpt lat="45.10871" lon="4.94837">
        <ele>201.74099731445</ele>
        <time>2009-09-19T11:53:24Z</time>
      </trkpt>
      <trkpt lat="45.10873" lon="4.94828">
        <ele>202.25100708008</ele>
        <time>2009-09-19T11:53:26Z</time>
      </trkpt>
      <trkpt lat="45.10875" lon="4.94805">
        <ele>202.48599243164</ele>
        <time>2009-09-19T11:53:30Z</time>
      </trkpt>
      <trkpt lat="45.10897" lon="4.94719">
        <ele>202.21200561523</ele>
        <time>2009-09-19T11:53:43Z</time>
      </trkpt>
      <trkpt lat="45.1092" lon="4.94638">
        <ele>202.18600463867</ele>
        <time>2009-09-19T11:53:53Z</time>
      </trkpt>
      <trkpt lat="45.10928" lon="4.94513">
        <ele>201.68299865723</ele>
        <time>2009-09-19T11:54:06Z</time>
      </trkpt>
      <trkpt lat="45.10923" lon="4.94425">
        <ele>201.65199279785</ele>
        <time>2009-09-19T11:54:15Z</time>
      </trkpt>
      <trkpt lat="45.10917" lon="4.94339">
        <ele>201.8630065918</ele>
        <time>2009-09-19T11:54:24Z</time>
      </trkpt>
      <trkpt lat="45.10902" lon="4.94296">
        <ele>200.56199645996</ele>
        <time>2009-09-19T11:54:29Z</time>
      </trkpt>
      <trkpt lat="45.10828" lon="4.94207">
        <ele>200.22700500488</ele>
        <time>2009-09-19T11:54:46Z</time>
      </trkpt>
      <trkpt lat="45.10749" lon="4.94103">
        <ele>202.04499816894</ele>
        <time>2009-09-19T11:55:06Z</time>
      </trkpt>
      <trkpt lat="45.10707" lon="4.94002">
        <ele>203.89399719238</ele>
        <time>2009-09-19T11:55:23Z</time>
      </trkpt>
      <trkpt lat="45.10698" lon="4.93964">
        <ele>204.57099914551</ele>
        <time>2009-09-19T11:55:29Z</time>
      </trkpt>
      <trkpt lat="45.10683" lon="4.93858">
        <ele>204.71499633789</ele>
        <time>2009-09-19T11:55:43Z</time>
      </trkpt>
      <trkpt lat="45.10665" lon="4.93691">
        <ele>201.47599792481</ele>
        <time>2009-09-19T11:56:00Z</time>
      </trkpt>
      <trkpt lat="45.10659" lon="4.93645">
        <ele>199.63499450684</ele>
        <time>2009-09-19T11:56:04Z</time>
      </trkpt>
      <trkpt lat="45.10651" lon="4.93595">
        <ele>196.69200134277</ele>
        <time>2009-09-19T11:56:08Z</time>
      </trkpt>
      <trkpt lat="45.10646" lon="4.93569">
        <ele>195.69599914551</ele>
        <time>2009-09-19T11:56:10Z</time>
      </trkpt>
      <trkpt lat="45.10638" lon="4.93528">
        <ele>194.01600646973</ele>
        <time>2009-09-19T11:56:13Z</time>
      </trkpt>
      <trkpt lat="45.10619" lon="4.93431">
        <ele>190.19200134277</ele>
        <time>2009-09-19T11:56:20Z</time>
      </trkpt>
      <trkpt lat="45.10617" lon="4.93417">
        <ele>190.01300048828</ele>
        <time>2009-09-19T11:56:21Z</time>
      </trkpt>
      <trkpt lat="45.10596" lon="4.93311">
        <ele>188.39399719238</ele>
        <time>2009-09-19T11:56:29Z</time>
      </trkpt>
      <trkpt lat="45.10551" lon="4.93081">
        <ele>185.53500366211</ele>
        <time>2009-09-19T11:56:48Z</time>
      </trkpt>
      <trkpt lat="45.1051" lon="4.92875">
        <ele>184.55599975586</ele>
        <time>2009-09-19T11:57:07Z</time>
      </trkpt>
      <trkpt lat="45.10482" lon="4.92736">
        <ele>184.76800537109</ele>
        <time>2009-09-19T11:57:21Z</time>
      </trkpt>
      <trkpt lat="45.10477" lon="4.92717">
        <ele>184.3630065918</ele>
        <time>2009-09-19T11:57:23Z</time>
      </trkpt>
      <trkpt lat="45.10462" lon="4.92629">
        <ele>184.64300537109</ele>
        <time>2009-09-19T11:57:32Z</time>
      </trkpt>
      <trkpt lat="45.10454" lon="4.92582">
        <ele>184.55799865723</ele>
        <time>2009-09-19T11:57:37Z</time>
      </trkpt>
      <trkpt lat="45.10435" lon="4.92474">
        <ele>183.02600097656</ele>
        <time>2009-09-19T11:57:47Z</time>
      </trkpt>
      <trkpt lat="45.10405" lon="4.92311">
        <ele>180.53300476074</ele>
        <time>2009-09-19T11:58:01Z</time>
      </trkpt>
      <trkpt lat="45.10374" lon="4.9213">
        <ele>180.78500366211</ele>
        <time>2009-09-19T11:58:17Z</time>
      </trkpt>
      <trkpt lat="45.10339" lon="4.9194">
        <ele>182.85000610352</ele>
        <time>2009-09-19T11:58:36Z</time>
      </trkpt>
      <trkpt lat="45.10314" lon="4.91793">
        <ele>184.18499755859</ele>
        <time>2009-09-19T11:58:52Z</time>
      </trkpt>
      <trkpt lat="45.10283" lon="4.91758">
        <ele>185.06900024414</ele>
        <time>2009-09-19T11:58:59Z</time>
      </trkpt>
      <trkpt lat="45.10276" lon="4.91758">
        <ele>184.77499389648</ele>
        <time>2009-09-19T11:59:00Z</time>
      </trkpt>
      <trkpt lat="45.10105" lon="4.91785">
        <ele>183.79100036621</ele>
        <time>2009-09-19T11:59:24Z</time>
      </trkpt>
      <trkpt lat="45.09967" lon="4.91812">
        <ele>185.40899658203</ele>
        <time>2009-09-19T11:59:44Z</time>
      </trkpt>
      <trkpt lat="45.09813" lon="4.91842">
        <ele>186.10899353027</ele>
        <time>2009-09-19T12:00:07Z</time>
      </trkpt>
      <trkpt lat="45.09724" lon="4.91859">
        <ele>187.95799255371</ele>
        <time>2009-09-19T12:00:21Z</time>
      </trkpt>
      <trkpt lat="45.096" lon="4.91881">
        <ele>190.89300537109</ele>
        <time>2009-09-19T12:00:43Z</time>
      </trkpt>
      <trkpt lat="45.0947" lon="4.91886">
        <ele>193.71899414062</ele>
        <time>2009-09-19T12:01:06Z</time>
      </trkpt>
      <trkpt lat="45.09417" lon="4.91867">
        <ele>196.47099304199</ele>
        <time>2009-09-19T12:01:16Z</time>
      </trkpt>
      <trkpt lat="45.09378" lon="4.91853">
        <ele>198.25900268555</ele>
        <time>2009-09-19T12:01:24Z</time>
      </trkpt>
      <trkpt lat="45.09309" lon="4.91828">
        <ele>201.96000671387</ele>
        <time>2009-09-19T12:01:39Z</time>
      </trkpt>
      <trkpt lat="45.09233" lon="4.91805">
        <ele>206.24000549316</ele>
        <time>2009-09-19T12:01:55Z</time>
      </trkpt>
      <trkpt lat="45.09224" lon="4.91805">
        <ele>207.08399963379</ele>
        <time>2009-09-19T12:01:57Z</time>
      </trkpt>
      <trkpt lat="45.09139" lon="4.91833">
        <ele>212.20300292969</ele>
        <time>2009-09-19T12:02:17Z</time>
      </trkpt>
      <trkpt lat="45.09045" lon="4.91866">
        <ele>218.57099914551</ele>
        <time>2009-09-19T12:02:39Z</time>
      </trkpt>
      <trkpt lat="45.08942" lon="4.91889">
        <ele>221.69599914551</ele>
        <time>2009-09-19T12:03:00Z</time>
      </trkpt>
      <trkpt lat="45.08828" lon="4.91905">
        <ele>225.99099731445</ele>
        <time>2009-09-19T12:03:22Z</time>
      </trkpt>
      <trkpt lat="45.08698" lon="4.91916">
        <ele>230.15100097656</ele>
        <time>2009-09-19T12:03:46Z</time>
      </trkpt>
      <trkpt lat="45.08576" lon="4.91933">
        <ele>234.82800292969</ele>
        <time>2009-09-19T12:04:09Z</time>
      </trkpt>
      <trkpt lat="45.0846" lon="4.91983">
        <ele>237.33000183106</ele>
        <time>2009-09-19T12:04:31Z</time>
      </trkpt>
      <trkpt lat="45.08365" lon="4.92024">
        <ele>236.20100402832</ele>
        <time>2009-09-19T12:04:47Z</time>
      </trkpt>
      <trkpt lat="45.08322" lon="4.92034">
        <ele>235.52099609375</ele>
        <time>2009-09-19T12:04:54Z</time>
      </trkpt>
      <trkpt lat="45.08251" lon="4.92034">
        <ele>237.45799255371</ele>
        <time>2009-09-19T12:05:06Z</time>
      </trkpt>
      <trkpt lat="45.08241" lon="4.92033">
        <ele>237.82899475098</ele>
        <time>2009-09-19T12:05:08Z</time>
      </trkpt>
      <trkpt lat="45.08222" lon="4.92021">
        <ele>238.73599243164</ele>
        <time>2009-09-19T12:05:12Z</time>
      </trkpt>
      <trkpt lat="45.08175" lon="4.91929">
        <ele>241.625</ele>
        <time>2009-09-19T12:05:28Z</time>
      </trkpt>
      <trkpt lat="45.08159" lon="4.91887">
        <ele>240.67100524902</ele>
        <time>2009-09-19T12:05:34Z</time>
      </trkpt>
      <trkpt lat="45.08154" lon="4.91852">
        <ele>239.06100463867</ele>
        <time>2009-09-19T12:05:38Z</time>
      </trkpt>
      <trkpt lat="45.08155" lon="4.91821">
        <ele>237.52799987793</ele>
        <time>2009-09-19T12:05:41Z</time>
      </trkpt>
      <trkpt lat="45.0816" lon="4.91788">
        <ele>236.31300354004</ele>
        <time>2009-09-19T12:05:44Z</time>
      </trkpt>
      <trkpt lat="45.08162" lon="4.91777">
        <ele>236.12600708008</ele>
        <time>2009-09-19T12:05:45Z</time>
      </trkpt>
      <trkpt lat="45.08169" lon="4.9173">
        <ele>234.21200561523</ele>
        <time>2009-09-19T12:05:49Z</time>
      </trkpt>
      <trkpt lat="45.08179" lon="4.91669">
        <ele>231.74099731445</ele>
        <time>2009-09-19T12:05:54Z</time>
      </trkpt>
      <trkpt lat="45.08182" lon="4.91656">
        <ele>231.24000549316</ele>
        <time>2009-09-19T12:05:55Z</time>
      </trkpt>
      <trkpt lat="45.08174" lon="4.91575">
        <ele>226.77600097656</ele>
        <time>2009-09-19T12:06:01Z</time>
      </trkpt>
      <trkpt lat="45.08154" lon="4.9154">
        <ele>224.6609954834</ele>
        <time>2009-09-19T12:06:04Z</time>
      </trkpt>
      <trkpt lat="45.08146" lon="4.91531">
        <ele>223.57899475098</ele>
        <time>2009-09-19T12:06:05Z</time>
      </trkpt>
      <trkpt lat="45.0812" lon="4.91506">
        <ele>222.1309967041</ele>
        <time>2009-09-19T12:06:08Z</time>
      </trkpt>
      <trkpt lat="45.08045" lon="4.91427">
        <ele>217.05599975586</ele>
        <time>2009-09-19T12:06:17Z</time>
      </trkpt>
      <trkpt lat="45.08007" lon="4.91379">
        <ele>213.47300720215</ele>
        <time>2009-09-19T12:06:22Z</time>
      </trkpt>
      <trkpt lat="45.07986" lon="4.91351">
        <ele>211.88999938965</ele>
        <time>2009-09-19T12:06:25Z</time>
      </trkpt>
      <trkpt lat="45.07914" lon="4.91239">
        <ele>208.69000244141</ele>
        <time>2009-09-19T12:06:36Z</time>
      </trkpt>
      <trkpt lat="45.07833" lon="4.91123">
        <ele>204.80400085449</ele>
        <time>2009-09-19T12:06:48Z</time>
      </trkpt>
      <trkpt lat="45.07796" lon="4.91087">
        <ele>203.96200561523</ele>
        <time>2009-09-19T12:06:53Z</time>
      </trkpt>
      <trkpt lat="45.0777" lon="4.91051">
        <ele>203.35499572754</ele>
        <time>2009-09-19T12:06:57Z</time>
      </trkpt>
      <trkpt lat="45.07737" lon="4.91004">
        <ele>202.375</ele>
        <time>2009-09-19T12:07:02Z</time>
      </trkpt>
      <trkpt lat="45.0773" lon="4.90994">
        <ele>202.51499938965</ele>
        <time>2009-09-19T12:07:03Z</time>
      </trkpt>
      <trkpt lat="45.07684" lon="4.90922">
        <ele>200.9700012207</ele>
        <time>2009-09-19T12:07:10Z</time>
      </trkpt>
      <trkpt lat="45.07664" lon="4.90868">
        <ele>199.74099731445</ele>
        <time>2009-09-19T12:07:14Z</time>
      </trkpt>
      <trkpt lat="45.07645" lon="4.90813">
        <ele>198.46099853516</ele>
        <time>2009-09-19T12:07:18Z</time>
      </trkpt>
      <trkpt lat="45.07623" lon="4.90741">
        <ele>197.46000671387</ele>
        <time>2009-09-19T12:07:23Z</time>
      </trkpt>
      <trkpt lat="45.07619" lon="4.90726">
        <ele>196.84599304199</ele>
        <time>2009-09-19T12:07:24Z</time>
      </trkpt>
      <trkpt lat="45.07617" lon="4.90646">
        <ele>195.86799621582</ele>
        <time>2009-09-19T12:07:29Z</time>
      </trkpt>
      <trkpt lat="45.07625" lon="4.90568">
        <ele>192.93800354004</ele>
        <time>2009-09-19T12:07:34Z</time>
      </trkpt>
      <trkpt lat="45.07634" lon="4.90538">
        <ele>191.83799743652</ele>
        <time>2009-09-19T12:07:36Z</time>
      </trkpt>
      <trkpt lat="45.07693" lon="4.904">
        <ele>184.97500610352</ele>
        <time>2009-09-19T12:07:45Z</time>
      </trkpt>
      <trkpt lat="45.07699" lon="4.90383">
        <ele>184.66799926758</ele>
        <time>2009-09-19T12:07:46Z</time>
      </trkpt>
      <trkpt lat="45.07713" lon="4.90314">
        <ele>182.82400512695</ele>
        <time>2009-09-19T12:07:50Z</time>
      </trkpt>
      <trkpt lat="45.07718" lon="4.90264">
        <ele>181.38900756836</ele>
        <time>2009-09-19T12:07:53Z</time>
      </trkpt>
      <trkpt lat="45.0772" lon="4.90153">
        <ele>179.69700622559</ele>
        <time>2009-09-19T12:08:00Z</time>
      </trkpt>
      <trkpt lat="45.07724" lon="4.90088">
        <ele>178.1309967041</ele>
        <time>2009-09-19T12:08:04Z</time>
      </trkpt>
      <trkpt lat="45.07743" lon="4.89997">
        <ele>177.38499450684</ele>
        <time>2009-09-19T12:08:10Z</time>
      </trkpt>
      <trkpt lat="45.07818" lon="4.89859">
        <ele>173.67300415039</ele>
        <time>2009-09-19T12:08:21Z</time>
      </trkpt>
      <trkpt lat="45.07867" lon="4.89774">
        <ele>172.50999450684</ele>
        <time>2009-09-19T12:08:28Z</time>
      </trkpt>
      <trkpt lat="45.07879" lon="4.89717">
        <ele>172.29100036621</ele>
        <time>2009-09-19T12:08:32Z</time>
      </trkpt>
      <trkpt lat="45.0789" lon="4.89551">
        <ele>170.55000305176</ele>
        <time>2009-09-19T12:08:43Z</time>
      </trkpt>
      <trkpt lat="45.07883" lon="4.89429">
        <ele>171.22099304199</ele>
        <time>2009-09-19T12:08:52Z</time>
      </trkpt>
      <trkpt lat="45.07868" lon="4.89367">
        <ele>171.47500610352</ele>
        <time>2009-09-19T12:08:57Z</time>
      </trkpt>
      <trkpt lat="45.07835" lon="4.89274">
        <ele>171.44700622559</ele>
        <time>2009-09-19T12:09:05Z</time>
      </trkpt>
      <trkpt lat="45.07808" lon="4.89209">
        <ele>170.83999633789</ele>
        <time>2009-09-19T12:09:11Z</time>
      </trkpt>
      <trkpt lat="45.07781" lon="4.89126">
        <ele>166.00700378418</ele>
        <time>2009-09-19T12:09:18Z</time>
      </trkpt>
      <trkpt lat="45.07758" lon="4.8906">
        <ele>162.24899291992</ele>
        <time>2009-09-19T12:09:23Z</time>
      </trkpt>
      <trkpt lat="45.07671" lon="4.8897">
        <ele>160.46099853516</ele>
        <time>2009-09-19T12:09:34Z</time>
      </trkpt>
      <trkpt lat="45.07617" lon="4.88953">
        <ele>160.41900634766</ele>
        <time>2009-09-19T12:09:40Z</time>
      </trkpt>
      <trkpt lat="45.07572" lon="4.88957">
        <ele>159.48399353027</ele>
        <time>2009-09-19T12:09:45Z</time>
      </trkpt>
      <trkpt lat="45.07517" lon="4.88953">
        <ele>159.01800537109</ele>
        <time>2009-09-19T12:09:52Z</time>
      </trkpt>
      <trkpt lat="45.07509" lon="4.88951">
        <ele>158.81199645996</ele>
        <time>2009-09-19T12:09:53Z</time>
      </trkpt>
      <trkpt lat="45.07493" lon="4.88943">
        <ele>158.60099792481</ele>
        <time>2009-09-19T12:09:55Z</time>
      </trkpt>
      <trkpt lat="45.07439" lon="4.88909">
        <ele>157.18499755859</ele>
        <time>2009-09-19T12:10:02Z</time>
      </trkpt>
      <trkpt lat="45.07393" lon="4.88843">
        <ele>156.24099731445</ele>
        <time>2009-09-19T12:10:10Z</time>
      </trkpt>
      <trkpt lat="45.0738" lon="4.88799">
        <ele>155.80299377441</ele>
        <time>2009-09-19T12:10:14Z</time>
      </trkpt>
      <trkpt lat="45.07368" lon="4.88714">
        <ele>153.64300537109</ele>
        <time>2009-09-19T12:10:21Z</time>
      </trkpt>
      <trkpt lat="45.07335" lon="4.88535">
        <ele>151.84800720215</ele>
        <time>2009-09-19T12:10:36Z</time>
      </trkpt>
      <trkpt lat="45.07256" lon="4.88324">
        <ele>149.19900512695</ele>
        <time>2009-09-19T12:10:55Z</time>
      </trkpt>
      <trkpt lat="45.07161" lon="4.88166">
        <ele>147.39100646973</ele>
        <time>2009-09-19T12:11:10Z</time>
      </trkpt>
      <trkpt lat="45.07066" lon="4.87969">
        <ele>146.60499572754</ele>
        <time>2009-09-19T12:11:27Z</time>
      </trkpt>
      <trkpt lat="45.07015" lon="4.87799">
        <ele>145.29600524902</ele>
        <time>2009-09-19T12:11:41Z</time>
      </trkpt>
      <trkpt lat="45.06941" lon="4.87555">
        <ele>141.58999633789</ele>
        <time>2009-09-19T12:12:01Z</time>
      </trkpt>
      <trkpt lat="45.06909" lon="4.87502">
        <ele>140.68400573731</ele>
        <time>2009-09-19T12:12:06Z</time>
      </trkpt>
      <trkpt lat="45.06855" lon="4.87447">
        <ele>140.35200500488</ele>
        <time>2009-09-19T12:12:13Z</time>
      </trkpt>
      <trkpt lat="45.06851" lon="4.87394">
        <ele>139.2140045166</ele>
        <time>2009-09-19T12:12:17Z</time>
      </trkpt>
      <trkpt lat="45.06889" lon="4.87213">
        <ele>139.95199584961</ele>
        <time>2009-09-19T12:12:32Z</time>
      </trkpt>
      <trkpt lat="45.06969" lon="4.87056">
        <ele>139.69200134277</ele>
        <time>2009-09-19T12:12:47Z</time>
      </trkpt>
      <trkpt lat="45.07012" lon="4.86906">
        <ele>139.81199645996</ele>
        <time>2009-09-19T12:13:00Z</time>
      </trkpt>
      <trkpt lat="45.07033" lon="4.86741">
        <ele>136.57600402832</ele>
        <time>2009-09-19T12:13:13Z</time>
      </trkpt>
      <trkpt lat="45.07035" lon="4.86727">
        <ele>136.28999328613</ele>
        <time>2009-09-19T12:13:14Z</time>
      </trkpt>
      <trkpt lat="45.07042" lon="4.867">
        <ele>135.29100036621</ele>
        <time>2009-09-19T12:13:16Z</time>
      </trkpt>
      <trkpt lat="45.07053" lon="4.86674">
        <ele>135.06300354004</ele>
        <time>2009-09-19T12:13:18Z</time>
      </trkpt>
      <trkpt lat="45.07085" lon="4.86613">
        <ele>132.48899841309</ele>
        <time>2009-09-19T12:13:23Z</time>
      </trkpt>
      <trkpt lat="45.07096" lon="4.86569">
        <ele>130.78199768066</ele>
        <time>2009-09-19T12:13:26Z</time>
      </trkpt>
      <trkpt lat="45.07088" lon="4.86511">
        <ele>129.42999267578</ele>
        <time>2009-09-19T12:13:30Z</time>
      </trkpt>
      <trkpt lat="45.07083" lon="4.865">
        <ele>129.23699951172</ele>
        <time>2009-09-19T12:13:31Z</time>
      </trkpt>
      <trkpt lat="45.07071" lon="4.8648">
        <ele>128.23899841309</ele>
        <time>2009-09-19T12:13:33Z</time>
      </trkpt>
      <trkpt lat="45.07064" lon="4.86441">
        <ele>128.46200561523</ele>
        <time>2009-09-19T12:13:37Z</time>
      </trkpt>
      <trkpt lat="45.07042" lon="4.86376">
        <ele>128.56500244141</ele>
        <time>2009-09-19T12:13:44Z</time>
      </trkpt>
      <trkpt lat="45.07041" lon="4.86337">
        <ele>127.75199890137</ele>
        <time>2009-09-19T12:13:48Z</time>
      </trkpt>
      <trkpt lat="45.07046" lon="4.86327">
        <ele>127.9049987793</ele>
        <time>2009-09-19T12:13:49Z</time>
      </trkpt>
      <trkpt lat="45.07069" lon="4.86273">
        <ele>127.71600341797</ele>
        <time>2009-09-19T12:13:54Z</time>
      </trkpt>
      <trkpt lat="45.07079" lon="4.86121">
        <ele>126.71700286865</ele>
        <time>2009-09-19T12:14:06Z</time>
      </trkpt>
      <trkpt lat="45.07071" lon="4.85898">
        <ele>127.08799743652</ele>
        <time>2009-09-19T12:14:24Z</time>
      </trkpt>
      <trkpt lat="45.07079" lon="4.85854">
        <ele>127.82800292969</ele>
        <time>2009-09-19T12:14:28Z</time>
      </trkpt>
      <trkpt lat="45.07087" lon="4.85794">
        <ele>127.12999725342</ele>
        <time>2009-09-19T12:14:34Z</time>
      </trkpt>
      <trkpt lat="45.07086" lon="4.85757">
        <ele>125.7559967041</ele>
        <time>2009-09-19T12:14:37Z</time>
      </trkpt>
      <trkpt lat="45.07095" lon="4.85566">
        <ele>122.44899749756</ele>
        <time>2009-09-19T12:14:51Z</time>
      </trkpt>
      <trkpt lat="45.07092" lon="4.85362">
        <ele>121.16300201416</ele>
        <time>2009-09-19T12:15:06Z</time>
      </trkpt>
      <trkpt lat="45.07082" lon="4.85131">
        <ele>119.3809967041</ele>
        <time>2009-09-19T12:15:23Z</time>
      </trkpt>
      <trkpt lat="45.07078" lon="4.85077">
        <ele>119.05500030518</ele>
        <time>2009-09-19T12:15:27Z</time>
      </trkpt>
      <trkpt lat="45.07085" lon="4.84999">
        <ele>117.5830001831</ele>
        <time>2009-09-19T12:15:33Z</time>
      </trkpt>
      <trkpt lat="45.07087" lon="4.8497">
        <ele>116.25800323486</ele>
        <time>2009-09-19T12:15:35Z</time>
      </trkpt>
      <trkpt lat="45.07084" lon="4.84939">
        <ele>115.68900299072</ele>
        <time>2009-09-19T12:15:37Z</time>
      </trkpt>
      <trkpt lat="45.07051" lon="4.84806">
        <ele>118.89700317383</ele>
        <time>2009-09-19T12:15:47Z</time>
      </trkpt>
      <trkpt lat="45.07037" lon="4.84679">
        <ele>119.04699707031</ele>
        <time>2009-09-19T12:15:58Z</time>
      </trkpt>
      <trkpt lat="45.07021" lon="4.84604">
        <ele>118.7559967041</ele>
        <time>2009-09-19T12:16:04Z</time>
      </trkpt>
      <trkpt lat="45.07032" lon="4.84449">
        <ele>118.40699768066</ele>
        <time>2009-09-19T12:16:16Z</time>
      </trkpt>
      <trkpt lat="45.07043" lon="4.8434">
        <ele>118.69599914551</ele>
        <time>2009-09-19T12:16:25Z</time>
      </trkpt>
      <trkpt lat="45.07023" lon="4.84336">
        <ele>118.97200012207</ele>
        <time>2009-09-19T12:16:30Z</time>
      </trkpt>
      <trkpt lat="45.07005" lon="4.84342">
        <ele>118.49500274658</ele>
        <time>2009-09-19T12:16:33Z</time>
      </trkpt>
      <trkpt lat="45.06896" lon="4.84349">
        <ele>118.54499816894</ele>
        <time>2009-09-19T12:16:48Z</time>
      </trkpt>
      <trkpt lat="45.06881" lon="4.84349">
        <ele>119.02400207519</ele>
        <time>2009-09-19T12:16:51Z</time>
      </trkpt>
      <trkpt lat="45.06877" lon="4.8433">
        <ele>118.69000244141</ele>
        <time>2009-09-19T12:16:56Z</time>
      </trkpt>
      <trkpt lat="45.06905" lon="4.84224">
        <ele>119.12200164795</ele>
        <time>2009-09-19T12:17:10Z</time>
      </trkpt>
      <trkpt lat="45.06896" lon="4.84205">
        <ele>118.7379989624</ele>
        <time>2009-09-19T12:17:14Z</time>
      </trkpt>
      <trkpt lat="45.06825" lon="4.84168">
        <ele>121.32199859619</ele>
        <time>2009-09-19T12:17:27Z</time>
      </trkpt>
      <trkpt lat="45.06777" lon="4.84138">
        <ele>122.45700073242</ele>
        <time>2009-09-19T12:17:35Z</time>
      </trkpt>
      <trkpt lat="45.06682" lon="4.8408">
        <ele>124.32399749756</ele>
        <time>2009-09-19T12:17:50Z</time>
      </trkpt>
      <trkpt lat="45.06575" lon="4.84015">
        <ele>123.25499725342</ele>
        <time>2009-09-19T12:18:06Z</time>
      </trkpt>
      <trkpt lat="45.06562" lon="4.83971">
        <ele>122.84899902344</ele>
        <time>2009-09-19T12:18:12Z</time>
      </trkpt>
      <trkpt lat="45.06565" lon="4.83961">
        <ele>122.16400146484</ele>
        <time>2009-09-19T12:18:13Z</time>
      </trkpt>
      <trkpt lat="45.06627" lon="4.83803">
        <ele>122.34400177002</ele>
        <time>2009-09-19T12:18:28Z</time>
      </trkpt>
      <trkpt lat="45.06677" lon="4.83685">
        <ele>122.02799987793</ele>
        <time>2009-09-19T12:18:40Z</time>
      </trkpt>
      <trkpt lat="45.06718" lon="4.83595">
        <ele>122.54299926758</ele>
        <time>2009-09-19T12:18:49Z</time>
      </trkpt>
      <trkpt lat="45.06757" lon="4.8351">
        <ele>123.02200317383</ele>
        <time>2009-09-19T12:18:59Z</time>
      </trkpt>
      <trkpt lat="45.06769" lon="4.83483">
        <ele>122.67400360107</ele>
        <time>2009-09-19T12:19:07Z</time>
      </trkpt>
      <trkpt lat="45.06773" lon="4.83476">
        <ele>122.62000274658</ele>
        <time>2009-09-19T12:19:13Z</time>
      </trkpt>
      <trkpt lat="45.06773" lon="4.83473">
        <ele>122.8330001831</ele>
        <time>2009-09-19T12:19:42Z</time>
      </trkpt>
      <trkpt lat="45.06775" lon="4.83469">
        <ele>122.40200042725</ele>
        <time>2009-09-19T12:19:43Z</time>
      </trkpt>
      <trkpt lat="45.06799" lon="4.83421">
        <ele>121.62999725342</ele>
        <time>2009-09-19T12:19:50Z</time>
      </trkpt>
      <trkpt lat="45.06857" lon="4.83306">
        <ele>120.797996521</ele>
        <time>2009-09-19T12:20:03Z</time>
      </trkpt>
      <trkpt lat="45.06873" lon="4.83274">
        <ele>121.12400054932</ele>
        <time>2009-09-19T12:20:07Z</time>
      </trkpt>
      <trkpt lat="45.06878" lon="4.83254">
        <ele>120.94699859619</ele>
        <time>2009-09-19T12:20:09Z</time>
      </trkpt>
      <trkpt lat="45.06892" lon="4.83217">
        <ele>120.86499786377</ele>
        <time>2009-09-19T12:20:13Z</time>
      </trkpt>
      <trkpt lat="45.06941" lon="4.83117">
        <ele>118.40100097656</ele>
        <time>2009-09-19T12:20:23Z</time>
      </trkpt>
      <trkpt lat="45.06957" lon="4.83092">
        <ele>118.47200012207</ele>
        <time>2009-09-19T12:20:26Z</time>
      </trkpt>
      <trkpt lat="45.0703" lon="4.82991">
        <ele>118.48100280762</ele>
        <time>2009-09-19T12:20:38Z</time>
      </trkpt>
      <trkpt lat="45.07048" lon="4.82966">
        <ele>118.65299987793</ele>
        <time>2009-09-19T12:20:41Z</time>
      </trkpt>
      <trkpt lat="45.07058" lon="4.82915">
        <ele>118.7799987793</ele>
        <time>2009-09-19T12:20:46Z</time>
      </trkpt>
      <trkpt lat="45.07056" lon="4.82888">
        <ele>119.14399719238</ele>
        <time>2009-09-19T12:20:49Z</time>
      </trkpt>
      <trkpt lat="45.07059" lon="4.8286">
        <ele>120.51499938965</ele>
        <time>2009-09-19T12:20:53Z</time>
      </trkpt>
      <trkpt lat="45.07073" lon="4.82853">
        <ele>120.25900268555</ele>
        <time>2009-09-19T12:20:56Z</time>
      </trkpt>
      <trkpt lat="45.07093" lon="4.82836">
        <ele>121.19699859619</ele>
        <time>2009-09-19T12:21:00Z</time>
      </trkpt>
      <trkpt lat="45.07122" lon="4.82807">
        <ele>121.76499938965</ele>
        <time>2009-09-19T12:21:06Z</time>
      </trkpt>
      <trkpt lat="45.07151" lon="4.82774">
        <ele>121.88400268555</ele>
        <time>2009-09-19T12:21:12Z</time>
      </trkpt>
      <trkpt lat="45.07175" lon="4.82741">
        <ele>121.71099853516</ele>
        <time>2009-09-19T12:21:17Z</time>
      </trkpt>
      <trkpt lat="45.07196" lon="4.82707">
        <ele>121.83200073242</ele>
        <time>2009-09-19T12:21:22Z</time>
      </trkpt>
      <trkpt lat="45.07207" lon="4.82682">
        <ele>122.86799621582</ele>
        <time>2009-09-19T12:21:29Z</time>
      </trkpt>
      <trkpt lat="45.07215" lon="4.82666">
        <ele>122.53500366211</ele>
        <time>2009-09-19T12:21:34Z</time>
      </trkpt>
      <trkpt lat="45.0722" lon="4.82657">
        <ele>122.31300354004</ele>
        <time>2009-09-19T12:21:36Z</time>
      </trkpt>
      <trkpt lat="45.07244" lon="4.82595">
        <ele>122.7200012207</ele>
        <time>2009-09-19T12:21:47Z</time>
      </trkpt>
      <trkpt lat="45.07275" lon="4.82486">
        <ele>122.55100250244</ele>
        <time>2009-09-19T12:22:03Z</time>
      </trkpt>
      <trkpt lat="45.07283" lon="4.8244">
        <ele>122.21800231934</ele>
        <time>2009-09-19T12:22:09Z</time>
      </trkpt>
      <trkpt lat="45.07288" lon="4.82408">
        <ele>122.77400207519</ele>
        <time>2009-09-19T12:22:13Z</time>
      </trkpt>
      <trkpt lat="45.07288" lon="4.82299">
        <ele>123.2379989624</ele>
        <time>2009-09-19T12:22:26Z</time>
      </trkpt>
      <trkpt lat="45.07283" lon="4.82267">
        <ele>123.84200286865</ele>
        <time>2009-09-19T12:22:30Z</time>
      </trkpt>
      <trkpt lat="45.07274" lon="4.82242">
        <ele>123.64099884033</ele>
        <time>2009-09-19T12:22:34Z</time>
      </trkpt>
      <trkpt lat="45.0727" lon="4.82231">
        <ele>123.68699645996</ele>
        <time>2009-09-19T12:22:40Z</time>
      </trkpt>
      <trkpt lat="45.07267" lon="4.82214">
        <ele>123.09400177002</ele>
        <time>2009-09-19T12:22:45Z</time>
      </trkpt>
      <trkpt lat="45.07257" lon="4.82192">
        <ele>123.40599822998</ele>
        <time>2009-09-19T12:22:51Z</time>
      </trkpt>
      <trkpt lat="45.07236" lon="4.82174">
        <ele>123.65000152588</ele>
        <time>2009-09-19T12:22:57Z</time>
      </trkpt>
      <trkpt lat="45.07211" lon="4.82156">
        <ele>123.02200317383</ele>
        <time>2009-09-19T12:23:03Z</time>
      </trkpt>
      <trkpt lat="45.07197" lon="4.82141">
        <ele>122.69499969482</ele>
        <time>2009-09-19T12:23:06Z</time>
      </trkpt>
      <trkpt lat="45.07119" lon="4.82055">
        <ele>123.40599822998</ele>
        <time>2009-09-19T12:23:23Z</time>
      </trkpt>
      <trkpt lat="45.07055" lon="4.81985">
        <ele>124.44799804688</ele>
        <time>2009-09-19T12:23:36Z</time>
      </trkpt>
      <trkpt lat="45.07006" lon="4.81903">
        <ele>125.29699707031</ele>
        <time>2009-09-19T12:23:48Z</time>
      </trkpt>
      <trkpt lat="45.06985" lon="4.81841">
        <ele>126.74800109863</ele>
        <time>2009-09-19T12:23:56Z</time>
      </trkpt>
      <trkpt lat="45.06965" lon="4.81775">
        <ele>126.98100280762</ele>
        <time>2009-09-19T12:24:04Z</time>
      </trkpt>
      <trkpt lat="45.06941" lon="4.81694">
        <ele>126.70600128174</ele>
        <time>2009-09-19T12:24:13Z</time>
      </trkpt>
      <trkpt lat="45.06892" lon="4.81523">
        <ele>127.17700195312</ele>
        <time>2009-09-19T12:24:32Z</time>
      </trkpt>
      <trkpt lat="45.0684" lon="4.81366">
        <ele>129.08799743652</ele>
        <time>2009-09-19T12:24:50Z</time>
      </trkpt>
      <trkpt lat="45.06779" lon="4.81223">
        <ele>131.12800598144</ele>
        <time>2009-09-19T12:25:08Z</time>
      </trkpt>
      <trkpt lat="45.06736" lon="4.811">
        <ele>131.97999572754</ele>
        <time>2009-09-19T12:25:23Z</time>
      </trkpt>
      <trkpt lat="45.06717" lon="4.80985">
        <ele>130.45799255371</ele>
        <time>2009-09-19T12:25:35Z</time>
      </trkpt>
      <trkpt lat="45.0671" lon="4.80886">
        <ele>129.25900268555</ele>
        <time>2009-09-19T12:25:44Z</time>
      </trkpt>
      <trkpt lat="45.06713" lon="4.80845">
        <ele>128.4049987793</ele>
        <time>2009-09-19T12:25:48Z</time>
      </trkpt>
      <trkpt lat="45.06696" lon="4.8079">
        <ele>128.46099853516</ele>
        <time>2009-09-19T12:25:54Z</time>
      </trkpt>
      <trkpt lat="45.06694" lon="4.80769">
        <ele>127.7379989624</ele>
        <time>2009-09-19T12:25:56Z</time>
      </trkpt>
      <trkpt lat="45.06686" lon="4.80577">
        <ele>125.8870010376</ele>
        <time>2009-09-19T12:26:14Z</time>
      </trkpt>
      <trkpt lat="45.06686" lon="4.80443">
        <ele>125.67500305176</ele>
        <time>2009-09-19T12:26:26Z</time>
      </trkpt>
      <trkpt lat="45.06689" lon="4.80236">
        <ele>124.76899719238</ele>
        <time>2009-09-19T12:26:45Z</time>
      </trkpt>
      <trkpt lat="45.06693" lon="4.80007">
        <ele>125.50199890137</ele>
        <time>2009-09-19T12:27:07Z</time>
      </trkpt>
      <trkpt lat="45.06695" lon="4.79865">
        <ele>125.06400299072</ele>
        <time>2009-09-19T12:27:21Z</time>
      </trkpt>
      <trkpt lat="45.06688" lon="4.7978">
        <ele>126.83999633789</ele>
        <time>2009-09-19T12:27:30Z</time>
      </trkpt>
      <trkpt lat="45.06632" lon="4.79642">
        <ele>129.83000183106</ele>
        <time>2009-09-19T12:27:48Z</time>
      </trkpt>
      <trkpt lat="45.06625" lon="4.79628">
        <ele>130.64500427246</ele>
        <time>2009-09-19T12:27:50Z</time>
      </trkpt>
      <trkpt lat="45.06622" lon="4.7962">
        <ele>130.74699401856</ele>
        <time>2009-09-19T12:27:51Z</time>
      </trkpt>
      <trkpt lat="45.06562" lon="4.7945">
        <ele>132.63200378418</ele>
        <time>2009-09-19T12:28:10Z</time>
      </trkpt>
      <trkpt lat="45.06548" lon="4.79404">
        <ele>132.6549987793</ele>
        <time>2009-09-19T12:28:15Z</time>
      </trkpt>
      <trkpt lat="45.06481" lon="4.79306">
        <ele>133.38499450684</ele>
        <time>2009-09-19T12:28:29Z</time>
      </trkpt>
      <trkpt lat="45.06433" lon="4.79218">
        <ele>134.35099792481</ele>
        <time>2009-09-19T12:28:40Z</time>
      </trkpt>
      <trkpt lat="45.06437" lon="4.79123">
        <ele>134.19000244141</ele>
        <time>2009-09-19T12:28:49Z</time>
      </trkpt>
      <trkpt lat="45.06491" lon="4.78946">
        <ele>135.57899475098</ele>
        <time>2009-09-19T12:29:07Z</time>
      </trkpt>
      <trkpt lat="45.06504" lon="4.7887">
        <ele>135.86000061035</ele>
        <time>2009-09-19T12:29:14Z</time>
      </trkpt>
      <trkpt lat="45.06553" lon="4.78737">
        <ele>137.23399353027</ele>
        <time>2009-09-19T12:29:29Z</time>
      </trkpt>
      <trkpt lat="45.06616" lon="4.786">
        <ele>138.83700561523</ele>
        <time>2009-09-19T12:29:46Z</time>
      </trkpt>
      <trkpt lat="45.06635" lon="4.78447">
        <ele>141.21200561523</ele>
        <time>2009-09-19T12:30:02Z</time>
      </trkpt>
      <trkpt lat="45.06629" lon="4.78314">
        <ele>144.0299987793</ele>
        <time>2009-09-19T12:30:16Z</time>
      </trkpt>
      <trkpt lat="45.06624" lon="4.7821">
        <ele>145.36799621582</ele>
        <time>2009-09-19T12:30:28Z</time>
      </trkpt>
      <trkpt lat="45.06592" lon="4.78157">
        <ele>147.01800537109</ele>
        <time>2009-09-19T12:30:36Z</time>
      </trkpt>
      <trkpt lat="45.06517" lon="4.78136">
        <ele>147.52499389648</ele>
        <time>2009-09-19T12:30:48Z</time>
      </trkpt>
      <trkpt lat="45.06458" lon="4.78133">
        <ele>148.95599365234</ele>
        <time>2009-09-19T12:30:57Z</time>
      </trkpt>
      <trkpt lat="45.06423" lon="4.7817">
        <ele>150.24899291992</ele>
        <time>2009-09-19T12:31:04Z</time>
      </trkpt>
      <trkpt lat="45.06417" lon="4.78188">
        <ele>150.33099365234</ele>
        <time>2009-09-19T12:31:06Z</time>
      </trkpt>
      <trkpt lat="45.06387" lon="4.78252">
        <ele>151.43800354004</ele>
        <time>2009-09-19T12:31:14Z</time>
      </trkpt>
      <trkpt lat="45.06382" lon="4.7827">
        <ele>151.96699523926</ele>
        <time>2009-09-19T12:31:16Z</time>
      </trkpt>
      <trkpt lat="45.06346" lon="4.78359">
        <ele>152.67399597168</ele>
        <time>2009-09-19T12:31:27Z</time>
      </trkpt>
      <trkpt lat="45.06341" lon="4.78433">
        <ele>153.76300048828</ele>
        <time>2009-09-19T12:31:35Z</time>
      </trkpt>
      <trkpt lat="45.06298" lon="4.78541">
        <ele>156.19700622559</ele>
        <time>2009-09-19T12:31:49Z</time>
      </trkpt>
      <trkpt lat="45.06252" lon="4.78609">
        <ele>157.84199523926</ele>
        <time>2009-09-19T12:31:59Z</time>
      </trkpt>
      <trkpt lat="45.06184" lon="4.78659">
        <ele>160.33999633789</ele>
        <time>2009-09-19T12:32:11Z</time>
      </trkpt>
      <trkpt lat="45.06099" lon="4.78678">
        <ele>162.50999450684</ele>
        <time>2009-09-19T12:32:24Z</time>
      </trkpt>
      <trkpt lat="45.06054" lon="4.78678">
        <ele>164.34399414062</ele>
        <time>2009-09-19T12:32:31Z</time>
      </trkpt>
      <trkpt lat="45.05976" lon="4.7864">
        <ele>167.45799255371</ele>
        <time>2009-09-19T12:32:44Z</time>
      </trkpt>
      <trkpt lat="45.05961" lon="4.78625">
        <ele>167.98100280762</ele>
        <time>2009-09-19T12:32:47Z</time>
      </trkpt>
      <trkpt lat="45.05928" lon="4.7857">
        <ele>170.1609954834</ele>
        <time>2009-09-19T12:32:55Z</time>
      </trkpt>
      <trkpt lat="45.0589" lon="4.78494">
        <ele>171.28500366211</ele>
        <time>2009-09-19T12:33:05Z</time>
      </trkpt>
      <trkpt lat="45.0585" lon="4.78475">
        <ele>172.95799255371</ele>
        <time>2009-09-19T12:33:12Z</time>
      </trkpt>
      <trkpt lat="45.05831" lon="4.78481">
        <ele>173.32600402832</ele>
        <time>2009-09-19T12:33:15Z</time>
      </trkpt>
      <trkpt lat="45.05789" lon="4.7847">
        <ele>174.16499328613</ele>
        <time>2009-09-19T12:33:22Z</time>
      </trkpt>
      <trkpt lat="45.0577" lon="4.7847">
        <ele>174.14700317383</ele>
        <time>2009-09-19T12:33:25Z</time>
      </trkpt>
      <trkpt lat="45.05748" lon="4.7848">
        <ele>175.92999267578</ele>
        <time>2009-09-19T12:33:29Z</time>
      </trkpt>
      <trkpt lat="45.05737" lon="4.78488">
        <ele>176.72500610352</ele>
        <time>2009-09-19T12:33:31Z</time>
      </trkpt>
      <trkpt lat="45.057" lon="4.78495">
        <ele>176.92999267578</ele>
        <time>2009-09-19T12:33:37Z</time>
      </trkpt>
      <trkpt lat="45.05676" lon="4.78486">
        <ele>178.3390045166</ele>
        <time>2009-09-19T12:33:41Z</time>
      </trkpt>
      <trkpt lat="45.05671" lon="4.78483">
        <ele>178.79699707031</ele>
        <time>2009-09-19T12:33:42Z</time>
      </trkpt>
      <trkpt lat="45.05645" lon="4.78425">
        <ele>181.25999450684</ele>
        <time>2009-09-19T12:33:51Z</time>
      </trkpt>
      <trkpt lat="45.05652" lon="4.78393">
        <ele>181.60400390625</ele>
        <time>2009-09-19T12:33:55Z</time>
      </trkpt>
      <trkpt lat="45.05675" lon="4.78299">
        <ele>183.97200012207</ele>
        <time>2009-09-19T12:34:08Z</time>
      </trkpt>
      <trkpt lat="45.05688" lon="4.78243">
        <ele>185.59800720215</ele>
        <time>2009-09-19T12:34:16Z</time>
      </trkpt>
      <trkpt lat="45.05681" lon="4.78222">
        <ele>185.69099426269</ele>
        <time>2009-09-19T12:34:21Z</time>
      </trkpt>
      <trkpt lat="45.05665" lon="4.78217">
        <ele>184.16299438477</ele>
        <time>2009-09-19T12:34:24Z</time>
      </trkpt>
      <trkpt lat="45.05609" lon="4.78206">
        <ele>182.58599853516</ele>
        <time>2009-09-19T12:34:32Z</time>
      </trkpt>
      <trkpt lat="45.05574" lon="4.78181">
        <ele>181.49800109863</ele>
        <time>2009-09-19T12:34:37Z</time>
      </trkpt>
      <trkpt lat="45.05552" lon="4.78173">
        <ele>180.2619934082</ele>
        <time>2009-09-19T12:34:40Z</time>
      </trkpt>
      <trkpt lat="45.05524" lon="4.78141">
        <ele>178.67399597168</ele>
        <time>2009-09-19T12:34:44Z</time>
      </trkpt>
      <trkpt lat="45.05513" lon="4.78124">
        <ele>178.51699829102</ele>
        <time>2009-09-19T12:34:46Z</time>
      </trkpt>
      <trkpt lat="45.0549" lon="4.78102">
        <ele>181.09899902344</ele>
        <time>2009-09-19T12:34:50Z</time>
      </trkpt>
      <trkpt lat="45.05472" lon="4.78075">
        <ele>185.05499267578</ele>
        <time>2009-09-19T12:34:56Z</time>
      </trkpt>
      <trkpt lat="45.05416" lon="4.78027">
        <ele>191.01499938965</ele>
        <time>2009-09-19T12:35:12Z</time>
      </trkpt>
      <trkpt lat="45.05405" lon="4.77972">
        <ele>194.10899353027</ele>
        <time>2009-09-19T12:35:24Z</time>
      </trkpt>
      <trkpt lat="45.05399" lon="4.77907">
        <ele>197.78700256348</ele>
        <time>2009-09-19T12:35:38Z</time>
      </trkpt>
      <trkpt lat="45.05399" lon="4.77898">
        <ele>199.41200256348</ele>
        <time>2009-09-19T12:35:40Z</time>
      </trkpt>
      <trkpt lat="45.05399" lon="4.7784">
        <ele>203.63299560547</ele>
        <time>2009-09-19T12:35:53Z</time>
      </trkpt>
      <trkpt lat="45.05399" lon="4.77835">
        <ele>203.81799316406</ele>
        <time>2009-09-19T12:35:54Z</time>
      </trkpt>
      <trkpt lat="45.05381" lon="4.77769">
        <ele>207.28900146484</ele>
        <time>2009-09-19T12:36:08Z</time>
      </trkpt>
      <trkpt lat="45.05367" lon="4.77701">
        <ele>211.96699523926</ele>
        <time>2009-09-19T12:36:23Z</time>
      </trkpt>
      <trkpt lat="45.05367" lon="4.77682">
        <ele>213.98899841309</ele>
        <time>2009-09-19T12:36:27Z</time>
      </trkpt>
      <trkpt lat="45.05348" lon="4.77639">
        <ele>217.25999450684</ele>
        <time>2009-09-19T12:36:38Z</time>
      </trkpt>
      <trkpt lat="45.05334" lon="4.77596">
        <ele>219.45899963379</ele>
        <time>2009-09-19T12:36:49Z</time>
      </trkpt>
      <trkpt lat="45.05326" lon="4.77535">
        <ele>224.66299438477</ele>
        <time>2009-09-19T12:37:02Z</time>
      </trkpt>
      <trkpt lat="45.05337" lon="4.77501">
        <ele>227.30799865723</ele>
        <time>2009-09-19T12:37:09Z</time>
      </trkpt>
      <trkpt lat="45.05357" lon="4.77464">
        <ele>230.21000671387</ele>
        <time>2009-09-19T12:37:18Z</time>
      </trkpt>
      <trkpt lat="45.05409" lon="4.77401">
        <ele>236.22300720215</ele>
        <time>2009-09-19T12:37:37Z</time>
      </trkpt>
      <trkpt lat="45.05443" lon="4.77342">
        <ele>241.74600219727</ele>
        <time>2009-09-19T12:37:53Z</time>
      </trkpt>
      <trkpt lat="45.05487" lon="4.77293">
        <ele>246.6309967041</ele>
        <time>2009-09-19T12:38:09Z</time>
      </trkpt>
      <trkpt lat="45.05503" lon="4.77252">
        <ele>250.77600097656</ele>
        <time>2009-09-19T12:38:18Z</time>
      </trkpt>
      <trkpt lat="45.05505" lon="4.77231">
        <ele>252.56700134277</ele>
        <time>2009-09-19T12:38:22Z</time>
      </trkpt>
      <trkpt lat="45.055" lon="4.7714">
        <ele>258.27600097656</ele>
        <time>2009-09-19T12:38:39Z</time>
      </trkpt>
      <trkpt lat="45.05498" lon="4.77113">
        <ele>259.75</ele>
        <time>2009-09-19T12:38:44Z</time>
      </trkpt>
      <trkpt lat="45.05484" lon="4.7704">
        <ele>265.48098754883</ele>
        <time>2009-09-19T12:38:59Z</time>
      </trkpt>
      <trkpt lat="45.05477" lon="4.77003">
        <ele>267.89199829102</ele>
        <time>2009-09-19T12:39:07Z</time>
      </trkpt>
      <trkpt lat="45.05474" lon="4.76982">
        <ele>269.83599853516</ele>
        <time>2009-09-19T12:39:12Z</time>
      </trkpt>
      <trkpt lat="45.05452" lon="4.76931">
        <ele>273.85598754883</ele>
        <time>2009-09-19T12:39:25Z</time>
      </trkpt>
      <trkpt lat="45.0541" lon="4.76911">
        <ele>278.04598999023</ele>
        <time>2009-09-19T12:39:39Z</time>
      </trkpt>
      <trkpt lat="45.05367" lon="4.76912">
        <ele>282.15899658203</ele>
        <time>2009-09-19T12:39:53Z</time>
      </trkpt>
      <trkpt lat="45.05364" lon="4.76906">
        <ele>283.05801391602</ele>
        <time>2009-09-19T12:39:55Z</time>
      </trkpt>
      <trkpt lat="45.05376" lon="4.76882">
        <ele>286.08499145508</ele>
        <time>2009-09-19T12:40:04Z</time>
      </trkpt>
      <trkpt lat="45.05416" lon="4.76822">
        <ele>291.35400390625</ele>
        <time>2009-09-19T12:40:23Z</time>
      </trkpt>
      <trkpt lat="45.05431" lon="4.76741">
        <ele>296.66101074219</ele>
        <time>2009-09-19T12:40:41Z</time>
      </trkpt>
      <trkpt lat="45.05447" lon="4.76699">
        <ele>297.74798583984</ele>
        <time>2009-09-19T12:40:50Z</time>
      </trkpt>
      <trkpt lat="45.05492" lon="4.76624">
        <ele>299.4049987793</ele>
        <time>2009-09-19T12:41:06Z</time>
      </trkpt>
      <trkpt lat="45.05507" lon="4.76579">
        <ele>303.47198486328</ele>
        <time>2009-09-19T12:41:18Z</time>
      </trkpt>
      <trkpt lat="45.05519" lon="4.76511">
        <ele>308.47399902344</ele>
        <time>2009-09-19T12:41:34Z</time>
      </trkpt>
      <trkpt lat="45.05536" lon="4.76437">
        <ele>313.44299316406</ele>
        <time>2009-09-19T12:41:50Z</time>
      </trkpt>
      <trkpt lat="45.05551" lon="4.76395">
        <ele>317.05200195312</ele>
        <time>2009-09-19T12:41:59Z</time>
      </trkpt>
      <trkpt lat="45.05562" lon="4.76345">
        <ele>321.20999145508</ele>
        <time>2009-09-19T12:42:12Z</time>
      </trkpt>
      <trkpt lat="45.05566" lon="4.76288">
        <ele>324.48901367188</ele>
        <time>2009-09-19T12:42:26Z</time>
      </trkpt>
      <trkpt lat="45.05583" lon="4.7624">
        <ele>328.08099365234</ele>
        <time>2009-09-19T12:42:39Z</time>
      </trkpt>
      <trkpt lat="45.05614" lon="4.76165">
        <ele>332.85400390625</ele>
        <time>2009-09-19T12:42:58Z</time>
      </trkpt>
      <trkpt lat="45.05625" lon="4.76129">
        <ele>335.18899536133</ele>
        <time>2009-09-19T12:43:06Z</time>
      </trkpt>
      <trkpt lat="45.05641" lon="4.76058">
        <ele>338.91299438477</ele>
        <time>2009-09-19T12:43:21Z</time>
      </trkpt>
      <trkpt lat="45.05668" lon="4.75997">
        <ele>343.20999145508</ele>
        <time>2009-09-19T12:43:37Z</time>
      </trkpt>
      <trkpt lat="45.05677" lon="4.75986">
        <ele>344.45401000977</ele>
        <time>2009-09-19T12:43:41Z</time>
      </trkpt>
      <trkpt lat="45.0568" lon="4.75996">
        <ele>345.5</ele>
        <time>2009-09-19T12:43:45Z</time>
      </trkpt>
      <trkpt lat="45.05671" lon="4.76022">
        <ele>346.96099853516</ele>
        <time>2009-09-19T12:43:51Z</time>
      </trkpt>
      <trkpt lat="45.05661" lon="4.76087">
        <ele>350.52398681641</ele>
        <time>2009-09-19T12:44:04Z</time>
      </trkpt>
      <trkpt lat="45.05685" lon="4.7613">
        <ele>353.95901489258</ele>
        <time>2009-09-19T12:44:15Z</time>
      </trkpt>
      <trkpt lat="45.05719" lon="4.76172">
        <ele>357.71798706055</ele>
        <time>2009-09-19T12:44:29Z</time>
      </trkpt>
      <trkpt lat="45.05719" lon="4.7622">
        <ele>361.93099975586</ele>
        <time>2009-09-19T12:44:41Z</time>
      </trkpt>
      <trkpt lat="45.05745" lon="4.76255">
        <ele>364.72399902344</ele>
        <time>2009-09-19T12:44:51Z</time>
      </trkpt>
      <trkpt lat="45.0579" lon="4.76246">
        <ele>368.22100830078</ele>
        <time>2009-09-19T12:45:03Z</time>
      </trkpt>
      <trkpt lat="45.05804" lon="4.76236">
        <ele>369.01300048828</ele>
        <time>2009-09-19T12:45:07Z</time>
      </trkpt>
      <trkpt lat="45.05825" lon="4.76209">
        <ele>370.7380065918</ele>
        <time>2009-09-19T12:45:14Z</time>
      </trkpt>
      <trkpt lat="45.05844" lon="4.76126">
        <ele>375.13000488281</ele>
        <time>2009-09-19T12:45:31Z</time>
      </trkpt>
      <trkpt lat="45.05856" lon="4.76028">
        <ele>379.17401123047</ele>
        <time>2009-09-19T12:45:50Z</time>
      </trkpt>
      <trkpt lat="45.05864" lon="4.75989">
        <ele>382.39700317383</ele>
        <time>2009-09-19T12:45:58Z</time>
      </trkpt>
      <trkpt lat="45.05877" lon="4.75929">
        <ele>386.73699951172</ele>
        <time>2009-09-19T12:46:10Z</time>
      </trkpt>
      <trkpt lat="45.05877" lon="4.75889">
        <ele>389.54598999023</ele>
        <time>2009-09-19T12:46:18Z</time>
      </trkpt>
      <trkpt lat="45.05862" lon="4.75801">
        <ele>394.58801269531</ele>
        <time>2009-09-19T12:46:36Z</time>
      </trkpt>
      <trkpt lat="45.05839" lon="4.75753">
        <ele>398.63598632812</ele>
        <time>2009-09-19T12:46:48Z</time>
      </trkpt>
      <trkpt lat="45.05831" lon="4.75733">
        <ele>399.61999511719</ele>
        <time>2009-09-19T12:46:53Z</time>
      </trkpt>
      <trkpt lat="45.05814" lon="4.75679">
        <ele>402.60299682617</ele>
        <time>2009-09-19T12:47:07Z</time>
      </trkpt>
      <trkpt lat="45.05805" lon="4.75641">
        <ele>404.54098510742</ele>
        <time>2009-09-19T12:47:15Z</time>
      </trkpt>
      <trkpt lat="45.05766" lon="4.75538">
        <ele>409.45001220703</ele>
        <time>2009-09-19T12:47:37Z</time>
      </trkpt>
      <trkpt lat="45.05746" lon="4.75485">
        <ele>412.30499267578</ele>
        <time>2009-09-19T12:47:46Z</time>
      </trkpt>
      <trkpt lat="45.05743" lon="4.75471">
        <ele>412.67999267578</ele>
        <time>2009-09-19T12:47:48Z</time>
      </trkpt>
      <trkpt lat="45.05745" lon="4.75445">
        <ele>414.45999145508</ele>
        <time>2009-09-19T12:47:52Z</time>
      </trkpt>
      <trkpt lat="45.05751" lon="4.75433">
        <ele>414.77899169922</ele>
        <time>2009-09-19T12:47:54Z</time>
      </trkpt>
      <trkpt lat="45.05762" lon="4.7541">
        <ele>416.40301513672</ele>
        <time>2009-09-19T12:47:58Z</time>
      </trkpt>
      <trkpt lat="45.05767" lon="4.75391">
        <ele>416.0419921875</ele>
        <time>2009-09-19T12:48:01Z</time>
      </trkpt>
      <trkpt lat="45.0576" lon="4.75293">
        <ele>418.04299926758</ele>
        <time>2009-09-19T12:48:17Z</time>
      </trkpt>
      <trkpt lat="45.05748" lon="4.75265">
        <ele>418.25399780273</ele>
        <time>2009-09-19T12:48:23Z</time>
      </trkpt>
      <trkpt lat="45.05719" lon="4.7522">
        <ele>418.31500244141</ele>
        <time>2009-09-19T12:48:31Z</time>
      </trkpt>
      <trkpt lat="45.05684" lon="4.75118">
        <ele>417.70901489258</ele>
        <time>2009-09-19T12:48:45Z</time>
      </trkpt>
      <trkpt lat="45.05676" lon="4.7509">
        <ele>415.88900756836</ele>
        <time>2009-09-19T12:48:48Z</time>
      </trkpt>
      <trkpt lat="45.05654" lon="4.75052">
        <ele>412.46099853516</ele>
        <time>2009-09-19T12:48:52Z</time>
      </trkpt>
      <trkpt lat="45.05635" lon="4.75007">
        <ele>412.51098632812</ele>
        <time>2009-09-19T12:48:56Z</time>
      </trkpt>
      <trkpt lat="45.05631" lon="4.74986">
        <ele>412.80999755859</ele>
        <time>2009-09-19T12:48:58Z</time>
      </trkpt>
      <trkpt lat="45.05628" lon="4.74951">
        <ele>412.65701293945</ele>
        <time>2009-09-19T12:49:02Z</time>
      </trkpt>
      <trkpt lat="45.05624" lon="4.74933">
        <ele>413.47900390625</ele>
        <time>2009-09-19T12:49:08Z</time>
      </trkpt>
      <trkpt lat="45.05625" lon="4.74932">
        <ele>413.06698608398</ele>
        <time>2009-09-19T12:50:05Z</time>
      </trkpt>
      <trkpt lat="45.05624" lon="4.7493">
        <ele>412.99200439453</ele>
        <time>2009-09-19T12:50:06Z</time>
      </trkpt>
      <trkpt lat="45.0562" lon="4.74892">
        <ele>413.84201049805</ele>
        <time>2009-09-19T12:50:15Z</time>
      </trkpt>
      <trkpt lat="45.05624" lon="4.74864">
        <ele>415.21398925781</ele>
        <time>2009-09-19T12:50:20Z</time>
      </trkpt>
      <trkpt lat="45.05632" lon="4.74828">
        <ele>416.50799560547</ele>
        <time>2009-09-19T12:50:26Z</time>
      </trkpt>
      <trkpt lat="45.05652" lon="4.74776">
        <ele>418.3450012207</ele>
        <time>2009-09-19T12:50:36Z</time>
      </trkpt>
      <trkpt lat="45.05659" lon="4.74755">
        <ele>418.97299194336</ele>
        <time>2009-09-19T12:50:40Z</time>
      </trkpt>
      <trkpt lat="45.05674" lon="4.74719">
        <ele>420.82699584961</ele>
        <time>2009-09-19T12:50:47Z</time>
      </trkpt>
      <trkpt lat="45.05665" lon="4.74659">
        <ele>423.14300537109</ele>
        <time>2009-09-19T12:50:58Z</time>
      </trkpt>
      <trkpt lat="45.05653" lon="4.7465">
        <ele>424.15399169922</ele>
        <time>2009-09-19T12:51:01Z</time>
      </trkpt>
      <trkpt lat="45.05632" lon="4.74638">
        <ele>424.84799194336</ele>
        <time>2009-09-19T12:51:06Z</time>
      </trkpt>
      <trkpt lat="45.05544" lon="4.74584">
        <ele>429.50500488281</ele>
        <time>2009-09-19T12:51:28Z</time>
      </trkpt>
      <trkpt lat="45.05485" lon="4.74529">
        <ele>432.88000488281</ele>
        <time>2009-09-19T12:51:45Z</time>
      </trkpt>
      <trkpt lat="45.05472" lon="4.74522">
        <ele>434.42098999023</ele>
        <time>2009-09-19T12:51:48Z</time>
      </trkpt>
      <trkpt lat="45.05402" lon="4.7447">
        <ele>434.17498779297</ele>
        <time>2009-09-19T12:52:04Z</time>
      </trkpt>
      <trkpt lat="45.05389" lon="4.7446">
        <ele>432.86898803711</ele>
        <time>2009-09-19T12:52:07Z</time>
      </trkpt>
      <trkpt lat="45.05379" lon="4.74454">
        <ele>432.76098632812</ele>
        <time>2009-09-19T12:52:09Z</time>
      </trkpt>
      <trkpt lat="45.05353" lon="4.74435">
        <ele>431.10800170898</ele>
        <time>2009-09-19T12:52:14Z</time>
      </trkpt>
      <trkpt lat="45.05322" lon="4.74413">
        <ele>429.22900390625</ele>
        <time>2009-09-19T12:52:19Z</time>
      </trkpt>
      <trkpt lat="45.0531" lon="4.74404">
        <ele>430.18798828125</ele>
        <time>2009-09-19T12:52:21Z</time>
      </trkpt>
      <trkpt lat="45.05278" lon="4.74371">
        <ele>426.90798950195</ele>
        <time>2009-09-19T12:52:26Z</time>
      </trkpt>
      <trkpt lat="45.05254" lon="4.74342">
        <ele>426.78500366211</ele>
        <time>2009-09-19T12:52:30Z</time>
      </trkpt>
      <trkpt lat="45.05188" lon="4.74254">
        <ele>426.87701416016</ele>
        <time>2009-09-19T12:52:42Z</time>
      </trkpt>
      <trkpt lat="45.05096" lon="4.7413">
        <ele>427.94299316406</ele>
        <time>2009-09-19T12:53:00Z</time>
      </trkpt>
      <trkpt lat="45.05066" lon="4.74077">
        <ele>427.85501098633</ele>
        <time>2009-09-19T12:53:07Z</time>
      </trkpt>
      <trkpt lat="45.05036" lon="4.73981">
        <ele>432.37399291992</ele>
        <time>2009-09-19T12:53:20Z</time>
      </trkpt>
      <trkpt lat="45.05024" lon="4.73961">
        <ele>434.31100463867</ele>
        <time>2009-09-19T12:53:25Z</time>
      </trkpt>
      <trkpt lat="45.05018" lon="4.73949">
        <ele>435.78298950195</ele>
        <time>2009-09-19T12:53:28Z</time>
      </trkpt>
      <trkpt lat="45.05011" lon="4.73926">
        <ele>437.19900512695</ele>
        <time>2009-09-19T12:53:33Z</time>
      </trkpt>
      <trkpt lat="45.04998" lon="4.7389">
        <ele>440.18899536133</ele>
        <time>2009-09-19T12:53:42Z</time>
      </trkpt>
      <trkpt lat="45.0499" lon="4.73867">
        <ele>442.37298583984</ele>
        <time>2009-09-19T12:53:49Z</time>
      </trkpt>
      <trkpt lat="45.04974" lon="4.73828">
        <ele>445.92599487305</ele>
        <time>2009-09-19T12:54:01Z</time>
      </trkpt>
      <trkpt lat="45.04956" lon="4.73784">
        <ele>449.71301269531</ele>
        <time>2009-09-19T12:54:14Z</time>
      </trkpt>
      <trkpt lat="45.04942" lon="4.73749">
        <ele>452.77099609375</ele>
        <time>2009-09-19T12:54:20Z</time>
      </trkpt>
      <trkpt lat="45.04932" lon="4.73726">
        <ele>455.82800292969</ele>
        <time>2009-09-19T12:54:25Z</time>
      </trkpt>
      <trkpt lat="45.04913" lon="4.73681">
        <ele>457.74301147461</ele>
        <time>2009-09-19T12:54:36Z</time>
      </trkpt>
      <trkpt lat="45.0488" lon="4.73614">
        <ele>459.40899658203</ele>
        <time>2009-09-19T12:54:52Z</time>
      </trkpt>
      <trkpt lat="45.04856" lon="4.73546">
        <ele>461.5419921875</ele>
        <time>2009-09-19T12:55:07Z</time>
      </trkpt>
      <trkpt lat="45.04845" lon="4.73504">
        <ele>463.21701049805</ele>
        <time>2009-09-19T12:55:15Z</time>
      </trkpt>
      <trkpt lat="45.04826" lon="4.73428">
        <ele>464.32901000977</ele>
        <time>2009-09-19T12:55:29Z</time>
      </trkpt>
      <trkpt lat="45.04813" lon="4.73366">
        <ele>463.69100952148</ele>
        <time>2009-09-19T12:55:39Z</time>
      </trkpt>
      <trkpt lat="45.04808" lon="4.73319">
        <ele>464.77899169922</ele>
        <time>2009-09-19T12:55:46Z</time>
      </trkpt>
      <trkpt lat="45.048" lon="4.73255">
        <ele>464.52600097656</ele>
        <time>2009-09-19T12:55:56Z</time>
      </trkpt>
      <trkpt lat="45.04791" lon="4.73154">
        <ele>467.38800048828</ele>
        <time>2009-09-19T12:56:12Z</time>
      </trkpt>
      <trkpt lat="45.04781" lon="4.73054">
        <ele>469.60400390625</ele>
        <time>2009-09-19T12:56:29Z</time>
      </trkpt>
      <trkpt lat="45.04771" lon="4.73025">
        <ele>471.63400268555</ele>
        <time>2009-09-19T12:56:36Z</time>
      </trkpt>
      <trkpt lat="45.0476" lon="4.73001">
        <ele>472.49099731445</ele>
        <time>2009-09-19T12:56:42Z</time>
      </trkpt>
      <trkpt lat="45.04751" lon="4.72985">
        <ele>473.84100341797</ele>
        <time>2009-09-19T12:56:46Z</time>
      </trkpt>
      <trkpt lat="45.04744" lon="4.72973">
        <ele>475.42300415039</ele>
        <time>2009-09-19T12:56:49Z</time>
      </trkpt>
      <trkpt lat="45.04715" lon="4.72917">
        <ele>477.18798828125</ele>
        <time>2009-09-19T12:57:02Z</time>
      </trkpt>
      <trkpt lat="45.04705" lon="4.72898">
        <ele>478.03601074219</ele>
        <time>2009-09-19T12:57:06Z</time>
      </trkpt>
      <trkpt lat="45.04654" lon="4.72782">
        <ele>481.33099365234</ele>
        <time>2009-09-19T12:57:28Z</time>
      </trkpt>
      <trkpt lat="45.04596" lon="4.72685">
        <ele>483.68499755859</ele>
        <time>2009-09-19T12:57:48Z</time>
      </trkpt>
      <trkpt lat="45.04587" lon="4.72671">
        <ele>484.65301513672</ele>
        <time>2009-09-19T12:57:51Z</time>
      </trkpt>
      <trkpt lat="45.04548" lon="4.72631">
        <ele>487.74798583984</ele>
        <time>2009-09-19T12:58:03Z</time>
      </trkpt>
      <trkpt lat="45.04512" lon="4.72603">
        <ele>490.46099853516</ele>
        <time>2009-09-19T12:58:15Z</time>
      </trkpt>
      <trkpt lat="45.04492" lon="4.72585">
        <ele>492.22698974609</ele>
        <time>2009-09-19T12:58:22Z</time>
      </trkpt>
      <trkpt lat="45.04435" lon="4.72538">
        <ele>495.02200317383</ele>
        <time>2009-09-19T12:58:38Z</time>
      </trkpt>
      <trkpt lat="45.04345" lon="4.72474">
        <ele>498.70098876953</ele>
        <time>2009-09-19T12:59:01Z</time>
      </trkpt>
      <trkpt lat="45.04277" lon="4.7244">
        <ele>498.49200439453</ele>
        <time>2009-09-19T12:59:17Z</time>
      </trkpt>
      <trkpt lat="45.04226" lon="4.72414">
        <ele>497.05599975586</ele>
        <time>2009-09-19T12:59:26Z</time>
      </trkpt>
      <trkpt lat="45.04184" lon="4.72409">
        <ele>496.23300170898</ele>
        <time>2009-09-19T12:59:33Z</time>
      </trkpt>
      <trkpt lat="45.04159" lon="4.72398">
        <ele>495.05200195312</ele>
        <time>2009-09-19T12:59:38Z</time>
      </trkpt>
      <trkpt lat="45.04115" lon="4.72373">
        <ele>493.67999267578</ele>
        <time>2009-09-19T12:59:46Z</time>
      </trkpt>
      <trkpt lat="45.04097" lon="4.72364">
        <ele>493.45700073242</ele>
        <time>2009-09-19T12:59:49Z</time>
      </trkpt>
      <trkpt lat="45.04008" lon="4.72289">
        <ele>490.60000610352</ele>
        <time>2009-09-19T13:00:04Z</time>
      </trkpt>
      <trkpt lat="45.03968" lon="4.72242">
        <ele>487.14401245117</ele>
        <time>2009-09-19T13:00:10Z</time>
      </trkpt>
      <trkpt lat="45.03902" lon="4.72165">
        <ele>485.14199829102</ele>
        <time>2009-09-19T13:00:20Z</time>
      </trkpt>
      <trkpt lat="45.03884" lon="4.72144">
        <ele>485.68301391602</ele>
        <time>2009-09-19T13:00:23Z</time>
      </trkpt>
      <trkpt lat="45.03829" lon="4.72082">
        <ele>486.70098876953</ele>
        <time>2009-09-19T13:00:33Z</time>
      </trkpt>
      <trkpt lat="45.03773" lon="4.72031">
        <ele>490.39498901367</ele>
        <time>2009-09-19T13:00:46Z</time>
      </trkpt>
      <trkpt lat="45.03739" lon="4.7201">
        <ele>491.69400024414</ele>
        <time>2009-09-19T13:00:55Z</time>
      </trkpt>
      <trkpt lat="45.03721" lon="4.72002">
        <ele>492.82800292969</ele>
        <time>2009-09-19T13:00:59Z</time>
      </trkpt>
      <trkpt lat="45.03617" lon="4.71956">
        <ele>494.17599487305</ele>
        <time>2009-09-19T13:01:21Z</time>
      </trkpt>
      <trkpt lat="45.035" lon="4.71904">
        <ele>496.69500732422</ele>
        <time>2009-09-19T13:01:45Z</time>
      </trkpt>
      <trkpt lat="45.03409" lon="4.71864">
        <ele>498.64001464844</ele>
        <time>2009-09-19T13:02:04Z</time>
      </trkpt>
      <trkpt lat="45.03367" lon="4.71844">
        <ele>501.10800170898</ele>
        <time>2009-09-19T13:02:13Z</time>
      </trkpt>
      <trkpt lat="45.03287" lon="4.71798">
        <ele>498.73498535156</ele>
        <time>2009-09-19T13:02:28Z</time>
      </trkpt>
      <trkpt lat="45.03187" lon="4.71752">
        <ele>498.61099243164</ele>
        <time>2009-09-19T13:02:43Z</time>
      </trkpt>
      <trkpt lat="45.03141" lon="4.7178">
        <ele>499.02600097656</ele>
        <time>2009-09-19T13:02:51Z</time>
      </trkpt>
      <trkpt lat="45.03139" lon="4.71789">
        <ele>499.68798828125</ele>
        <time>2009-09-19T13:02:52Z</time>
      </trkpt>
      <trkpt lat="45.03134" lon="4.71805">
        <ele>500.39498901367</ele>
        <time>2009-09-19T13:02:54Z</time>
      </trkpt>
      <trkpt lat="45.03119" lon="4.71845">
        <ele>500.70700073242</ele>
        <time>2009-09-19T13:02:59Z</time>
      </trkpt>
      <trkpt lat="45.03089" lon="4.71873">
        <ele>501.61401367188</ele>
        <time>2009-09-19T13:03:05Z</time>
      </trkpt>
      <trkpt lat="45.02997" lon="4.71911">
        <ele>503.98199462891</ele>
        <time>2009-09-19T13:03:23Z</time>
      </trkpt>
      <trkpt lat="45.02904" lon="4.71948">
        <ele>504.95901489258</ele>
        <time>2009-09-19T13:03:41Z</time>
      </trkpt>
      <trkpt lat="45.02784" lon="4.71987">
        <ele>505.36599731445</ele>
        <time>2009-09-19T13:04:03Z</time>
      </trkpt>
      <trkpt lat="45.02697" lon="4.71952">
        <ele>503.86999511719</ele>
        <time>2009-09-19T13:04:17Z</time>
      </trkpt>
      <trkpt lat="45.02641" lon="4.71921">
        <ele>500.56298828125</ele>
        <time>2009-09-19T13:04:25Z</time>
      </trkpt>
      <trkpt lat="45.02627" lon="4.71908">
        <ele>499.70700073242</ele>
        <time>2009-09-19T13:04:27Z</time>
      </trkpt>
      <trkpt lat="45.02615" lon="4.71891">
        <ele>499.65200805664</ele>
        <time>2009-09-19T13:04:29Z</time>
      </trkpt>
      <trkpt lat="45.02567" lon="4.71814">
        <ele>496.58898925781</ele>
        <time>2009-09-19T13:04:37Z</time>
      </trkpt>
      <trkpt lat="45.02548" lon="4.71783">
        <ele>495.27099609375</ele>
        <time>2009-09-19T13:04:40Z</time>
      </trkpt>
      <trkpt lat="45.0253" lon="4.71753">
        <ele>493.96499633789</ele>
        <time>2009-09-19T13:04:43Z</time>
      </trkpt>
      <trkpt lat="45.02513" lon="4.71692">
        <ele>493.18200683594</ele>
        <time>2009-09-19T13:04:48Z</time>
      </trkpt>
      <trkpt lat="45.02495" lon="4.71631">
        <ele>491.56100463867</ele>
        <time>2009-09-19T13:04:53Z</time>
      </trkpt>
      <trkpt lat="45.02391" lon="4.71461">
        <ele>489.32598876953</ele>
        <time>2009-09-19T13:05:10Z</time>
      </trkpt>
      <trkpt lat="45.02306" lon="4.71345">
        <ele>491.12399291992</ele>
        <time>2009-09-19T13:05:25Z</time>
      </trkpt>
      <trkpt lat="45.02209" lon="4.71269">
        <ele>492.75201416016</ele>
        <time>2009-09-19T13:05:40Z</time>
      </trkpt>
      <trkpt lat="45.02144" lon="4.7121">
        <ele>493.04299926758</ele>
        <time>2009-09-19T13:05:50Z</time>
      </trkpt>
      <trkpt lat="45.02114" lon="4.71188">
        <ele>491.49700927734</ele>
        <time>2009-09-19T13:05:54Z</time>
      </trkpt>
      <trkpt lat="45.02089" lon="4.71152">
        <ele>490.23400878906</ele>
        <time>2009-09-19T13:05:58Z</time>
      </trkpt>
      <trkpt lat="45.02071" lon="4.71108">
        <ele>489.09600830078</ele>
        <time>2009-09-19T13:06:02Z</time>
      </trkpt>
      <trkpt lat="45.02045" lon="4.7107">
        <ele>487.6789855957</ele>
        <time>2009-09-19T13:06:06Z</time>
      </trkpt>
      <trkpt lat="45.01991" lon="4.71">
        <ele>486.66799926758</ele>
        <time>2009-09-19T13:06:14Z</time>
      </trkpt>
      <trkpt lat="45.01979" lon="4.70982">
        <ele>486.14898681641</ele>
        <time>2009-09-19T13:06:16Z</time>
      </trkpt>
      <trkpt lat="45.01958" lon="4.70927">
        <ele>485.88101196289</ele>
        <time>2009-09-19T13:06:21Z</time>
      </trkpt>
      <trkpt lat="45.01949" lon="4.70881">
        <ele>485.40100097656</ele>
        <time>2009-09-19T13:06:25Z</time>
      </trkpt>
      <trkpt lat="45.01931" lon="4.70839">
        <ele>485.28298950195</ele>
        <time>2009-09-19T13:06:29Z</time>
      </trkpt>
      <trkpt lat="45.0183" lon="4.70681">
        <ele>484.96798706055</ele>
        <time>2009-09-19T13:06:47Z</time>
      </trkpt>
      <trkpt lat="45.01773" lon="4.70552">
        <ele>486.99301147461</ele>
        <time>2009-09-19T13:07:00Z</time>
      </trkpt>
      <trkpt lat="45.01747" lon="4.70484">
        <ele>488.85900878906</ele>
        <time>2009-09-19T13:07:07Z</time>
      </trkpt>
      <trkpt lat="45.01731" lon="4.70361">
        <ele>489.6969909668</ele>
        <time>2009-09-19T13:07:19Z</time>
      </trkpt>
      <trkpt lat="45.01723" lon="4.70332">
        <ele>490.95498657227</ele>
        <time>2009-09-19T13:07:22Z</time>
      </trkpt>
      <trkpt lat="45.01701" lon="4.70305">
        <ele>491.16900634766</ele>
        <time>2009-09-19T13:07:26Z</time>
      </trkpt>
      <trkpt lat="45.01643" lon="4.70259">
        <ele>493.90399169922</ele>
        <time>2009-09-19T13:07:36Z</time>
      </trkpt>
      <trkpt lat="45.01602" lon="4.70224">
        <ele>496.21798706055</ele>
        <time>2009-09-19T13:07:44Z</time>
      </trkpt>
      <trkpt lat="45.01534" lon="4.70127">
        <ele>499.02200317383</ele>
        <time>2009-09-19T13:08:01Z</time>
      </trkpt>
      <trkpt lat="45.01512" lon="4.70112">
        <ele>499.44799804688</ele>
        <time>2009-09-19T13:08:05Z</time>
      </trkpt>
      <trkpt lat="45.01462" lon="4.70099">
        <ele>500.41500854492</ele>
        <time>2009-09-19T13:08:13Z</time>
      </trkpt>
      <trkpt lat="45.01418" lon="4.70115">
        <ele>500.94400024414</ele>
        <time>2009-09-19T13:08:20Z</time>
      </trkpt>
      <trkpt lat="45.01379" lon="4.70151">
        <ele>501.66500854492</ele>
        <time>2009-09-19T13:08:27Z</time>
      </trkpt>
      <trkpt lat="45.01348" lon="4.70166">
        <ele>501.63299560547</ele>
        <time>2009-09-19T13:08:32Z</time>
      </trkpt>
      <trkpt lat="45.01284" lon="4.70176">
        <ele>502.90600585938</ele>
        <time>2009-09-19T13:08:42Z</time>
      </trkpt>
      <trkpt lat="45.01193" lon="4.70239">
        <ele>507.17401123047</ele>
        <time>2009-09-19T13:08:58Z</time>
      </trkpt>
      <trkpt lat="45.01165" lon="4.70247">
        <ele>508.39898681641</ele>
        <time>2009-09-19T13:09:03Z</time>
      </trkpt>
      <trkpt lat="45.01141" lon="4.70247">
        <ele>508.4580078125</ele>
        <time>2009-09-19T13:09:07Z</time>
      </trkpt>
      <trkpt lat="45.01126" lon="4.70213">
        <ele>509.67498779297</ele>
        <time>2009-09-19T13:09:13Z</time>
      </trkpt>
      <trkpt lat="45.01128" lon="4.702">
        <ele>509.95498657227</ele>
        <time>2009-09-19T13:09:15Z</time>
      </trkpt>
      <trkpt lat="45.01128" lon="4.70168">
        <ele>510.66198730469</ele>
        <time>2009-09-19T13:09:24Z</time>
      </trkpt>
      <trkpt lat="45.01129" lon="4.70164">
        <ele>510.63198852539</ele>
        <time>2009-09-19T13:09:28Z</time>
      </trkpt>
      <trkpt lat="45.01127" lon="4.70165">
        <ele>510.58700561523</ele>
        <time>2009-09-19T13:11:48Z</time>
      </trkpt>
      <trkpt lat="45.01127" lon="4.70165">
        <ele>510.66198730469</ele>
        <time>2009-09-19T13:11:49Z</time>
      </trkpt>
      <trkpt lat="45.01125" lon="4.70165">
        <ele>510.96798706055</ele>
        <time>2009-09-19T13:12:36Z</time>
      </trkpt>
      <trkpt lat="45.0112" lon="4.70168">
        <ele>510.91799926758</ele>
        <time>2009-09-19T13:12:41Z</time>
      </trkpt>
      <trkpt lat="45.01118" lon="4.70169">
        <ele>511.03500366211</ele>
        <time>2009-09-19T13:12:43Z</time>
      </trkpt>
      <trkpt lat="45.01104" lon="4.70173">
        <ele>510.36999511719</ele>
        <time>2009-09-19T13:12:57Z</time>
      </trkpt>
      <trkpt lat="45.01103" lon="4.70174">
        <ele>510.27398681641</ele>
        <time>2009-09-19T13:12:58Z</time>
      </trkpt>
      <trkpt lat="45.01079" lon="4.70153">
        <ele>509.31298828125</ele>
        <time>2009-09-19T13:13:09Z</time>
      </trkpt>
      <trkpt lat="45.01063" lon="4.70117">
        <ele>508.66799926758</ele>
        <time>2009-09-19T13:13:18Z</time>
      </trkpt>
      <trkpt lat="45.01054" lon="4.70114">
        <ele>507.78900146484</ele>
        <time>2009-09-19T13:13:20Z</time>
      </trkpt>
      <trkpt lat="45.01043" lon="4.70109">
        <ele>506.22601318359</ele>
        <time>2009-09-19T13:13:22Z</time>
      </trkpt>
      <trkpt lat="45.01016" lon="4.70096">
        <ele>503.97399902344</ele>
        <time>2009-09-19T13:13:26Z</time>
      </trkpt>
      <trkpt lat="45.0101" lon="4.70089">
        <ele>503.82299804688</ele>
        <time>2009-09-19T13:13:27Z</time>
      </trkpt>
      <trkpt lat="45.00925" lon="4.69965">
        <ele>501.79800415039</ele>
        <time>2009-09-19T13:13:44Z</time>
      </trkpt>
      <trkpt lat="45.00874" lon="4.69869">
        <ele>501.39599609375</ele>
        <time>2009-09-19T13:13:56Z</time>
      </trkpt>
      <trkpt lat="45.00823" lon="4.69765">
        <ele>498.37899780273</ele>
        <time>2009-09-19T13:14:08Z</time>
      </trkpt>
      <trkpt lat="45.00801" lon="4.69739">
        <ele>498.89898681641</ele>
        <time>2009-09-19T13:14:12Z</time>
      </trkpt>
      <trkpt lat="45.00747" lon="4.69733">
        <ele>500.30999755859</ele>
        <time>2009-09-19T13:14:21Z</time>
      </trkpt>
      <trkpt lat="45.00742" lon="4.69738">
        <ele>500.32699584961</ele>
        <time>2009-09-19T13:14:22Z</time>
      </trkpt>
      <trkpt lat="45.00698" lon="4.69756">
        <ele>499.67700195312</ele>
        <time>2009-09-19T13:14:29Z</time>
      </trkpt>
      <trkpt lat="45.00673" lon="4.6975">
        <ele>499.15100097656</ele>
        <time>2009-09-19T13:14:33Z</time>
      </trkpt>
      <trkpt lat="45.00634" lon="4.69735">
        <ele>498.2200012207</ele>
        <time>2009-09-19T13:14:39Z</time>
      </trkpt>
      <trkpt lat="45.00608" lon="4.69728">
        <ele>497.78799438477</ele>
        <time>2009-09-19T13:14:43Z</time>
      </trkpt>
      <trkpt lat="45.00581" lon="4.69729">
        <ele>497.40100097656</ele>
        <time>2009-09-19T13:14:47Z</time>
      </trkpt>
      <trkpt lat="45.00503" lon="4.69748">
        <ele>495.5950012207</ele>
        <time>2009-09-19T13:14:58Z</time>
      </trkpt>
      <trkpt lat="45.00408" lon="4.69759">
        <ele>493.57000732422</ele>
        <time>2009-09-19T13:15:11Z</time>
      </trkpt>
      <trkpt lat="45.0038" lon="4.69771">
        <ele>493.10299682617</ele>
        <time>2009-09-19T13:15:15Z</time>
      </trkpt>
      <trkpt lat="45.00327" lon="4.69744">
        <ele>491.6960144043</ele>
        <time>2009-09-19T13:15:23Z</time>
      </trkpt>
      <trkpt lat="45.00323" lon="4.69736">
        <ele>491.54400634766</ele>
        <time>2009-09-19T13:15:24Z</time>
      </trkpt>
      <trkpt lat="45.00315" lon="4.69719">
        <ele>491.06298828125</ele>
        <time>2009-09-19T13:15:26Z</time>
      </trkpt>
      <trkpt lat="45.00302" lon="4.69637">
        <ele>490.04400634766</ele>
        <time>2009-09-19T13:15:34Z</time>
      </trkpt>
      <trkpt lat="45.00291" lon="4.69625">
        <ele>490.17599487305</ele>
        <time>2009-09-19T13:15:36Z</time>
      </trkpt>
      <trkpt lat="45.00241" lon="4.69598">
        <ele>488.27700805664</ele>
        <time>2009-09-19T13:15:43Z</time>
      </trkpt>
      <trkpt lat="45.0021" lon="4.69541">
        <ele>487.35501098633</ele>
        <time>2009-09-19T13:15:50Z</time>
      </trkpt>
      <trkpt lat="45.00205" lon="4.69498">
        <ele>486.72698974609</ele>
        <time>2009-09-19T13:15:54Z</time>
      </trkpt>
      <trkpt lat="45.00172" lon="4.69441">
        <ele>485.85900878906</ele>
        <time>2009-09-19T13:16:01Z</time>
      </trkpt>
      <trkpt lat="45.00163" lon="4.69425">
        <ele>485.26901245117</ele>
        <time>2009-09-19T13:16:03Z</time>
      </trkpt>
      <trkpt lat="45.00139" lon="4.69399">
        <ele>484.88000488281</ele>
        <time>2009-09-19T13:16:07Z</time>
      </trkpt>
      <trkpt lat="45.00119" lon="4.69363">
        <ele>483.89599609375</ele>
        <time>2009-09-19T13:16:11Z</time>
      </trkpt>
      <trkpt lat="45.00077" lon="4.69356">
        <ele>482.70999145508</ele>
        <time>2009-09-19T13:16:17Z</time>
      </trkpt>
      <trkpt lat="45.00036" lon="4.69337">
        <ele>482.0950012207</ele>
        <time>2009-09-19T13:16:23Z</time>
      </trkpt>
      <trkpt lat="45.00019" lon="4.69316">
        <ele>481.54800415039</ele>
        <time>2009-09-19T13:16:26Z</time>
      </trkpt>
      <trkpt lat="44.9994" lon="4.69244">
        <ele>479.39401245117</ele>
        <time>2009-09-19T13:16:38Z</time>
      </trkpt>
      <trkpt lat="44.99884" lon="4.69177">
        <ele>476.80700683594</ele>
        <time>2009-09-19T13:16:47Z</time>
      </trkpt>
      <trkpt lat="44.99879" lon="4.69119">
        <ele>475.2799987793</ele>
        <time>2009-09-19T13:16:52Z</time>
      </trkpt>
      <trkpt lat="44.99895" lon="4.6905">
        <ele>473.82901000977</ele>
        <time>2009-09-19T13:16:58Z</time>
      </trkpt>
      <trkpt lat="44.99873" lon="4.69043">
        <ele>473.43701171875</ele>
        <time>2009-09-19T13:17:02Z</time>
      </trkpt>
      <trkpt lat="44.99866" lon="4.69051">
        <ele>473.05801391602</ele>
        <time>2009-09-19T13:17:03Z</time>
      </trkpt>
      <trkpt lat="44.99827" lon="4.69093">
        <ele>472.46701049805</ele>
        <time>2009-09-19T13:17:09Z</time>
      </trkpt>
      <trkpt lat="44.99807" lon="4.69119">
        <ele>472.38101196289</ele>
        <time>2009-09-19T13:17:12Z</time>
      </trkpt>
      <trkpt lat="44.99773" lon="4.69138">
        <ele>471.62899780273</ele>
        <time>2009-09-19T13:17:16Z</time>
      </trkpt>
      <trkpt lat="44.99753" lon="4.69198">
        <ele>470.70300292969</ele>
        <time>2009-09-19T13:17:22Z</time>
      </trkpt>
      <trkpt lat="44.99755" lon="4.69208">
        <ele>470.28500366211</ele>
        <time>2009-09-19T13:17:23Z</time>
      </trkpt>
      <trkpt lat="44.99769" lon="4.69256">
        <ele>469.18301391602</ele>
        <time>2009-09-19T13:17:27Z</time>
      </trkpt>
      <trkpt lat="44.99745" lon="4.69358">
        <ele>467.52200317383</ele>
        <time>2009-09-19T13:17:36Z</time>
      </trkpt>
      <trkpt lat="44.99742" lon="4.69395">
        <ele>466.81900024414</ele>
        <time>2009-09-19T13:17:39Z</time>
      </trkpt>
      <trkpt lat="44.9973" lon="4.69424">
        <ele>465.5719909668</ele>
        <time>2009-09-19T13:17:42Z</time>
      </trkpt>
      <trkpt lat="44.99697" lon="4.69412">
        <ele>465.64401245117</ele>
        <time>2009-09-19T13:17:46Z</time>
      </trkpt>
      <trkpt lat="44.99667" lon="4.6939">
        <ele>465.19299316406</ele>
        <time>2009-09-19T13:17:50Z</time>
      </trkpt>
      <trkpt lat="44.99617" lon="4.69304">
        <ele>463.90200805664</ele>
        <time>2009-09-19T13:17:59Z</time>
      </trkpt>
      <trkpt lat="44.99601" lon="4.69182">
        <ele>462.08898925781</ele>
        <time>2009-09-19T13:18:09Z</time>
      </trkpt>
      <trkpt lat="44.99593" lon="4.69106">
        <ele>461.35501098633</ele>
        <time>2009-09-19T13:18:15Z</time>
      </trkpt>
      <trkpt lat="44.99559" lon="4.6907">
        <ele>460.50201416016</ele>
        <time>2009-09-19T13:18:21Z</time>
      </trkpt>
      <trkpt lat="44.9952" lon="4.69112">
        <ele>458.72900390625</ele>
        <time>2009-09-19T13:18:27Z</time>
      </trkpt>
      <trkpt lat="44.99506" lon="4.691">
        <ele>458.04998779297</ele>
        <time>2009-09-19T13:18:29Z</time>
      </trkpt>
      <trkpt lat="44.99498" lon="4.69068">
        <ele>458.04598999023</ele>
        <time>2009-09-19T13:18:32Z</time>
      </trkpt>
      <trkpt lat="44.99466" lon="4.69021">
        <ele>456.44799804688</ele>
        <time>2009-09-19T13:18:39Z</time>
      </trkpt>
      <trkpt lat="44.99428" lon="4.69011">
        <ele>455.61099243164</ele>
        <time>2009-09-19T13:18:44Z</time>
      </trkpt>
      <trkpt lat="44.99416" lon="4.68999">
        <ele>454.77099609375</ele>
        <time>2009-09-19T13:18:46Z</time>
      </trkpt>
      <trkpt lat="44.99401" lon="4.68988">
        <ele>454.53100585938</ele>
        <time>2009-09-19T13:18:48Z</time>
      </trkpt>
      <trkpt lat="44.9934" lon="4.689">
        <ele>452.85900878906</ele>
        <time>2009-09-19T13:18:58Z</time>
      </trkpt>
      <trkpt lat="44.99322" lon="4.68871">
        <ele>452.09899902344</ele>
        <time>2009-09-19T13:19:01Z</time>
      </trkpt>
      <trkpt lat="44.99299" lon="4.68846">
        <ele>451.08700561523</ele>
        <time>2009-09-19T13:19:04Z</time>
      </trkpt>
      <trkpt lat="44.99281" lon="4.68816">
        <ele>450.78399658203</ele>
        <time>2009-09-19T13:19:07Z</time>
      </trkpt>
      <trkpt lat="44.99259" lon="4.68791">
        <ele>450.03900146484</ele>
        <time>2009-09-19T13:19:10Z</time>
      </trkpt>
      <trkpt lat="44.99231" lon="4.68741">
        <ele>449.10900878906</ele>
        <time>2009-09-19T13:19:15Z</time>
      </trkpt>
      <trkpt lat="44.99218" lon="4.68695">
        <ele>448.45098876953</ele>
        <time>2009-09-19T13:19:19Z</time>
      </trkpt>
      <trkpt lat="44.99215" lon="4.68658">
        <ele>448.20599365234</ele>
        <time>2009-09-19T13:19:22Z</time>
      </trkpt>
      <trkpt lat="44.99184" lon="4.68644">
        <ele>445.71301269531</ele>
        <time>2009-09-19T13:19:27Z</time>
      </trkpt>
      <trkpt lat="44.99175" lon="4.68666">
        <ele>445.47299194336</ele>
        <time>2009-09-19T13:19:29Z</time>
      </trkpt>
      <trkpt lat="44.99123" lon="4.68685">
        <ele>444.54800415039</ele>
        <time>2009-09-19T13:19:36Z</time>
      </trkpt>
      <trkpt lat="44.99063" lon="4.68636">
        <ele>442.89898681641</ele>
        <time>2009-09-19T13:19:45Z</time>
      </trkpt>
      <trkpt lat="44.99027" lon="4.68578">
        <ele>441.51400756836</ele>
        <time>2009-09-19T13:19:52Z</time>
      </trkpt>
      <trkpt lat="44.98996" lon="4.68543">
        <ele>440.93600463867</ele>
        <time>2009-09-19T13:19:57Z</time>
      </trkpt>
      <trkpt lat="44.98955" lon="4.68464">
        <ele>441.0710144043</ele>
        <time>2009-09-19T13:20:06Z</time>
      </trkpt>
      <trkpt lat="44.98948" lon="4.6843">
        <ele>442.61099243164</ele>
        <time>2009-09-19T13:20:10Z</time>
      </trkpt>
      <trkpt lat="44.98935" lon="4.68413">
        <ele>442.95700073242</ele>
        <time>2009-09-19T13:20:14Z</time>
      </trkpt>
      <trkpt lat="44.98883" lon="4.68428">
        <ele>444.91101074219</ele>
        <time>2009-09-19T13:20:25Z</time>
      </trkpt>
      <trkpt lat="44.98861" lon="4.68455">
        <ele>447.68301391602</ele>
        <time>2009-09-19T13:20:34Z</time>
      </trkpt>
      <trkpt lat="44.98862" lon="4.68491">
        <ele>449.9700012207</ele>
        <time>2009-09-19T13:20:41Z</time>
      </trkpt>
      <trkpt lat="44.98863" lon="4.68517">
        <ele>451.21499633789</ele>
        <time>2009-09-19T13:20:46Z</time>
      </trkpt>
      <trkpt lat="44.98844" lon="4.68545">
        <ele>452.83099365234</ele>
        <time>2009-09-19T13:20:54Z</time>
      </trkpt>
      <trkpt lat="44.98812" lon="4.68552">
        <ele>455.01901245117</ele>
        <time>2009-09-19T13:21:03Z</time>
      </trkpt>
      <trkpt lat="44.98759" lon="4.68584">
        <ele>459.28500366211</ele>
        <time>2009-09-19T13:21:19Z</time>
      </trkpt>
      <trkpt lat="44.98716" lon="4.68597">
        <ele>463.05200195312</ele>
        <time>2009-09-19T13:21:32Z</time>
      </trkpt>
      <trkpt lat="44.98708" lon="4.68603">
        <ele>463.69198608398</ele>
        <time>2009-09-19T13:21:35Z</time>
      </trkpt>
      <trkpt lat="44.98711" lon="4.68626">
        <ele>465.60101318359</ele>
        <time>2009-09-19T13:21:41Z</time>
      </trkpt>
      <trkpt lat="44.9874" lon="4.68668">
        <ele>467.9700012207</ele>
        <time>2009-09-19T13:21:52Z</time>
      </trkpt>
      <trkpt lat="44.98738" lon="4.68725">
        <ele>470.54699707031</ele>
        <time>2009-09-19T13:22:04Z</time>
      </trkpt>
      <trkpt lat="44.98713" lon="4.68724">
        <ele>473.41299438477</ele>
        <time>2009-09-19T13:22:13Z</time>
      </trkpt>
      <trkpt lat="44.98684" lon="4.68692">
        <ele>476.87600708008</ele>
        <time>2009-09-19T13:22:25Z</time>
      </trkpt>
      <trkpt lat="44.9865" lon="4.68668">
        <ele>480.47100830078</ele>
        <time>2009-09-19T13:22:38Z</time>
      </trkpt>
      <trkpt lat="44.98603" lon="4.68664">
        <ele>485.4289855957</ele>
        <time>2009-09-19T13:22:54Z</time>
      </trkpt>
      <trkpt lat="44.98601" lon="4.68662">
        <ele>485.67999267578</ele>
        <time>2009-09-19T13:22:55Z</time>
      </trkpt>
      <trkpt lat="44.98584" lon="4.68624">
        <ele>486.21701049805</ele>
        <time>2009-09-19T13:23:05Z</time>
      </trkpt>
      <trkpt lat="44.98596" lon="4.68576">
        <ele>486.7200012207</ele>
        <time>2009-09-19T13:23:13Z</time>
      </trkpt>
      <trkpt lat="44.98613" lon="4.68553">
        <ele>487.66000366211</ele>
        <time>2009-09-19T13:23:18Z</time>
      </trkpt>
      <trkpt lat="44.98644" lon="4.68504">
        <ele>489.38198852539</ele>
        <time>2009-09-19T13:23:28Z</time>
      </trkpt>
      <trkpt lat="44.98651" lon="4.68478">
        <ele>489.81698608398</ele>
        <time>2009-09-19T13:23:32Z</time>
      </trkpt>
      <trkpt lat="44.9865" lon="4.68442">
        <ele>490.21398925781</ele>
        <time>2009-09-19T13:23:37Z</time>
      </trkpt>
      <trkpt lat="44.98643" lon="4.68391">
        <ele>490.95901489258</ele>
        <time>2009-09-19T13:23:44Z</time>
      </trkpt>
      <trkpt lat="44.9864" lon="4.68378">
        <ele>491.48300170898</ele>
        <time>2009-09-19T13:23:46Z</time>
      </trkpt>
      <trkpt lat="44.98637" lon="4.68364">
        <ele>491.5950012207</ele>
        <time>2009-09-19T13:23:48Z</time>
      </trkpt>
      <trkpt lat="44.98629" lon="4.68336">
        <ele>492.29598999023</ele>
        <time>2009-09-19T13:23:52Z</time>
      </trkpt>
      <trkpt lat="44.98627" lon="4.68323">
        <ele>492.72900390625</ele>
        <time>2009-09-19T13:23:54Z</time>
      </trkpt>
      <trkpt lat="44.98603" lon="4.68282">
        <ele>493.3219909668</ele>
        <time>2009-09-19T13:24:01Z</time>
      </trkpt>
      <trkpt lat="44.9854" lon="4.68242">
        <ele>495.58999633789</ele>
        <time>2009-09-19T13:24:14Z</time>
      </trkpt>
      <trkpt lat="44.98499" lon="4.68221">
        <ele>497.39599609375</ele>
        <time>2009-09-19T13:24:22Z</time>
      </trkpt>
      <trkpt lat="44.98463" lon="4.68205">
        <ele>498.55200195312</ele>
        <time>2009-09-19T13:24:29Z</time>
      </trkpt>
      <trkpt lat="44.98446" lon="4.68203">
        <ele>499.25500488281</ele>
        <time>2009-09-19T13:24:32Z</time>
      </trkpt>
      <trkpt lat="44.98424" lon="4.68207">
        <ele>499.68099975586</ele>
        <time>2009-09-19T13:24:36Z</time>
      </trkpt>
      <trkpt lat="44.98384" lon="4.68227">
        <ele>500.76901245117</ele>
        <time>2009-09-19T13:24:44Z</time>
      </trkpt>
      <trkpt lat="44.9836" lon="4.68227">
        <ele>501.35400390625</ele>
        <time>2009-09-19T13:24:49Z</time>
      </trkpt>
      <trkpt lat="44.98317" lon="4.68203">
        <ele>502.57901000977</ele>
        <time>2009-09-19T13:24:59Z</time>
      </trkpt>
      <trkpt lat="44.98278" lon="4.68199">
        <ele>503.99899291992</ele>
        <time>2009-09-19T13:25:06Z</time>
      </trkpt>
      <trkpt lat="44.98258" lon="4.6821">
        <ele>504.31900024414</ele>
        <time>2009-09-19T13:25:10Z</time>
      </trkpt>
      <trkpt lat="44.98245" lon="4.68221">
        <ele>504.75500488281</ele>
        <time>2009-09-19T13:25:13Z</time>
      </trkpt>
      <trkpt lat="44.98204" lon="4.68251">
        <ele>506.33801269531</ele>
        <time>2009-09-19T13:25:22Z</time>
      </trkpt>
      <trkpt lat="44.98186" lon="4.68266">
        <ele>507.14599609375</ele>
        <time>2009-09-19T13:25:26Z</time>
      </trkpt>
      <trkpt lat="44.98165" lon="4.68281">
        <ele>507.66500854492</ele>
        <time>2009-09-19T13:25:30Z</time>
      </trkpt>
      <trkpt lat="44.98134" lon="4.68303">
        <ele>508.22500610352</ele>
        <time>2009-09-19T13:25:36Z</time>
      </trkpt>
      <trkpt lat="44.98108" lon="4.6832">
        <ele>509.52398681641</ele>
        <time>2009-09-19T13:25:41Z</time>
      </trkpt>
      <trkpt lat="44.98097" lon="4.68326">
        <ele>510.03399658203</ele>
        <time>2009-09-19T13:25:43Z</time>
      </trkpt>
      <trkpt lat="44.98077" lon="4.68336">
        <ele>511.24700927734</ele>
        <time>2009-09-19T13:25:47Z</time>
      </trkpt>
      <trkpt lat="44.9807" lon="4.6834">
        <ele>511.21499633789</ele>
        <time>2009-09-19T13:25:49Z</time>
      </trkpt>
      <trkpt lat="44.9798" lon="4.68364">
        <ele>514.46899414062</ele>
        <time>2009-09-19T13:26:04Z</time>
      </trkpt>
      <trkpt lat="44.97963" lon="4.68371">
        <ele>514.89501953125</ele>
        <time>2009-09-19T13:26:07Z</time>
      </trkpt>
      <trkpt lat="44.97943" lon="4.68374">
        <ele>515.90899658203</ele>
        <time>2009-09-19T13:26:11Z</time>
      </trkpt>
      <trkpt lat="44.97905" lon="4.68374">
        <ele>516.73498535156</ele>
        <time>2009-09-19T13:26:19Z</time>
      </trkpt>
      <trkpt lat="44.97891" lon="4.68357">
        <ele>517.18597412109</ele>
        <time>2009-09-19T13:26:23Z</time>
      </trkpt>
      <trkpt lat="44.97888" lon="4.68341">
        <ele>517.45001220703</ele>
        <time>2009-09-19T13:26:25Z</time>
      </trkpt>
      <trkpt lat="44.97923" lon="4.68318">
        <ele>518.92401123047</ele>
        <time>2009-09-19T13:26:32Z</time>
      </trkpt>
      <trkpt lat="44.97989" lon="4.68279">
        <ele>521.416015625</ele>
        <time>2009-09-19T13:26:46Z</time>
      </trkpt>
      <trkpt lat="44.98037" lon="4.68252">
        <ele>522.79998779297</ele>
        <time>2009-09-19T13:26:55Z</time>
      </trkpt>
      <trkpt lat="44.98048" lon="4.68241">
        <ele>523.29901123047</ele>
        <time>2009-09-19T13:26:57Z</time>
      </trkpt>
      <trkpt lat="44.98061" lon="4.68172">
        <ele>524.47302246094</ele>
        <time>2009-09-19T13:27:07Z</time>
      </trkpt>
      <trkpt lat="44.98065" lon="4.68146">
        <ele>525.28698730469</ele>
        <time>2009-09-19T13:27:12Z</time>
      </trkpt>
      <trkpt lat="44.98095" lon="4.68146">
        <ele>526.10400390625</ele>
        <time>2009-09-19T13:27:18Z</time>
      </trkpt>
      <trkpt lat="44.98112" lon="4.68141">
        <ele>526.44500732422</ele>
        <time>2009-09-19T13:27:21Z</time>
      </trkpt>
      <trkpt lat="44.9814" lon="4.68118">
        <ele>527.57897949219</ele>
        <time>2009-09-19T13:27:27Z</time>
      </trkpt>
      <trkpt lat="44.98158" lon="4.6809">
        <ele>528.17498779297</ele>
        <time>2009-09-19T13:27:32Z</time>
      </trkpt>
      <trkpt lat="44.98164" lon="4.68069">
        <ele>528.77600097656</ele>
        <time>2009-09-19T13:27:35Z</time>
      </trkpt>
      <trkpt lat="44.98166" lon="4.68039">
        <ele>529.32598876953</ele>
        <time>2009-09-19T13:27:39Z</time>
      </trkpt>
      <trkpt lat="44.98162" lon="4.67995">
        <ele>530.51702880859</ele>
        <time>2009-09-19T13:27:45Z</time>
      </trkpt>
      <trkpt lat="44.98163" lon="4.67966">
        <ele>530.64697265625</ele>
        <time>2009-09-19T13:27:49Z</time>
      </trkpt>
      <trkpt lat="44.98169" lon="4.67944">
        <ele>531.54498291016</ele>
        <time>2009-09-19T13:27:52Z</time>
      </trkpt>
      <trkpt lat="44.98167" lon="4.67828">
        <ele>534.15698242188</ele>
        <time>2009-09-19T13:28:07Z</time>
      </trkpt>
      <trkpt lat="44.98161" lon="4.67791">
        <ele>534.76800537109</ele>
        <time>2009-09-19T13:28:12Z</time>
      </trkpt>
      <trkpt lat="44.98158" lon="4.67776">
        <ele>535.20697021484</ele>
        <time>2009-09-19T13:28:14Z</time>
      </trkpt>
      <trkpt lat="44.98127" lon="4.67732">
        <ele>536.44396972656</ele>
        <time>2009-09-19T13:28:22Z</time>
      </trkpt>
      <trkpt lat="44.98041" lon="4.67668">
        <ele>539.34301757812</ele>
        <time>2009-09-19T13:28:40Z</time>
      </trkpt>
      <trkpt lat="44.97977" lon="4.67611">
        <ele>541.66998291016</ele>
        <time>2009-09-19T13:28:54Z</time>
      </trkpt>
      <trkpt lat="44.97911" lon="4.6755">
        <ele>544.09899902344</ele>
        <time>2009-09-19T13:29:08Z</time>
      </trkpt>
      <trkpt lat="44.97892" lon="4.67506">
        <ele>545.42199707031</ele>
        <time>2009-09-19T13:29:15Z</time>
      </trkpt>
      <trkpt lat="44.97835" lon="4.67443">
        <ele>547.59698486328</ele>
        <time>2009-09-19T13:29:28Z</time>
      </trkpt>
      <trkpt lat="44.9783" lon="4.67438">
        <ele>547.84002685547</ele>
        <time>2009-09-19T13:29:29Z</time>
      </trkpt>
      <trkpt lat="44.97754" lon="4.67384">
        <ele>550.50201416016</ele>
        <time>2009-09-19T13:29:45Z</time>
      </trkpt>
      <trkpt lat="44.97707" lon="4.67374">
        <ele>551.83197021484</ele>
        <time>2009-09-19T13:29:54Z</time>
      </trkpt>
      <trkpt lat="44.97687" lon="4.67322">
        <ele>553.71099853516</ele>
        <time>2009-09-19T13:30:02Z</time>
      </trkpt>
      <trkpt lat="44.97689" lon="4.67281">
        <ele>554.61401367188</ele>
        <time>2009-09-19T13:30:07Z</time>
      </trkpt>
      <trkpt lat="44.97683" lon="4.6725">
        <ele>554.96398925781</ele>
        <time>2009-09-19T13:30:11Z</time>
      </trkpt>
      <trkpt lat="44.97631" lon="4.67123">
        <ele>557.43103027344</ele>
        <time>2009-09-19T13:30:29Z</time>
      </trkpt>
      <trkpt lat="44.97586" lon="4.6704">
        <ele>559.43200683594</ele>
        <time>2009-09-19T13:30:42Z</time>
      </trkpt>
      <trkpt lat="44.97561" lon="4.66939">
        <ele>562.21002197266</ele>
        <time>2009-09-19T13:30:55Z</time>
      </trkpt>
      <trkpt lat="44.97559" lon="4.66914">
        <ele>562.89001464844</ele>
        <time>2009-09-19T13:30:58Z</time>
      </trkpt>
      <trkpt lat="44.97532" lon="4.66876">
        <ele>563.56402587891</ele>
        <time>2009-09-19T13:31:04Z</time>
      </trkpt>
      <trkpt lat="44.97462" lon="4.66818">
        <ele>565.96899414062</ele>
        <time>2009-09-19T13:31:17Z</time>
      </trkpt>
      <trkpt lat="44.97456" lon="4.66755">
        <ele>567.82800292969</ele>
        <time>2009-09-19T13:31:26Z</time>
      </trkpt>
      <trkpt lat="44.97482" lon="4.66747">
        <ele>568.22100830078</ele>
        <time>2009-09-19T13:31:30Z</time>
      </trkpt>
      <trkpt lat="44.975" lon="4.66744">
        <ele>568.77001953125</ele>
        <time>2009-09-19T13:31:33Z</time>
      </trkpt>
      <trkpt lat="44.97523" lon="4.6673">
        <ele>569.43402099609</ele>
        <time>2009-09-19T13:31:37Z</time>
      </trkpt>
      <trkpt lat="44.9755" lon="4.66694">
        <ele>570.23797607422</ele>
        <time>2009-09-19T13:31:43Z</time>
      </trkpt>
      <trkpt lat="44.9755" lon="4.66638">
        <ele>571.58599853516</ele>
        <time>2009-09-19T13:31:50Z</time>
      </trkpt>
      <trkpt lat="44.97536" lon="4.66612">
        <ele>573.05603027344</ele>
        <time>2009-09-19T13:31:54Z</time>
      </trkpt>
      <trkpt lat="44.97533" lon="4.66557">
        <ele>573.82202148438</ele>
        <time>2009-09-19T13:32:01Z</time>
      </trkpt>
      <trkpt lat="44.97544" lon="4.66527">
        <ele>574.62097167969</ele>
        <time>2009-09-19T13:32:05Z</time>
      </trkpt>
      <trkpt lat="44.97549" lon="4.66512">
        <ele>574.98101806641</ele>
        <time>2009-09-19T13:32:07Z</time>
      </trkpt>
      <trkpt lat="44.97557" lon="4.66474">
        <ele>575.59899902344</ele>
        <time>2009-09-19T13:32:12Z</time>
      </trkpt>
      <trkpt lat="44.97572" lon="4.66442">
        <ele>576.8330078125</ele>
        <time>2009-09-19T13:32:17Z</time>
      </trkpt>
      <trkpt lat="44.97573" lon="4.66398">
        <ele>577.22998046875</ele>
        <time>2009-09-19T13:32:23Z</time>
      </trkpt>
      <trkpt lat="44.97511" lon="4.66302">
        <ele>579.6669921875</ele>
        <time>2009-09-19T13:32:38Z</time>
      </trkpt>
      <trkpt lat="44.97414" lon="4.66239">
        <ele>582.73999023438</ele>
        <time>2009-09-19T13:32:55Z</time>
      </trkpt>
      <trkpt lat="44.97366" lon="4.66213">
        <ele>583.68499755859</ele>
        <time>2009-09-19T13:33:03Z</time>
      </trkpt>
      <trkpt lat="44.97347" lon="4.66145">
        <ele>585.35998535156</ele>
        <time>2009-09-19T13:33:11Z</time>
      </trkpt>
      <trkpt lat="44.97322" lon="4.66115">
        <ele>586.42297363281</ele>
        <time>2009-09-19T13:33:16Z</time>
      </trkpt>
      <trkpt lat="44.97309" lon="4.66109">
        <ele>586.74700927734</ele>
        <time>2009-09-19T13:33:18Z</time>
      </trkpt>
      <trkpt lat="44.97292" lon="4.6608">
        <ele>587.58099365234</ele>
        <time>2009-09-19T13:33:22Z</time>
      </trkpt>
      <trkpt lat="44.97289" lon="4.66031">
        <ele>588.53198242188</ele>
        <time>2009-09-19T13:33:27Z</time>
      </trkpt>
      <trkpt lat="44.97287" lon="4.66013">
        <ele>588.94799804688</ele>
        <time>2009-09-19T13:33:29Z</time>
      </trkpt>
      <trkpt lat="44.97243" lon="4.65954">
        <ele>590.5009765625</ele>
        <time>2009-09-19T13:33:38Z</time>
      </trkpt>
      <trkpt lat="44.97237" lon="4.65952">
        <ele>590.75500488281</ele>
        <time>2009-09-19T13:33:39Z</time>
      </trkpt>
      <trkpt lat="44.97223" lon="4.65948">
        <ele>591.16802978516</ele>
        <time>2009-09-19T13:33:41Z</time>
      </trkpt>
      <trkpt lat="44.97199" lon="4.65918">
        <ele>592.31896972656</ele>
        <time>2009-09-19T13:33:46Z</time>
      </trkpt>
      <trkpt lat="44.97145" lon="4.65865">
        <ele>594.34899902344</ele>
        <time>2009-09-19T13:33:56Z</time>
      </trkpt>
      <trkpt lat="44.97099" lon="4.65861">
        <ele>596.80499267578</ele>
        <time>2009-09-19T13:34:03Z</time>
      </trkpt>
      <trkpt lat="44.97073" lon="4.65858">
        <ele>597.29400634766</ele>
        <time>2009-09-19T13:34:07Z</time>
      </trkpt>
      <trkpt lat="44.97043" lon="4.65826">
        <ele>597.71099853516</ele>
        <time>2009-09-19T13:34:13Z</time>
      </trkpt>
      <trkpt lat="44.97035" lon="4.6581">
        <ele>597.61102294922</ele>
        <time>2009-09-19T13:34:15Z</time>
      </trkpt>
      <trkpt lat="44.97008" lon="4.65777">
        <ele>597.91101074219</ele>
        <time>2009-09-19T13:34:20Z</time>
      </trkpt>
      <trkpt lat="44.96997" lon="4.65733">
        <ele>597.53100585938</ele>
        <time>2009-09-19T13:34:25Z</time>
      </trkpt>
      <trkpt lat="44.9701" lon="4.65723">
        <ele>598.49401855469</ele>
        <time>2009-09-19T13:34:27Z</time>
      </trkpt>
      <trkpt lat="44.97039" lon="4.65721">
        <ele>599.25299072266</ele>
        <time>2009-09-19T13:34:31Z</time>
      </trkpt>
      <trkpt lat="44.97095" lon="4.65721">
        <ele>601.13702392578</ele>
        <time>2009-09-19T13:34:39Z</time>
      </trkpt>
      <trkpt lat="44.97132" lon="4.65673">
        <ele>602.39898681641</ele>
        <time>2009-09-19T13:34:47Z</time>
      </trkpt>
      <trkpt lat="44.97126" lon="4.65647">
        <ele>602.66101074219</ele>
        <time>2009-09-19T13:34:50Z</time>
      </trkpt>
      <trkpt lat="44.97107" lon="4.65603">
        <ele>604.08099365234</ele>
        <time>2009-09-19T13:34:55Z</time>
      </trkpt>
      <trkpt lat="44.97094" lon="4.65565">
        <ele>604.78900146484</ele>
        <time>2009-09-19T13:34:59Z</time>
      </trkpt>
      <trkpt lat="44.97088" lon="4.65537">
        <ele>605.10302734375</ele>
        <time>2009-09-19T13:35:02Z</time>
      </trkpt>
      <trkpt lat="44.97084" lon="4.65519">
        <ele>605.45697021484</ele>
        <time>2009-09-19T13:35:04Z</time>
      </trkpt>
      <trkpt lat="44.97058" lon="4.6547">
        <ele>606.35900878906</ele>
        <time>2009-09-19T13:35:10Z</time>
      </trkpt>
      <trkpt lat="44.97035" lon="4.65411">
        <ele>608.22998046875</ele>
        <time>2009-09-19T13:35:16Z</time>
      </trkpt>
      <trkpt lat="44.9702" lon="4.65381">
        <ele>608.78698730469</ele>
        <time>2009-09-19T13:35:19Z</time>
      </trkpt>
      <trkpt lat="44.97025" lon="4.65323">
        <ele>610.35101318359</ele>
        <time>2009-09-19T13:35:25Z</time>
      </trkpt>
      <trkpt lat="44.97014" lon="4.65265">
        <ele>611.74298095703</ele>
        <time>2009-09-19T13:35:31Z</time>
      </trkpt>
      <trkpt lat="44.97002" lon="4.65227">
        <ele>612.55102539062</ele>
        <time>2009-09-19T13:35:35Z</time>
      </trkpt>
      <trkpt lat="44.97024" lon="4.65171">
        <ele>614.25</ele>
        <time>2009-09-19T13:35:42Z</time>
      </trkpt>
      <trkpt lat="44.97023" lon="4.65144">
        <ele>614.82501220703</ele>
        <time>2009-09-19T13:35:45Z</time>
      </trkpt>
      <trkpt lat="44.97021" lon="4.65128">
        <ele>615.22601318359</ele>
        <time>2009-09-19T13:35:47Z</time>
      </trkpt>
      <trkpt lat="44.9702" lon="4.65103">
        <ele>615.91998291016</ele>
        <time>2009-09-19T13:35:50Z</time>
      </trkpt>
      <trkpt lat="44.97051" lon="4.65092">
        <ele>616.92602539062</ele>
        <time>2009-09-19T13:35:56Z</time>
      </trkpt>
      <trkpt lat="44.97057" lon="4.65096">
        <ele>617.17797851562</ele>
        <time>2009-09-19T13:35:57Z</time>
      </trkpt>
      <trkpt lat="44.97135" lon="4.65169">
        <ele>619.60400390625</ele>
        <time>2009-09-19T13:36:11Z</time>
      </trkpt>
      <trkpt lat="44.97166" lon="4.65157">
        <ele>620.77099609375</ele>
        <time>2009-09-19T13:36:17Z</time>
      </trkpt>
      <trkpt lat="44.97158" lon="4.65117">
        <ele>622.16400146484</ele>
        <time>2009-09-19T13:36:22Z</time>
      </trkpt>
      <trkpt lat="44.97141" lon="4.65073">
        <ele>623.07800292969</ele>
        <time>2009-09-19T13:36:28Z</time>
      </trkpt>
      <trkpt lat="44.9711" lon="4.65018">
        <ele>624.68103027344</ele>
        <time>2009-09-19T13:36:36Z</time>
      </trkpt>
      <trkpt lat="44.97063" lon="4.64944">
        <ele>627.26599121094</ele>
        <time>2009-09-19T13:36:47Z</time>
      </trkpt>
      <trkpt lat="44.97053" lon="4.64881">
        <ele>628.81799316406</ele>
        <time>2009-09-19T13:36:55Z</time>
      </trkpt>
      <trkpt lat="44.97042" lon="4.6486">
        <ele>629.41198730469</ele>
        <time>2009-09-19T13:36:59Z</time>
      </trkpt>
      <trkpt lat="44.97017" lon="4.64825">
        <ele>630.791015625</ele>
        <time>2009-09-19T13:37:12Z</time>
      </trkpt>
      <trkpt lat="44.97001" lon="4.64801">
        <ele>630.06097412109</ele>
        <time>2009-09-19T13:37:22Z</time>
      </trkpt>
      <trkpt lat="44.96984" lon="4.64777">
        <ele>629.35699462891</ele>
        <time>2009-09-19T13:37:33Z</time>
      </trkpt>
      <trkpt lat="44.96975" lon="4.64759">
        <ele>628.50201416016</ele>
        <time>2009-09-19T13:37:39Z</time>
      </trkpt>
      <trkpt lat="44.96968" lon="4.64745">
        <ele>627.53900146484</ele>
        <time>2009-09-19T13:37:44Z</time>
      </trkpt>
      <trkpt lat="44.96962" lon="4.64721">
        <ele>626.39697265625</ele>
        <time>2009-09-19T13:37:51Z</time>
      </trkpt>
      <trkpt lat="44.96955" lon="4.64692">
        <ele>625.26599121094</ele>
        <time>2009-09-19T13:38:01Z</time>
      </trkpt>
      <trkpt lat="44.9695" lon="4.64672">
        <ele>624.10302734375</ele>
        <time>2009-09-19T13:38:05Z</time>
      </trkpt>
      <trkpt lat="44.96943" lon="4.64636">
        <ele>622.99200439453</ele>
        <time>2009-09-19T13:38:10Z</time>
      </trkpt>
      <trkpt lat="44.96939" lon="4.6461">
        <ele>621.76800537109</ele>
        <time>2009-09-19T13:38:13Z</time>
      </trkpt>
      <trkpt lat="44.96938" lon="4.64539">
        <ele>618.50598144531</ele>
        <time>2009-09-19T13:38:20Z</time>
      </trkpt>
      <trkpt lat="44.96941" lon="4.64507">
        <ele>617.48602294922</ele>
        <time>2009-09-19T13:38:23Z</time>
      </trkpt>
      <trkpt lat="44.96934" lon="4.64465">
        <ele>615.87902832031</ele>
        <time>2009-09-19T13:38:27Z</time>
      </trkpt>
      <trkpt lat="44.96903" lon="4.6439">
        <ele>613.06500244141</ele>
        <time>2009-09-19T13:38:34Z</time>
      </trkpt>
      <trkpt lat="44.96893" lon="4.64306">
        <ele>608.95599365234</ele>
        <time>2009-09-19T13:38:41Z</time>
      </trkpt>
      <trkpt lat="44.96886" lon="4.64299">
        <ele>609.08197021484</ele>
        <time>2009-09-19T13:38:42Z</time>
      </trkpt>
      <trkpt lat="44.96855" lon="4.64248">
        <ele>605.38098144531</ele>
        <time>2009-09-19T13:38:47Z</time>
      </trkpt>
      <trkpt lat="44.96843" lon="4.64192">
        <ele>603.52502441406</ele>
        <time>2009-09-19T13:38:51Z</time>
      </trkpt>
      <trkpt lat="44.96822" lon="4.64143">
        <ele>601.62799072266</ele>
        <time>2009-09-19T13:38:55Z</time>
      </trkpt>
      <trkpt lat="44.96833" lon="4.64099">
        <ele>599.47698974609</ele>
        <time>2009-09-19T13:39:00Z</time>
      </trkpt>
      <trkpt lat="44.96844" lon="4.64101">
        <ele>599.40002441406</ele>
        <time>2009-09-19T13:39:01Z</time>
      </trkpt>
      <trkpt lat="44.96934" lon="4.64107">
        <ele>594.5830078125</ele>
        <time>2009-09-19T13:39:10Z</time>
      </trkpt>
      <trkpt lat="44.96955" lon="4.64109">
        <ele>594.27899169922</ele>
        <time>2009-09-19T13:39:12Z</time>
      </trkpt>
      <trkpt lat="44.96967" lon="4.64093">
        <ele>593.23901367188</ele>
        <time>2009-09-19T13:39:14Z</time>
      </trkpt>
      <trkpt lat="44.96944" lon="4.6406">
        <ele>591.10498046875</ele>
        <time>2009-09-19T13:39:18Z</time>
      </trkpt>
      <trkpt lat="44.96914" lon="4.64048">
        <ele>589.49597167969</ele>
        <time>2009-09-19T13:39:21Z</time>
      </trkpt>
      <trkpt lat="44.96886" lon="4.64032">
        <ele>587.93597412109</ele>
        <time>2009-09-19T13:39:24Z</time>
      </trkpt>
      <trkpt lat="44.96849" lon="4.64009">
        <ele>586.03198242188</ele>
        <time>2009-09-19T13:39:28Z</time>
      </trkpt>
      <trkpt lat="44.96814" lon="4.63987">
        <ele>584.80200195312</ele>
        <time>2009-09-19T13:39:32Z</time>
      </trkpt>
      <trkpt lat="44.96753" lon="4.63974">
        <ele>581.34600830078</ele>
        <time>2009-09-19T13:39:38Z</time>
      </trkpt>
      <trkpt lat="44.96711" lon="4.63928">
        <ele>578.28002929688</ele>
        <time>2009-09-19T13:39:43Z</time>
      </trkpt>
      <trkpt lat="44.96691" lon="4.63873">
        <ele>575.57299804688</ele>
        <time>2009-09-19T13:39:47Z</time>
      </trkpt>
      <trkpt lat="44.96677" lon="4.63849">
        <ele>574.88598632812</ele>
        <time>2009-09-19T13:39:49Z</time>
      </trkpt>
      <trkpt lat="44.96658" lon="4.63777">
        <ele>571.416015625</ele>
        <time>2009-09-19T13:39:54Z</time>
      </trkpt>
      <trkpt lat="44.9665" lon="4.63749">
        <ele>570.53601074219</ele>
        <time>2009-09-19T13:39:56Z</time>
      </trkpt>
      <trkpt lat="44.9664" lon="4.63706">
        <ele>568.69598388672</ele>
        <time>2009-09-19T13:39:59Z</time>
      </trkpt>
      <trkpt lat="44.96616" lon="4.63656">
        <ele>565.71697998047</ele>
        <time>2009-09-19T13:40:03Z</time>
      </trkpt>
      <trkpt lat="44.96596" lon="4.63638">
        <ele>563.83801269531</ele>
        <time>2009-09-19T13:40:05Z</time>
      </trkpt>
      <trkpt lat="44.96574" lon="4.636">
        <ele>562.52301025391</ele>
        <time>2009-09-19T13:40:08Z</time>
      </trkpt>
      <trkpt lat="44.96552" lon="4.63562">
        <ele>560.80999755859</ele>
        <time>2009-09-19T13:40:11Z</time>
      </trkpt>
      <trkpt lat="44.96492" lon="4.63505">
        <ele>556.86901855469</ele>
        <time>2009-09-19T13:40:17Z</time>
      </trkpt>
      <trkpt lat="44.96473" lon="4.63483">
        <ele>554.77001953125</ele>
        <time>2009-09-19T13:40:19Z</time>
      </trkpt>
      <trkpt lat="44.96452" lon="4.63465">
        <ele>553.63598632812</ele>
        <time>2009-09-19T13:40:21Z</time>
      </trkpt>
      <trkpt lat="44.96404" lon="4.63437">
        <ele>550.89599609375</ele>
        <time>2009-09-19T13:40:25Z</time>
      </trkpt>
      <trkpt lat="44.96368" lon="4.63396">
        <ele>548.47900390625</ele>
        <time>2009-09-19T13:40:29Z</time>
      </trkpt>
      <trkpt lat="44.96287" lon="4.63351">
        <ele>549.38299560547</ele>
        <time>2009-09-19T13:40:37Z</time>
      </trkpt>
      <trkpt lat="44.96266" lon="4.633">
        <ele>553.08502197266</ele>
        <time>2009-09-19T13:40:44Z</time>
      </trkpt>
      <trkpt lat="44.96267" lon="4.63293">
        <ele>553.2080078125</ele>
        <time>2009-09-19T13:40:45Z</time>
      </trkpt>
      <trkpt lat="44.9629" lon="4.63238">
        <ele>556.00598144531</ele>
        <time>2009-09-19T13:40:55Z</time>
      </trkpt>
      <trkpt lat="44.96294" lon="4.63232">
        <ele>556.12902832031</ele>
        <time>2009-09-19T13:40:59Z</time>
      </trkpt>
      <trkpt lat="44.96285" lon="4.63239">
        <ele>556.06597900391</ele>
        <time>2009-09-19T13:41:24Z</time>
      </trkpt>
      <trkpt lat="44.9627" lon="4.6329">
        <ele>557.21398925781</ele>
        <time>2009-09-19T13:41:36Z</time>
      </trkpt>
      <trkpt lat="44.96265" lon="4.63307">
        <ele>557.89501953125</ele>
        <time>2009-09-19T13:41:39Z</time>
      </trkpt>
      <trkpt lat="44.96259" lon="4.63333">
        <ele>558.45001220703</ele>
        <time>2009-09-19T13:41:43Z</time>
      </trkpt>
      <trkpt lat="44.96244" lon="4.63358">
        <ele>559.24597167969</ele>
        <time>2009-09-19T13:41:48Z</time>
      </trkpt>
      <trkpt lat="44.96231" lon="4.63378">
        <ele>559.76702880859</ele>
        <time>2009-09-19T13:41:52Z</time>
      </trkpt>
      <trkpt lat="44.96227" lon="4.63389">
        <ele>559.73400878906</ele>
        <time>2009-09-19T13:41:54Z</time>
      </trkpt>
      <trkpt lat="44.96229" lon="4.63415">
        <ele>560.40802001953</ele>
        <time>2009-09-19T13:41:58Z</time>
      </trkpt>
      <trkpt lat="44.96237" lon="4.63441">
        <ele>561.19299316406</ele>
        <time>2009-09-19T13:42:02Z</time>
      </trkpt>
      <trkpt lat="44.96239" lon="4.63477">
        <ele>562.27899169922</ele>
        <time>2009-09-19T13:42:07Z</time>
      </trkpt>
      <trkpt lat="44.96251" lon="4.63549">
        <ele>564.81701660156</ele>
        <time>2009-09-19T13:42:18Z</time>
      </trkpt>
      <trkpt lat="44.96255" lon="4.63582">
        <ele>565.81500244141</ele>
        <time>2009-09-19T13:42:23Z</time>
      </trkpt>
      <trkpt lat="44.96251" lon="4.63616">
        <ele>566.58697509766</ele>
        <time>2009-09-19T13:42:28Z</time>
      </trkpt>
      <trkpt lat="44.96243" lon="4.63647">
        <ele>567.48901367188</ele>
        <time>2009-09-19T13:42:33Z</time>
      </trkpt>
      <trkpt lat="44.9623" lon="4.63677">
        <ele>568.14398193359</ele>
        <time>2009-09-19T13:42:38Z</time>
      </trkpt>
      <trkpt lat="44.9622" lon="4.6371">
        <ele>568.75</ele>
        <time>2009-09-19T13:42:43Z</time>
      </trkpt>
      <trkpt lat="44.96209" lon="4.63844">
        <ele>572.29400634766</ele>
        <time>2009-09-19T13:43:01Z</time>
      </trkpt>
      <trkpt lat="44.96204" lon="4.63895">
        <ele>573.22198486328</ele>
        <time>2009-09-19T13:43:08Z</time>
      </trkpt>
      <trkpt lat="44.96188" lon="4.6394">
        <ele>575.29998779297</ele>
        <time>2009-09-19T13:43:15Z</time>
      </trkpt>
      <trkpt lat="44.96117" lon="4.64028">
        <ele>578.17797851562</ele>
        <time>2009-09-19T13:43:33Z</time>
      </trkpt>
      <trkpt lat="44.96113" lon="4.64033">
        <ele>578.23199462891</ele>
        <time>2009-09-19T13:43:34Z</time>
      </trkpt>
      <trkpt lat="44.961" lon="4.64047">
        <ele>578.69897460938</ele>
        <time>2009-09-19T13:43:37Z</time>
      </trkpt>
      <trkpt lat="44.96074" lon="4.64054">
        <ele>579.9990234375</ele>
        <time>2009-09-19T13:43:42Z</time>
      </trkpt>
      <trkpt lat="44.96064" lon="4.64053">
        <ele>580.31701660156</ele>
        <time>2009-09-19T13:43:44Z</time>
      </trkpt>
      <trkpt lat="44.9604" lon="4.64091">
        <ele>581.53601074219</ele>
        <time>2009-09-19T13:43:52Z</time>
      </trkpt>
      <trkpt lat="44.96065" lon="4.64115">
        <ele>582.47497558594</ele>
        <time>2009-09-19T13:43:58Z</time>
      </trkpt>
      <trkpt lat="44.96092" lon="4.64124">
        <ele>583.16101074219</ele>
        <time>2009-09-19T13:44:03Z</time>
      </trkpt>
      <trkpt lat="44.96111" lon="4.64153">
        <ele>583.67297363281</ele>
        <time>2009-09-19T13:44:08Z</time>
      </trkpt>
      <trkpt lat="44.96167" lon="4.64265">
        <ele>586.91497802734</ele>
        <time>2009-09-19T13:44:26Z</time>
      </trkpt>
      <trkpt lat="44.96223" lon="4.643">
        <ele>588.84698486328</ele>
        <time>2009-09-19T13:44:37Z</time>
      </trkpt>
      <trkpt lat="44.96259" lon="4.64321">
        <ele>590.35699462891</ele>
        <time>2009-09-19T13:44:44Z</time>
      </trkpt>
      <trkpt lat="44.96276" lon="4.64327">
        <ele>590.55902099609</ele>
        <time>2009-09-19T13:44:47Z</time>
      </trkpt>
      <trkpt lat="44.9635" lon="4.64352">
        <ele>592.80200195312</ele>
        <time>2009-09-19T13:45:01Z</time>
      </trkpt>
      <trkpt lat="44.9636" lon="4.64362">
        <ele>593.11499023438</ele>
        <time>2009-09-19T13:45:03Z</time>
      </trkpt>
      <trkpt lat="44.96374" lon="4.64435">
        <ele>595.00500488281</ele>
        <time>2009-09-19T13:45:13Z</time>
      </trkpt>
      <trkpt lat="44.96348" lon="4.64474">
        <ele>596.51300048828</ele>
        <time>2009-09-19T13:45:20Z</time>
      </trkpt>
      <trkpt lat="44.96249" lon="4.64536">
        <ele>600.41900634766</ele>
        <time>2009-09-19T13:45:39Z</time>
      </trkpt>
      <trkpt lat="44.9623" lon="4.64539">
        <ele>600.7080078125</ele>
        <time>2009-09-19T13:45:42Z</time>
      </trkpt>
      <trkpt lat="44.96193" lon="4.6456">
        <ele>601.54400634766</ele>
        <time>2009-09-19T13:45:48Z</time>
      </trkpt>
      <trkpt lat="44.96172" lon="4.64594">
        <ele>602.36499023438</ele>
        <time>2009-09-19T13:45:53Z</time>
      </trkpt>
      <trkpt lat="44.96121" lon="4.64712">
        <ele>604.29302978516</ele>
        <time>2009-09-19T13:46:08Z</time>
      </trkpt>
      <trkpt lat="44.96111" lon="4.64766">
        <ele>605.26397705078</ele>
        <time>2009-09-19T13:46:14Z</time>
      </trkpt>
      <trkpt lat="44.96121" lon="4.64825">
        <ele>606.51300048828</ele>
        <time>2009-09-19T13:46:21Z</time>
      </trkpt>
      <trkpt lat="44.96138" lon="4.64864">
        <ele>606.98400878906</ele>
        <time>2009-09-19T13:46:26Z</time>
      </trkpt>
      <trkpt lat="44.96133" lon="4.6495">
        <ele>607.97802734375</ele>
        <time>2009-09-19T13:46:36Z</time>
      </trkpt>
      <trkpt lat="44.96113" lon="4.6497">
        <ele>608.71697998047</ele>
        <time>2009-09-19T13:46:40Z</time>
      </trkpt>
      <trkpt lat="44.96064" lon="4.64985">
        <ele>609.67700195312</ele>
        <time>2009-09-19T13:46:48Z</time>
      </trkpt>
      <trkpt lat="44.95998" lon="4.64952">
        <ele>611.47497558594</ele>
        <time>2009-09-19T13:46:59Z</time>
      </trkpt>
      <trkpt lat="44.95953" lon="4.64895">
        <ele>613.00799560547</ele>
        <time>2009-09-19T13:47:08Z</time>
      </trkpt>
      <trkpt lat="44.95921" lon="4.64861">
        <ele>613.86602783203</ele>
        <time>2009-09-19T13:47:14Z</time>
      </trkpt>
      <trkpt lat="44.95868" lon="4.64834">
        <ele>614.791015625</ele>
        <time>2009-09-19T13:47:22Z</time>
      </trkpt>
      <trkpt lat="44.95834" lon="4.6484">
        <ele>615.30297851562</ele>
        <time>2009-09-19T13:47:27Z</time>
      </trkpt>
      <trkpt lat="44.95821" lon="4.64848">
        <ele>615.32501220703</ele>
        <time>2009-09-19T13:47:29Z</time>
      </trkpt>
      <trkpt lat="44.95803" lon="4.64877">
        <ele>615.64398193359</ele>
        <time>2009-09-19T13:47:33Z</time>
      </trkpt>
      <trkpt lat="44.95794" lon="4.64903">
        <ele>616.12701416016</ele>
        <time>2009-09-19T13:47:36Z</time>
      </trkpt>
      <trkpt lat="44.9579" lon="4.64955">
        <ele>617.4169921875</ele>
        <time>2009-09-19T13:47:41Z</time>
      </trkpt>
      <trkpt lat="44.95781" lon="4.65054">
        <ele>618.35400390625</ele>
        <time>2009-09-19T13:47:51Z</time>
      </trkpt>
      <trkpt lat="44.95774" lon="4.65102">
        <ele>618.81298828125</ele>
        <time>2009-09-19T13:47:56Z</time>
      </trkpt>
      <trkpt lat="44.95747" lon="4.65205">
        <ele>620.97100830078</ele>
        <time>2009-09-19T13:48:07Z</time>
      </trkpt>
      <trkpt lat="44.95744" lon="4.65214">
        <ele>621.13897705078</ele>
        <time>2009-09-19T13:48:08Z</time>
      </trkpt>
      <trkpt lat="44.95742" lon="4.65234">
        <ele>621.21099853516</ele>
        <time>2009-09-19T13:48:10Z</time>
      </trkpt>
      <trkpt lat="44.9574" lon="4.65254">
        <ele>621.51000976562</ele>
        <time>2009-09-19T13:48:12Z</time>
      </trkpt>
      <trkpt lat="44.95735" lon="4.65302">
        <ele>622.99102783203</ele>
        <time>2009-09-19T13:48:17Z</time>
      </trkpt>
      <trkpt lat="44.9576" lon="4.65366">
        <ele>625.11798095703</ele>
        <time>2009-09-19T13:48:26Z</time>
      </trkpt>
      <trkpt lat="44.95782" lon="4.65376">
        <ele>626.11499023438</ele>
        <time>2009-09-19T13:48:30Z</time>
      </trkpt>
      <trkpt lat="44.95824" lon="4.65377">
        <ele>627.791015625</ele>
        <time>2009-09-19T13:48:37Z</time>
      </trkpt>
      <trkpt lat="44.95856" lon="4.6541">
        <ele>629.48199462891</ele>
        <time>2009-09-19T13:48:44Z</time>
      </trkpt>
      <trkpt lat="44.95911" lon="4.65564">
        <ele>634.69299316406</ele>
        <time>2009-09-19T13:49:04Z</time>
      </trkpt>
      <trkpt lat="44.95933" lon="4.65624">
        <ele>636.43798828125</ele>
        <time>2009-09-19T13:49:12Z</time>
      </trkpt>
      <trkpt lat="44.95933" lon="4.65676">
        <ele>637.1669921875</ele>
        <time>2009-09-19T13:49:18Z</time>
      </trkpt>
      <trkpt lat="44.95925" lon="4.65711">
        <ele>637.47998046875</ele>
        <time>2009-09-19T13:49:22Z</time>
      </trkpt>
      <trkpt lat="44.95887" lon="4.6575">
        <ele>638.10601806641</ele>
        <time>2009-09-19T13:49:30Z</time>
      </trkpt>
      <trkpt lat="44.9588" lon="4.65748">
        <ele>638.44799804688</ele>
        <time>2009-09-19T13:49:31Z</time>
      </trkpt>
      <trkpt lat="44.95762" lon="4.65734">
        <ele>640.07897949219</ele>
        <time>2009-09-19T13:49:49Z</time>
      </trkpt>
      <trkpt lat="44.95696" lon="4.65797">
        <ele>641.27398681641</ele>
        <time>2009-09-19T13:50:01Z</time>
      </trkpt>
      <trkpt lat="44.95644" lon="4.65899">
        <ele>643.54400634766</ele>
        <time>2009-09-19T13:50:14Z</time>
      </trkpt>
      <trkpt lat="44.95615" lon="4.65963">
        <ele>643.49499511719</ele>
        <time>2009-09-19T13:50:21Z</time>
      </trkpt>
      <trkpt lat="44.95606" lon="4.66088">
        <ele>647.02899169922</ele>
        <time>2009-09-19T13:50:33Z</time>
      </trkpt>
      <trkpt lat="44.95607" lon="4.66227">
        <ele>650.40600585938</ele>
        <time>2009-09-19T13:50:47Z</time>
      </trkpt>
      <trkpt lat="44.95612" lon="4.6628">
        <ele>652.55102539062</ele>
        <time>2009-09-19T13:50:53Z</time>
      </trkpt>
      <trkpt lat="44.95601" lon="4.66431">
        <ele>653.06402587891</ele>
        <time>2009-09-19T13:51:08Z</time>
      </trkpt>
      <trkpt lat="44.95588" lon="4.66616">
        <ele>656.48797607422</ele>
        <time>2009-09-19T13:51:26Z</time>
      </trkpt>
      <trkpt lat="44.95592" lon="4.66734">
        <ele>659.82000732422</ele>
        <time>2009-09-19T13:51:38Z</time>
      </trkpt>
      <trkpt lat="44.95559" lon="4.66853">
        <ele>660.03002929688</ele>
        <time>2009-09-19T13:51:51Z</time>
      </trkpt>
      <trkpt lat="44.95527" lon="4.66918">
        <ele>661.88800048828</ele>
        <time>2009-09-19T13:51:59Z</time>
      </trkpt>
      <trkpt lat="44.95519" lon="4.66943">
        <ele>663.13897705078</ele>
        <time>2009-09-19T13:52:02Z</time>
      </trkpt>
      <trkpt lat="44.95528" lon="4.66989">
        <ele>665.53900146484</ele>
        <time>2009-09-19T13:52:08Z</time>
      </trkpt>
      <trkpt lat="44.95576" lon="4.67047">
        <ele>668.13598632812</ele>
        <time>2009-09-19T13:52:19Z</time>
      </trkpt>
      <trkpt lat="44.95589" lon="4.67073">
        <ele>668.86602783203</ele>
        <time>2009-09-19T13:52:23Z</time>
      </trkpt>
      <trkpt lat="44.95587" lon="4.67149">
        <ele>671.71899414062</ele>
        <time>2009-09-19T13:52:33Z</time>
      </trkpt>
      <trkpt lat="44.95578" lon="4.67164">
        <ele>672.63201904297</ele>
        <time>2009-09-19T13:52:36Z</time>
      </trkpt>
      <trkpt lat="44.9557" lon="4.67172">
        <ele>673.28198242188</ele>
        <time>2009-09-19T13:52:38Z</time>
      </trkpt>
      <trkpt lat="44.95538" lon="4.67202">
        <ele>676.04699707031</ele>
        <time>2009-09-19T13:52:46Z</time>
      </trkpt>
      <trkpt lat="44.95534" lon="4.67207">
        <ele>675.98297119141</ele>
        <time>2009-09-19T13:52:47Z</time>
      </trkpt>
      <trkpt lat="44.95524" lon="4.67225">
        <ele>677.03900146484</ele>
        <time>2009-09-19T13:52:50Z</time>
      </trkpt>
      <trkpt lat="44.95524" lon="4.67296">
        <ele>680.59698486328</ele>
        <time>2009-09-19T13:53:00Z</time>
      </trkpt>
      <trkpt lat="44.95535" lon="4.67311">
        <ele>682.01202392578</ele>
        <time>2009-09-19T13:53:03Z</time>
      </trkpt>
      <trkpt lat="44.95577" lon="4.67363">
        <ele>685.56597900391</ele>
        <time>2009-09-19T13:53:18Z</time>
      </trkpt>
      <trkpt lat="44.95565" lon="4.67409">
        <ele>688.08898925781</ele>
        <time>2009-09-19T13:53:29Z</time>
      </trkpt>
      <trkpt lat="44.95545" lon="4.67461">
        <ele>690.70697021484</ele>
        <time>2009-09-19T13:53:42Z</time>
      </trkpt>
      <trkpt lat="44.95531" lon="4.67535">
        <ele>693.67102050781</ele>
        <time>2009-09-19T13:53:57Z</time>
      </trkpt>
      <trkpt lat="44.95506" lon="4.67586">
        <ele>696.13201904297</ele>
        <time>2009-09-19T13:54:08Z</time>
      </trkpt>
      <trkpt lat="44.95498" lon="4.67606">
        <ele>697.27099609375</ele>
        <time>2009-09-19T13:54:12Z</time>
      </trkpt>
      <trkpt lat="44.95496" lon="4.67634">
        <ele>698.35797119141</ele>
        <time>2009-09-19T13:54:17Z</time>
      </trkpt>
      <trkpt lat="44.955" lon="4.67661">
        <ele>699.48699951172</ele>
        <time>2009-09-19T13:54:22Z</time>
      </trkpt>
      <trkpt lat="44.95521" lon="4.6773">
        <ele>702.67999267578</ele>
        <time>2009-09-19T13:54:35Z</time>
      </trkpt>
      <trkpt lat="44.9553" lon="4.67798">
        <ele>705.54797363281</ele>
        <time>2009-09-19T13:54:47Z</time>
      </trkpt>
      <trkpt lat="44.95562" lon="4.67874">
        <ele>709.12701416016</ele>
        <time>2009-09-19T13:55:02Z</time>
      </trkpt>
      <trkpt lat="44.95584" lon="4.67921">
        <ele>711.56201171875</ele>
        <time>2009-09-19T13:55:11Z</time>
      </trkpt>
      <trkpt lat="44.95586" lon="4.68016">
        <ele>715.00201416016</ele>
        <time>2009-09-19T13:55:26Z</time>
      </trkpt>
      <trkpt lat="44.95584" lon="4.6805">
        <ele>716.52398681641</ele>
        <time>2009-09-19T13:55:32Z</time>
      </trkpt>
      <trkpt lat="44.95606" lon="4.68113">
        <ele>719.34497070312</ele>
        <time>2009-09-19T13:55:45Z</time>
      </trkpt>
      <trkpt lat="44.95609" lon="4.68173">
        <ele>722.35699462891</ele>
        <time>2009-09-19T13:55:57Z</time>
      </trkpt>
      <trkpt lat="44.95592" lon="4.68212">
        <ele>724.27697753906</ele>
        <time>2009-09-19T13:56:05Z</time>
      </trkpt>
      <trkpt lat="44.95584" lon="4.68238">
        <ele>725.25799560547</ele>
        <time>2009-09-19T13:56:10Z</time>
      </trkpt>
      <trkpt lat="44.95586" lon="4.68322">
        <ele>728.7490234375</ele>
        <time>2009-09-19T13:56:25Z</time>
      </trkpt>
      <trkpt lat="44.95565" lon="4.6841">
        <ele>732.82202148438</ele>
        <time>2009-09-19T13:56:41Z</time>
      </trkpt>
      <trkpt lat="44.95541" lon="4.68486">
        <ele>737.2490234375</ele>
        <time>2009-09-19T13:56:58Z</time>
      </trkpt>
      <trkpt lat="44.95519" lon="4.68565">
        <ele>741.47399902344</ele>
        <time>2009-09-19T13:57:15Z</time>
      </trkpt>
      <trkpt lat="44.95504" lon="4.6864">
        <ele>743.36602783203</ele>
        <time>2009-09-19T13:57:30Z</time>
      </trkpt>
      <trkpt lat="44.95501" lon="4.6869">
        <ele>743.35900878906</ele>
        <time>2009-09-19T13:57:39Z</time>
      </trkpt>
      <trkpt lat="44.95501" lon="4.68702">
        <ele>742.73901367188</ele>
        <time>2009-09-19T13:57:41Z</time>
      </trkpt>
      <trkpt lat="44.95502" lon="4.68734">
        <ele>742.28497314453</ele>
        <time>2009-09-19T13:57:46Z</time>
      </trkpt>
      <trkpt lat="44.95509" lon="4.68792">
        <ele>740.63800048828</ele>
        <time>2009-09-19T13:57:53Z</time>
      </trkpt>
      <trkpt lat="44.95522" lon="4.68861">
        <ele>739.57800292969</ele>
        <time>2009-09-19T13:58:00Z</time>
      </trkpt>
      <trkpt lat="44.95549" lon="4.68981">
        <ele>740.80700683594</ele>
        <time>2009-09-19T13:58:13Z</time>
      </trkpt>
      <trkpt lat="44.9555" lon="4.69018">
        <ele>740.83599853516</ele>
        <time>2009-09-19T13:58:17Z</time>
      </trkpt>
      <trkpt lat="44.95525" lon="4.69101">
        <ele>744.22198486328</ele>
        <time>2009-09-19T13:58:29Z</time>
      </trkpt>
      <trkpt lat="44.95503" lon="4.69159">
        <ele>747.05700683594</ele>
        <time>2009-09-19T13:58:40Z</time>
      </trkpt>
      <trkpt lat="44.95495" lon="4.69195">
        <ele>748.25402832031</ele>
        <time>2009-09-19T13:58:46Z</time>
      </trkpt>
      <trkpt lat="44.95494" lon="4.69202">
        <ele>748.56097412109</ele>
        <time>2009-09-19T13:58:47Z</time>
      </trkpt>
      <trkpt lat="44.9549" lon="4.69213">
        <ele>749.24401855469</ele>
        <time>2009-09-19T13:58:49Z</time>
      </trkpt>
      <trkpt lat="44.95475" lon="4.69268">
        <ele>751.77502441406</ele>
        <time>2009-09-19T13:58:58Z</time>
      </trkpt>
      <trkpt lat="44.95475" lon="4.69348">
        <ele>753.98101806641</ele>
        <time>2009-09-19T13:59:11Z</time>
      </trkpt>
      <trkpt lat="44.95474" lon="4.69382">
        <ele>752.96502685547</ele>
        <time>2009-09-19T13:59:16Z</time>
      </trkpt>
      <trkpt lat="44.95467" lon="4.6944">
        <ele>751.07501220703</ele>
        <time>2009-09-19T13:59:23Z</time>
      </trkpt>
      <trkpt lat="44.95455" lon="4.69486">
        <ele>749.05700683594</ele>
        <time>2009-09-19T13:59:28Z</time>
      </trkpt>
      <trkpt lat="44.95435" lon="4.6952">
        <ele>747.43402099609</ele>
        <time>2009-09-19T13:59:32Z</time>
      </trkpt>
      <trkpt lat="44.95404" lon="4.6954">
        <ele>744.97802734375</ele>
        <time>2009-09-19T13:59:36Z</time>
      </trkpt>
      <trkpt lat="44.95352" lon="4.69552">
        <ele>742.11401367188</ele>
        <time>2009-09-19T13:59:42Z</time>
      </trkpt>
      <trkpt lat="44.95343" lon="4.69552">
        <ele>741.82598876953</ele>
        <time>2009-09-19T13:59:43Z</time>
      </trkpt>
      <trkpt lat="44.95279" lon="4.69508">
        <ele>738.6669921875</ele>
        <time>2009-09-19T13:59:51Z</time>
      </trkpt>
      <trkpt lat="44.95272" lon="4.69498">
        <ele>738.14697265625</ele>
        <time>2009-09-19T13:59:52Z</time>
      </trkpt>
      <trkpt lat="44.95254" lon="4.69467">
        <ele>736.48199462891</ele>
        <time>2009-09-19T13:59:55Z</time>
      </trkpt>
      <trkpt lat="44.95202" lon="4.69456">
        <ele>734.58599853516</ele>
        <time>2009-09-19T14:00:01Z</time>
      </trkpt>
      <trkpt lat="44.95185" lon="4.69468">
        <ele>733.38702392578</ele>
        <time>2009-09-19T14:00:03Z</time>
      </trkpt>
      <trkpt lat="44.95128" lon="4.6947">
        <ele>730.71099853516</ele>
        <time>2009-09-19T14:00:09Z</time>
      </trkpt>
      <trkpt lat="44.95085" lon="4.69471">
        <ele>729.05499267578</ele>
        <time>2009-09-19T14:00:14Z</time>
      </trkpt>
      <trkpt lat="44.95039" lon="4.69523">
        <ele>726.21002197266</ele>
        <time>2009-09-19T14:00:21Z</time>
      </trkpt>
      <trkpt lat="44.95035" lon="4.69574">
        <ele>724.14001464844</ele>
        <time>2009-09-19T14:00:25Z</time>
      </trkpt>
      <trkpt lat="44.95038" lon="4.69615">
        <ele>722.4169921875</ele>
        <time>2009-09-19T14:00:28Z</time>
      </trkpt>
      <trkpt lat="44.95041" lon="4.69659">
        <ele>720.09600830078</ele>
        <time>2009-09-19T14:00:31Z</time>
      </trkpt>
      <trkpt lat="44.95047" lon="4.69735">
        <ele>716.60900878906</ele>
        <time>2009-09-19T14:00:36Z</time>
      </trkpt>
      <trkpt lat="44.95047" lon="4.6975">
        <ele>716.56500244141</ele>
        <time>2009-09-19T14:00:37Z</time>
      </trkpt>
      <trkpt lat="44.95024" lon="4.69815">
        <ele>712.30200195312</ele>
        <time>2009-09-19T14:00:42Z</time>
      </trkpt>
      <trkpt lat="44.94991" lon="4.69812">
        <ele>710.50299072266</ele>
        <time>2009-09-19T14:00:45Z</time>
      </trkpt>
      <trkpt lat="44.9497" lon="4.69801">
        <ele>709.45098876953</ele>
        <time>2009-09-19T14:00:47Z</time>
      </trkpt>
      <trkpt lat="44.94906" lon="4.69785">
        <ele>705.70501708984</ele>
        <time>2009-09-19T14:00:53Z</time>
      </trkpt>
      <trkpt lat="44.94875" lon="4.69772">
        <ele>704.19000244141</ele>
        <time>2009-09-19T14:00:56Z</time>
      </trkpt>
      <trkpt lat="44.94843" lon="4.69778">
        <ele>702.65399169922</ele>
        <time>2009-09-19T14:00:59Z</time>
      </trkpt>
      <trkpt lat="44.94825" lon="4.69834">
        <ele>699.10797119141</ele>
        <time>2009-09-19T14:01:03Z</time>
      </trkpt>
      <trkpt lat="44.9481" lon="4.69855">
        <ele>698.25299072266</ele>
        <time>2009-09-19T14:01:05Z</time>
      </trkpt>
      <trkpt lat="44.9479" lon="4.69868">
        <ele>697.14398193359</ele>
        <time>2009-09-19T14:01:07Z</time>
      </trkpt>
      <trkpt lat="44.94769" lon="4.69877">
        <ele>696.41497802734</ele>
        <time>2009-09-19T14:01:09Z</time>
      </trkpt>
      <trkpt lat="44.94718" lon="4.69908">
        <ele>693.52801513672</ele>
        <time>2009-09-19T14:01:14Z</time>
      </trkpt>
      <trkpt lat="44.94697" lon="4.69919">
        <ele>691.71398925781</ele>
        <time>2009-09-19T14:01:16Z</time>
      </trkpt>
      <trkpt lat="44.94655" lon="4.6993">
        <ele>689.47497558594</ele>
        <time>2009-09-19T14:01:20Z</time>
      </trkpt>
      <trkpt lat="44.94624" lon="4.69931">
        <ele>688.53302001953</ele>
        <time>2009-09-19T14:01:23Z</time>
      </trkpt>
      <trkpt lat="44.94566" lon="4.6991">
        <ele>684.50598144531</ele>
        <time>2009-09-19T14:01:29Z</time>
      </trkpt>
      <trkpt lat="44.94526" lon="4.69912">
        <ele>682.791015625</ele>
        <time>2009-09-19T14:01:33Z</time>
      </trkpt>
      <trkpt lat="44.94486" lon="4.69919">
        <ele>680.66198730469</ele>
        <time>2009-09-19T14:01:37Z</time>
      </trkpt>
      <trkpt lat="44.94477" lon="4.69915">
        <ele>680.05999755859</ele>
        <time>2009-09-19T14:01:38Z</time>
      </trkpt>
      <trkpt lat="44.94448" lon="4.69902">
        <ele>678.87902832031</ele>
        <time>2009-09-19T14:01:41Z</time>
      </trkpt>
      <trkpt lat="44.94391" lon="4.69925">
        <ele>675.31597900391</ele>
        <time>2009-09-19T14:01:47Z</time>
      </trkpt>
      <trkpt lat="44.94384" lon="4.69938">
        <ele>674.80102539062</ele>
        <time>2009-09-19T14:01:48Z</time>
      </trkpt>
      <trkpt lat="44.94366" lon="4.69977">
        <ele>673.13702392578</ele>
        <time>2009-09-19T14:01:51Z</time>
      </trkpt>
      <trkpt lat="44.94347" lon="4.70039">
        <ele>670.791015625</ele>
        <time>2009-09-19T14:01:55Z</time>
      </trkpt>
      <trkpt lat="44.94344" lon="4.70069">
        <ele>669.31701660156</ele>
        <time>2009-09-19T14:01:57Z</time>
      </trkpt>
      <trkpt lat="44.94343" lon="4.70118">
        <ele>667.02001953125</ele>
        <time>2009-09-19T14:02:00Z</time>
      </trkpt>
      <trkpt lat="44.94378" lon="4.70186">
        <ele>664.00201416016</ele>
        <time>2009-09-19T14:02:05Z</time>
      </trkpt>
      <trkpt lat="44.94397" lon="4.70209">
        <ele>663.14599609375</ele>
        <time>2009-09-19T14:02:07Z</time>
      </trkpt>
      <trkpt lat="44.94426" lon="4.70242">
        <ele>662.25799560547</ele>
        <time>2009-09-19T14:02:10Z</time>
      </trkpt>
      <trkpt lat="44.94521" lon="4.70347">
        <ele>658.70397949219</ele>
        <time>2009-09-19T14:02:21Z</time>
      </trkpt>
      <trkpt lat="44.94537" lon="4.70385">
        <ele>657.96899414062</ele>
        <time>2009-09-19T14:02:24Z</time>
      </trkpt>
      <trkpt lat="44.94572" lon="4.70432">
        <ele>657.00402832031</ele>
        <time>2009-09-19T14:02:29Z</time>
      </trkpt>
      <trkpt lat="44.94659" lon="4.70479">
        <ele>654.03997802734</ele>
        <time>2009-09-19T14:02:38Z</time>
      </trkpt>
      <trkpt lat="44.94695" lon="4.70509">
        <ele>652.27801513672</ele>
        <time>2009-09-19T14:02:42Z</time>
      </trkpt>
      <trkpt lat="44.94727" lon="4.70543">
        <ele>651.86700439453</ele>
        <time>2009-09-19T14:02:46Z</time>
      </trkpt>
      <trkpt lat="44.94762" lon="4.70566">
        <ele>650.51898193359</ele>
        <time>2009-09-19T14:02:50Z</time>
      </trkpt>
      <trkpt lat="44.94847" lon="4.70641">
        <ele>646.67797851562</ele>
        <time>2009-09-19T14:03:00Z</time>
      </trkpt>
      <trkpt lat="44.94971" lon="4.70752">
        <ele>643.0419921875</ele>
        <time>2009-09-19T14:03:14Z</time>
      </trkpt>
      <trkpt lat="44.94992" lon="4.7082">
        <ele>640.17401123047</ele>
        <time>2009-09-19T14:03:19Z</time>
      </trkpt>
      <trkpt lat="44.94996" lon="4.70936">
        <ele>638.14099121094</ele>
        <time>2009-09-19T14:03:27Z</time>
      </trkpt>
      <trkpt lat="44.9503" lon="4.71022">
        <ele>636.52197265625</ele>
        <time>2009-09-19T14:03:34Z</time>
      </trkpt>
      <trkpt lat="44.95036" lon="4.7105">
        <ele>635.4990234375</ele>
        <time>2009-09-19T14:03:36Z</time>
      </trkpt>
      <trkpt lat="44.95041" lon="4.71077">
        <ele>634.50500488281</ele>
        <time>2009-09-19T14:03:38Z</time>
      </trkpt>
      <trkpt lat="44.95049" lon="4.71144">
        <ele>633.69897460938</ele>
        <time>2009-09-19T14:03:43Z</time>
      </trkpt>
      <trkpt lat="44.95074" lon="4.71181">
        <ele>632.80700683594</ele>
        <time>2009-09-19T14:03:47Z</time>
      </trkpt>
      <trkpt lat="44.95092" lon="4.71194">
        <ele>632.20300292969</ele>
        <time>2009-09-19T14:03:49Z</time>
      </trkpt>
      <trkpt lat="44.9512" lon="4.71231">
        <ele>631.10699462891</ele>
        <time>2009-09-19T14:03:53Z</time>
      </trkpt>
      <trkpt lat="44.95187" lon="4.71384">
        <ele>627.50299072266</ele>
        <time>2009-09-19T14:04:06Z</time>
      </trkpt>
      <trkpt lat="44.952" lon="4.71406">
        <ele>626.69799804688</ele>
        <time>2009-09-19T14:04:08Z</time>
      </trkpt>
      <trkpt lat="44.9521" lon="4.71474">
        <ele>625.17700195312</ele>
        <time>2009-09-19T14:04:13Z</time>
      </trkpt>
      <trkpt lat="44.95203" lon="4.71528">
        <ele>623.31298828125</ele>
        <time>2009-09-19T14:04:17Z</time>
      </trkpt>
      <trkpt lat="44.95199" lon="4.71555">
        <ele>622.38598632812</ele>
        <time>2009-09-19T14:04:19Z</time>
      </trkpt>
      <trkpt lat="44.95162" lon="4.71616">
        <ele>618.46600341797</ele>
        <time>2009-09-19T14:04:25Z</time>
      </trkpt>
      <trkpt lat="44.95153" lon="4.71621">
        <ele>618.31896972656</ele>
        <time>2009-09-19T14:04:26Z</time>
      </trkpt>
      <trkpt lat="44.95108" lon="4.71646">
        <ele>616.88000488281</ele>
        <time>2009-09-19T14:04:31Z</time>
      </trkpt>
      <trkpt lat="44.95036" lon="4.71686">
        <ele>613.6259765625</ele>
        <time>2009-09-19T14:04:39Z</time>
      </trkpt>
      <trkpt lat="44.94997" lon="4.71691">
        <ele>611.95300292969</ele>
        <time>2009-09-19T14:04:43Z</time>
      </trkpt>
      <trkpt lat="44.94941" lon="4.71692">
        <ele>608.91400146484</ele>
        <time>2009-09-19T14:04:49Z</time>
      </trkpt>
      <trkpt lat="44.94898" lon="4.71715">
        <ele>607.40100097656</ele>
        <time>2009-09-19T14:04:54Z</time>
      </trkpt>
      <trkpt lat="44.94844" lon="4.71773">
        <ele>604.45697021484</ele>
        <time>2009-09-19T14:05:01Z</time>
      </trkpt>
      <trkpt lat="44.94837" lon="4.71783">
        <ele>604.29699707031</ele>
        <time>2009-09-19T14:05:02Z</time>
      </trkpt>
      <trkpt lat="44.94814" lon="4.71827">
        <ele>602.46997070312</ele>
        <time>2009-09-19T14:05:06Z</time>
      </trkpt>
      <trkpt lat="44.94795" lon="4.71875">
        <ele>600.92999267578</ele>
        <time>2009-09-19T14:05:10Z</time>
      </trkpt>
      <trkpt lat="44.948" lon="4.7194">
        <ele>598.06402587891</ele>
        <time>2009-09-19T14:05:15Z</time>
      </trkpt>
      <trkpt lat="44.94818" lon="4.71957">
        <ele>597.32299804688</ele>
        <time>2009-09-19T14:05:17Z</time>
      </trkpt>
      <trkpt lat="44.94848" lon="4.71978">
        <ele>596.11901855469</ele>
        <time>2009-09-19T14:05:20Z</time>
      </trkpt>
      <trkpt lat="44.94875" lon="4.72024">
        <ele>593.56402587891</ele>
        <time>2009-09-19T14:05:24Z</time>
      </trkpt>
      <trkpt lat="44.94862" lon="4.72083">
        <ele>590.75598144531</ele>
        <time>2009-09-19T14:05:28Z</time>
      </trkpt>
      <trkpt lat="44.94835" lon="4.72169">
        <ele>588.15802001953</ele>
        <time>2009-09-19T14:05:34Z</time>
      </trkpt>
      <trkpt lat="44.94785" lon="4.72245">
        <ele>584.46502685547</ele>
        <time>2009-09-19T14:05:41Z</time>
      </trkpt>
      <trkpt lat="44.94764" lon="4.72254">
        <ele>583.46398925781</ele>
        <time>2009-09-19T14:05:43Z</time>
      </trkpt>
      <trkpt lat="44.94682" lon="4.7226">
        <ele>580.27099609375</ele>
        <time>2009-09-19T14:05:51Z</time>
      </trkpt>
      <trkpt lat="44.9462" lon="4.72305">
        <ele>576.84497070312</ele>
        <time>2009-09-19T14:05:58Z</time>
      </trkpt>
      <trkpt lat="44.946" lon="4.72335">
        <ele>574.84399414062</ele>
        <time>2009-09-19T14:06:01Z</time>
      </trkpt>
      <trkpt lat="44.94545" lon="4.72414">
        <ele>571.82501220703</ele>
        <time>2009-09-19T14:06:09Z</time>
      </trkpt>
      <trkpt lat="44.94536" lon="4.72435">
        <ele>571.03601074219</ele>
        <time>2009-09-19T14:06:11Z</time>
      </trkpt>
      <trkpt lat="44.94534" lon="4.72485">
        <ele>570.15502929688</ele>
        <time>2009-09-19T14:06:15Z</time>
      </trkpt>
      <trkpt lat="44.9454" lon="4.7254">
        <ele>568.09899902344</ele>
        <time>2009-09-19T14:06:19Z</time>
      </trkpt>
      <trkpt lat="44.94506" lon="4.72623">
        <ele>564.70599365234</ele>
        <time>2009-09-19T14:06:26Z</time>
      </trkpt>
      <trkpt lat="44.94496" lon="4.72628">
        <ele>564.02001953125</ele>
        <time>2009-09-19T14:06:27Z</time>
      </trkpt>
      <trkpt lat="44.94466" lon="4.72639">
        <ele>562.94000244141</ele>
        <time>2009-09-19T14:06:30Z</time>
      </trkpt>
      <trkpt lat="44.94428" lon="4.727">
        <ele>560.12701416016</ele>
        <time>2009-09-19T14:06:36Z</time>
      </trkpt>
      <trkpt lat="44.94425" lon="4.72714">
        <ele>559.6669921875</ele>
        <time>2009-09-19T14:06:37Z</time>
      </trkpt>
      <trkpt lat="44.94407" lon="4.72843">
        <ele>556.7509765625</ele>
        <time>2009-09-19T14:06:47Z</time>
      </trkpt>
      <trkpt lat="44.94408" lon="4.72884">
        <ele>556.19500732422</ele>
        <time>2009-09-19T14:06:56Z</time>
      </trkpt>
      <trkpt lat="44.94426" lon="4.72898">
        <ele>555.40899658203</ele>
        <time>2009-09-19T14:07:01Z</time>
      </trkpt>
      <trkpt lat="44.94452" lon="4.72941">
        <ele>553.09600830078</ele>
        <time>2009-09-19T14:07:09Z</time>
      </trkpt>
      <trkpt lat="44.94477" lon="4.72959">
        <ele>551.90100097656</ele>
        <time>2009-09-19T14:07:13Z</time>
      </trkpt>
      <trkpt lat="44.94469" lon="4.73012">
        <ele>550.56701660156</ele>
        <time>2009-09-19T14:07:18Z</time>
      </trkpt>
      <trkpt lat="44.94457" lon="4.73047">
        <ele>549.68499755859</ele>
        <time>2009-09-19T14:07:22Z</time>
      </trkpt>
      <trkpt lat="44.94436" lon="4.73048">
        <ele>547.76397705078</ele>
        <time>2009-09-19T14:07:27Z</time>
      </trkpt>
      <trkpt lat="44.94433" lon="4.7304">
        <ele>548.08599853516</ele>
        <time>2009-09-19T14:07:28Z</time>
      </trkpt>
      <trkpt lat="44.94427" lon="4.73026">
        <ele>548.41497802734</ele>
        <time>2009-09-19T14:07:30Z</time>
      </trkpt>
      <trkpt lat="44.94398" lon="4.72984">
        <ele>548.07800292969</ele>
        <time>2009-09-19T14:07:37Z</time>
      </trkpt>
      <trkpt lat="44.94374" lon="4.72953">
        <ele>547.80700683594</ele>
        <time>2009-09-19T14:07:42Z</time>
      </trkpt>
      <trkpt lat="44.94352" lon="4.7292">
        <ele>548.60498046875</ele>
        <time>2009-09-19T14:07:47Z</time>
      </trkpt>
      <trkpt lat="44.94341" lon="4.72883">
        <ele>549.45001220703</ele>
        <time>2009-09-19T14:07:52Z</time>
      </trkpt>
      <trkpt lat="44.94352" lon="4.72814">
        <ele>551.42602539062</ele>
        <time>2009-09-19T14:08:01Z</time>
      </trkpt>
      <trkpt lat="44.94356" lon="4.72778">
        <ele>552.67401123047</ele>
        <time>2009-09-19T14:08:06Z</time>
      </trkpt>
      <trkpt lat="44.94354" lon="4.72756">
        <ele>553.11901855469</ele>
        <time>2009-09-19T14:08:09Z</time>
      </trkpt>
      <trkpt lat="44.9435" lon="4.72724">
        <ele>552.54302978516</ele>
        <time>2009-09-19T14:08:13Z</time>
      </trkpt>
      <trkpt lat="44.94354" lon="4.72666">
        <ele>551.20599365234</ele>
        <time>2009-09-19T14:08:19Z</time>
      </trkpt>
      <trkpt lat="44.94371" lon="4.72557">
        <ele>548.38598632812</ele>
        <time>2009-09-19T14:08:29Z</time>
      </trkpt>
      <trkpt lat="44.94343" lon="4.72493">
        <ele>547.49298095703</ele>
        <time>2009-09-19T14:08:36Z</time>
      </trkpt>
      <trkpt lat="44.94299" lon="4.72505">
        <ele>548.21502685547</ele>
        <time>2009-09-19T14:08:42Z</time>
      </trkpt>
      <trkpt lat="44.94294" lon="4.72512">
        <ele>547.97802734375</ele>
        <time>2009-09-19T14:08:43Z</time>
      </trkpt>
      <trkpt lat="44.94279" lon="4.72537">
        <ele>548.51300048828</ele>
        <time>2009-09-19T14:08:46Z</time>
      </trkpt>
      <trkpt lat="44.94182" lon="4.72642">
        <ele>549.29400634766</ele>
        <time>2009-09-19T14:09:03Z</time>
      </trkpt>
      <trkpt lat="44.94109" lon="4.72696">
        <ele>550.54797363281</ele>
        <time>2009-09-19T14:09:15Z</time>
      </trkpt>
      <trkpt lat="44.94083" lon="4.72702">
        <ele>551.25897216797</ele>
        <time>2009-09-19T14:09:19Z</time>
      </trkpt>
      <trkpt lat="44.93991" lon="4.72674">
        <ele>552.17401123047</ele>
        <time>2009-09-19T14:09:34Z</time>
      </trkpt>
      <trkpt lat="44.93969" lon="4.72649">
        <ele>554.2080078125</ele>
        <time>2009-09-19T14:09:39Z</time>
      </trkpt>
      <trkpt lat="44.93915" lon="4.72524">
        <ele>556.05102539062</ele>
        <time>2009-09-19T14:09:56Z</time>
      </trkpt>
      <trkpt lat="44.93903" lon="4.72491">
        <ele>555.89501953125</ele>
        <time>2009-09-19T14:10:00Z</time>
      </trkpt>
      <trkpt lat="44.93896" lon="4.7236">
        <ele>553.37200927734</ele>
        <time>2009-09-19T14:10:12Z</time>
      </trkpt>
      <trkpt lat="44.93891" lon="4.72277">
        <ele>551.55999755859</ele>
        <time>2009-09-19T14:10:19Z</time>
      </trkpt>
      <trkpt lat="44.93843" lon="4.72214">
        <ele>550.94897460938</ele>
        <time>2009-09-19T14:10:27Z</time>
      </trkpt>
      <trkpt lat="44.93835" lon="4.72211">
        <ele>550.53497314453</ele>
        <time>2009-09-19T14:10:28Z</time>
      </trkpt>
      <trkpt lat="44.93793" lon="4.72203">
        <ele>549.46398925781</ele>
        <time>2009-09-19T14:10:33Z</time>
      </trkpt>
      <trkpt lat="44.9375" lon="4.72199">
        <ele>548.61901855469</ele>
        <time>2009-09-19T14:10:38Z</time>
      </trkpt>
      <trkpt lat="44.93706" lon="4.7216">
        <ele>547.70300292969</ele>
        <time>2009-09-19T14:10:44Z</time>
      </trkpt>
      <trkpt lat="44.93665" lon="4.72115">
        <ele>546.68200683594</ele>
        <time>2009-09-19T14:10:50Z</time>
      </trkpt>
      <trkpt lat="44.93576" lon="4.72081">
        <ele>544.89398193359</ele>
        <time>2009-09-19T14:11:01Z</time>
      </trkpt>
      <trkpt lat="44.93535" lon="4.72025">
        <ele>543.67102050781</ele>
        <time>2009-09-19T14:11:08Z</time>
      </trkpt>
      <trkpt lat="44.93533" lon="4.72">
        <ele>543.78100585938</ele>
        <time>2009-09-19T14:11:10Z</time>
      </trkpt>
      <trkpt lat="44.9351" lon="4.71948">
        <ele>542.54400634766</ele>
        <time>2009-09-19T14:11:15Z</time>
      </trkpt>
      <trkpt lat="44.93417" lon="4.71855">
        <ele>545.43798828125</ele>
        <time>2009-09-19T14:11:30Z</time>
      </trkpt>
      <trkpt lat="44.93398" lon="4.71782">
        <ele>546.22601318359</ele>
        <time>2009-09-19T14:11:38Z</time>
      </trkpt>
      <trkpt lat="44.93401" lon="4.71763">
        <ele>547.65197753906</ele>
        <time>2009-09-19T14:11:40Z</time>
      </trkpt>
      <trkpt lat="44.93402" lon="4.71714">
        <ele>548.59301757812</ele>
        <time>2009-09-19T14:11:45Z</time>
      </trkpt>
      <trkpt lat="44.93399" lon="4.71665">
        <ele>547.92297363281</ele>
        <time>2009-09-19T14:11:50Z</time>
      </trkpt>
      <trkpt lat="44.93407" lon="4.71627">
        <ele>549.24401855469</ele>
        <time>2009-09-19T14:11:54Z</time>
      </trkpt>
      <trkpt lat="44.93433" lon="4.71582">
        <ele>551.36602783203</ele>
        <time>2009-09-19T14:12:00Z</time>
      </trkpt>
      <trkpt lat="44.93439" lon="4.71567">
        <ele>551.71697998047</ele>
        <time>2009-09-19T14:12:02Z</time>
      </trkpt>
      <trkpt lat="44.93445" lon="4.71552">
        <ele>551.75897216797</ele>
        <time>2009-09-19T14:12:04Z</time>
      </trkpt>
      <trkpt lat="44.93458" lon="4.71474">
        <ele>553.09997558594</ele>
        <time>2009-09-19T14:12:13Z</time>
      </trkpt>
      <trkpt lat="44.93451" lon="4.71429">
        <ele>553.90100097656</ele>
        <time>2009-09-19T14:12:18Z</time>
      </trkpt>
      <trkpt lat="44.93431" lon="4.71383">
        <ele>555.2080078125</ele>
        <time>2009-09-19T14:12:24Z</time>
      </trkpt>
      <trkpt lat="44.9343" lon="4.71338">
        <ele>556.94598388672</ele>
        <time>2009-09-19T14:12:30Z</time>
      </trkpt>
      <trkpt lat="44.93436" lon="4.71319">
        <ele>557.84899902344</ele>
        <time>2009-09-19T14:12:33Z</time>
      </trkpt>
      <trkpt lat="44.93428" lon="4.71273">
        <ele>560.48797607422</ele>
        <time>2009-09-19T14:12:41Z</time>
      </trkpt>
      <trkpt lat="44.93405" lon="4.7125">
        <ele>561.94500732422</ele>
        <time>2009-09-19T14:12:47Z</time>
      </trkpt>
      <trkpt lat="44.93349" lon="4.71195">
        <ele>565.45098876953</ele>
        <time>2009-09-19T14:13:01Z</time>
      </trkpt>
      <trkpt lat="44.93327" lon="4.71162">
        <ele>566.84497070312</ele>
        <time>2009-09-19T14:13:08Z</time>
      </trkpt>
      <trkpt lat="44.9332" lon="4.71146">
        <ele>568.10998535156</ele>
        <time>2009-09-19T14:13:11Z</time>
      </trkpt>
      <trkpt lat="44.93292" lon="4.7107">
        <ele>571.68902587891</ele>
        <time>2009-09-19T14:13:25Z</time>
      </trkpt>
      <trkpt lat="44.93245" lon="4.71016">
        <ele>575.10601806641</ele>
        <time>2009-09-19T14:13:39Z</time>
      </trkpt>
      <trkpt lat="44.9324" lon="4.71007">
        <ele>575.36297607422</ele>
        <time>2009-09-19T14:13:41Z</time>
      </trkpt>
      <trkpt lat="44.93235" lon="4.70997">
        <ele>575.67700195312</ele>
        <time>2009-09-19T14:13:43Z</time>
      </trkpt>
      <trkpt lat="44.9323" lon="4.70966">
        <ele>577.85699462891</ele>
        <time>2009-09-19T14:13:48Z</time>
      </trkpt>
      <trkpt lat="44.93233" lon="4.70931">
        <ele>578.70501708984</ele>
        <time>2009-09-19T14:13:54Z</time>
      </trkpt>
      <trkpt lat="44.93233" lon="4.70889">
        <ele>580.21600341797</ele>
        <time>2009-09-19T14:14:01Z</time>
      </trkpt>
      <trkpt lat="44.93229" lon="4.70822">
        <ele>582.97497558594</ele>
        <time>2009-09-19T14:14:12Z</time>
      </trkpt>
      <trkpt lat="44.93188" lon="4.70745">
        <ele>588.06201171875</ele>
        <time>2009-09-19T14:14:27Z</time>
      </trkpt>
      <trkpt lat="44.93172" lon="4.70721">
        <ele>589.31896972656</ele>
        <time>2009-09-19T14:14:32Z</time>
      </trkpt>
      <trkpt lat="44.9314" lon="4.70694">
        <ele>591.49401855469</ele>
        <time>2009-09-19T14:14:41Z</time>
      </trkpt>
      <trkpt lat="44.93132" lon="4.7069">
        <ele>591.89202880859</ele>
        <time>2009-09-19T14:14:43Z</time>
      </trkpt>
      <trkpt lat="44.93092" lon="4.70665">
        <ele>594.67498779297</ele>
        <time>2009-09-19T14:14:53Z</time>
      </trkpt>
      <trkpt lat="44.93046" lon="4.70589">
        <ele>598.84002685547</ele>
        <time>2009-09-19T14:15:09Z</time>
      </trkpt>
      <trkpt lat="44.93022" lon="4.70515">
        <ele>602.38598632812</ele>
        <time>2009-09-19T14:15:22Z</time>
      </trkpt>
      <trkpt lat="44.93023" lon="4.70467">
        <ele>604.39202880859</ele>
        <time>2009-09-19T14:15:30Z</time>
      </trkpt>
      <trkpt lat="44.93011" lon="4.70428">
        <ele>606.18701171875</ele>
        <time>2009-09-19T14:15:37Z</time>
      </trkpt>
      <trkpt lat="44.92955" lon="4.70378">
        <ele>610.46197509766</ele>
        <time>2009-09-19T14:15:52Z</time>
      </trkpt>
      <trkpt lat="44.92951" lon="4.70375">
        <ele>610.65997314453</ele>
        <time>2009-09-19T14:15:53Z</time>
      </trkpt>
      <trkpt lat="44.92907" lon="4.70364">
        <ele>613.15301513672</ele>
        <time>2009-09-19T14:16:03Z</time>
      </trkpt>
      <trkpt lat="44.92827" lon="4.70375">
        <ele>617.92498779297</ele>
        <time>2009-09-19T14:16:20Z</time>
      </trkpt>
      <trkpt lat="44.92765" lon="4.70389">
        <ele>622.07897949219</ele>
        <time>2009-09-19T14:16:34Z</time>
      </trkpt>
      <trkpt lat="44.92697" lon="4.70431">
        <ele>626.23199462891</ele>
        <time>2009-09-19T14:16:50Z</time>
      </trkpt>
      <trkpt lat="44.92646" lon="4.70464">
        <ele>629.32897949219</ele>
        <time>2009-09-19T14:17:02Z</time>
      </trkpt>
      <trkpt lat="44.92629" lon="4.70471">
        <ele>630.40301513672</ele>
        <time>2009-09-19T14:17:06Z</time>
      </trkpt>
      <trkpt lat="44.92612" lon="4.70477">
        <ele>631.70501708984</ele>
        <time>2009-09-19T14:17:10Z</time>
      </trkpt>
      <trkpt lat="44.92604" lon="4.70481">
        <ele>632.24200439453</ele>
        <time>2009-09-19T14:17:12Z</time>
      </trkpt>
      <trkpt lat="44.92596" lon="4.70485">
        <ele>632.65802001953</ele>
        <time>2009-09-19T14:17:14Z</time>
      </trkpt>
      <trkpt lat="44.92588" lon="4.70489">
        <ele>633.34802246094</ele>
        <time>2009-09-19T14:17:16Z</time>
      </trkpt>
      <trkpt lat="44.92559" lon="4.70504">
        <ele>635.14001464844</ele>
        <time>2009-09-19T14:17:23Z</time>
      </trkpt>
      <trkpt lat="44.92479" lon="4.70523">
        <ele>639.87097167969</ele>
        <time>2009-09-19T14:17:42Z</time>
      </trkpt>
      <trkpt lat="44.9241" lon="4.70526">
        <ele>643.47900390625</ele>
        <time>2009-09-19T14:17:58Z</time>
      </trkpt>
      <trkpt lat="44.92405" lon="4.70526">
        <ele>643.98101806641</ele>
        <time>2009-09-19T14:17:59Z</time>
      </trkpt>
      <trkpt lat="44.92389" lon="4.70522">
        <ele>644.42401123047</ele>
        <time>2009-09-19T14:18:02Z</time>
      </trkpt>
      <trkpt lat="44.92348" lon="4.70501">
        <ele>647.79998779297</ele>
        <time>2009-09-19T14:18:10Z</time>
      </trkpt>
      <trkpt lat="44.92332" lon="4.70476">
        <ele>649.3330078125</ele>
        <time>2009-09-19T14:18:15Z</time>
      </trkpt>
      <trkpt lat="44.92316" lon="4.70401">
        <ele>653.37701416016</ele>
        <time>2009-09-19T14:18:29Z</time>
      </trkpt>
      <trkpt lat="44.92294" lon="4.70314">
        <ele>656.85998535156</ele>
        <time>2009-09-19T14:18:45Z</time>
      </trkpt>
      <trkpt lat="44.92284" lon="4.70289">
        <ele>657.55499267578</ele>
        <time>2009-09-19T14:18:50Z</time>
      </trkpt>
      <trkpt lat="44.92262" lon="4.70268">
        <ele>658.80902099609</ele>
        <time>2009-09-19T14:18:57Z</time>
      </trkpt>
      <trkpt lat="44.92216" lon="4.70286">
        <ele>661.75897216797</ele>
        <time>2009-09-19T14:19:10Z</time>
      </trkpt>
      <trkpt lat="44.92176" lon="4.70346">
        <ele>665.57000732422</ele>
        <time>2009-09-19T14:19:24Z</time>
      </trkpt>
      <trkpt lat="44.92132" lon="4.70406">
        <ele>667.22100830078</ele>
        <time>2009-09-19T14:19:38Z</time>
      </trkpt>
      <trkpt lat="44.92105" lon="4.70424">
        <ele>667.27899169922</ele>
        <time>2009-09-19T14:19:44Z</time>
      </trkpt>
      <trkpt lat="44.92084" lon="4.70429">
        <ele>667.31298828125</ele>
        <time>2009-09-19T14:19:48Z</time>
      </trkpt>
      <trkpt lat="44.9205" lon="4.70401">
        <ele>666.88702392578</ele>
        <time>2009-09-19T14:19:55Z</time>
      </trkpt>
      <trkpt lat="44.92035" lon="4.70368">
        <ele>667.41802978516</ele>
        <time>2009-09-19T14:20:00Z</time>
      </trkpt>
      <trkpt lat="44.92027" lon="4.70331">
        <ele>667.82397460938</ele>
        <time>2009-09-19T14:20:05Z</time>
      </trkpt>
      <trkpt lat="44.9201" lon="4.70202">
        <ele>669.34497070312</ele>
        <time>2009-09-19T14:20:22Z</time>
      </trkpt>
      <trkpt lat="44.91989" lon="4.70158">
        <ele>670.64202880859</ele>
        <time>2009-09-19T14:20:31Z</time>
      </trkpt>
      <trkpt lat="44.91989" lon="4.70158">
        <ele>670.67297363281</ele>
        <time>2009-09-19T14:20:33Z</time>
      </trkpt>
      <trkpt lat="44.91993" lon="4.70152">
        <ele>670.6259765625</ele>
        <time>2009-09-19T14:22:55Z</time>
      </trkpt>
      <trkpt lat="44.91992" lon="4.70147">
        <ele>670.67199707031</ele>
        <time>2009-09-19T14:22:57Z</time>
      </trkpt>
      <trkpt lat="44.91978" lon="4.70117">
        <ele>670.71502685547</ele>
        <time>2009-09-19T14:23:06Z</time>
      </trkpt>
      <trkpt lat="44.91955" lon="4.70067">
        <ele>671.82501220703</ele>
        <time>2009-09-19T14:23:18Z</time>
      </trkpt>
      <trkpt lat="44.91945" lon="4.70045">
        <ele>671.94000244141</ele>
        <time>2009-09-19T14:23:23Z</time>
      </trkpt>
      <trkpt lat="44.91909" lon="4.6997">
        <ele>673.35198974609</ele>
        <time>2009-09-19T14:23:37Z</time>
      </trkpt>
      <trkpt lat="44.9187" lon="4.69928">
        <ele>673.83599853516</ele>
        <time>2009-09-19T14:23:46Z</time>
      </trkpt>
      <trkpt lat="44.9185" lon="4.69881">
        <ele>674.16998291016</ele>
        <time>2009-09-19T14:23:53Z</time>
      </trkpt>
      <trkpt lat="44.91822" lon="4.69854">
        <ele>674.73400878906</ele>
        <time>2009-09-19T14:23:59Z</time>
      </trkpt>
      <trkpt lat="44.91774" lon="4.69852">
        <ele>675.71197509766</ele>
        <time>2009-09-19T14:24:07Z</time>
      </trkpt>
      <trkpt lat="44.91684" lon="4.69824">
        <ele>677.49298095703</ele>
        <time>2009-09-19T14:24:22Z</time>
      </trkpt>
      <trkpt lat="44.91663" lon="4.69807">
        <ele>677.84802246094</ele>
        <time>2009-09-19T14:24:26Z</time>
      </trkpt>
      <trkpt lat="44.91643" lon="4.69776">
        <ele>678.57000732422</ele>
        <time>2009-09-19T14:24:31Z</time>
      </trkpt>
      <trkpt lat="44.91626" lon="4.69729">
        <ele>678.79901123047</ele>
        <time>2009-09-19T14:24:37Z</time>
      </trkpt>
      <trkpt lat="44.91624" lon="4.69713">
        <ele>678.85498046875</ele>
        <time>2009-09-19T14:24:39Z</time>
      </trkpt>
      <trkpt lat="44.91632" lon="4.6963">
        <ele>678.64501953125</ele>
        <time>2009-09-19T14:24:48Z</time>
      </trkpt>
      <trkpt lat="44.91624" lon="4.69574">
        <ele>678.958984375</ele>
        <time>2009-09-19T14:24:54Z</time>
      </trkpt>
      <trkpt lat="44.91588" lon="4.69501">
        <ele>678.28900146484</ele>
        <time>2009-09-19T14:25:03Z</time>
      </trkpt>
      <trkpt lat="44.91565" lon="4.69361">
        <ele>679.06597900391</ele>
        <time>2009-09-19T14:25:17Z</time>
      </trkpt>
      <trkpt lat="44.91561" lon="4.69226">
        <ele>679.14300537109</ele>
        <time>2009-09-19T14:25:30Z</time>
      </trkpt>
      <trkpt lat="44.91521" lon="4.6915">
        <ele>678.65899658203</ele>
        <time>2009-09-19T14:25:38Z</time>
      </trkpt>
      <trkpt lat="44.91471" lon="4.69135">
        <ele>679.02801513672</ele>
        <time>2009-09-19T14:25:44Z</time>
      </trkpt>
      <trkpt lat="44.91369" lon="4.6917">
        <ele>679.06500244141</ele>
        <time>2009-09-19T14:25:56Z</time>
      </trkpt>
      <trkpt lat="44.9132" lon="4.69147">
        <ele>678.85302734375</ele>
        <time>2009-09-19T14:26:02Z</time>
      </trkpt>
      <trkpt lat="44.91301" lon="4.69124">
        <ele>679.01599121094</ele>
        <time>2009-09-19T14:26:05Z</time>
      </trkpt>
      <trkpt lat="44.91285" lon="4.69081">
        <ele>678.27301025391</ele>
        <time>2009-09-19T14:26:09Z</time>
      </trkpt>
      <trkpt lat="44.91279" lon="4.69045">
        <ele>678.59600830078</ele>
        <time>2009-09-19T14:26:12Z</time>
      </trkpt>
      <trkpt lat="44.91243" lon="4.68963">
        <ele>678.40002441406</ele>
        <time>2009-09-19T14:26:20Z</time>
      </trkpt>
      <trkpt lat="44.91177" lon="4.68907">
        <ele>678.11700439453</ele>
        <time>2009-09-19T14:26:29Z</time>
      </trkpt>
      <trkpt lat="44.91164" lon="4.68891">
        <ele>678.1259765625</ele>
        <time>2009-09-19T14:26:31Z</time>
      </trkpt>
      <trkpt lat="44.91145" lon="4.68796">
        <ele>677.87701416016</ele>
        <time>2009-09-19T14:26:39Z</time>
      </trkpt>
      <trkpt lat="44.91151" lon="4.68774">
        <ele>677.583984375</ele>
        <time>2009-09-19T14:26:41Z</time>
      </trkpt>
      <trkpt lat="44.91218" lon="4.68656">
        <ele>677.74798583984</ele>
        <time>2009-09-19T14:26:54Z</time>
      </trkpt>
      <trkpt lat="44.91239" lon="4.68607">
        <ele>676.61700439453</ele>
        <time>2009-09-19T14:26:59Z</time>
      </trkpt>
      <trkpt lat="44.91244" lon="4.68559">
        <ele>677.33801269531</ele>
        <time>2009-09-19T14:27:03Z</time>
      </trkpt>
      <trkpt lat="44.9129" lon="4.68486">
        <ele>676.94097900391</ele>
        <time>2009-09-19T14:27:11Z</time>
      </trkpt>
      <trkpt lat="44.91446" lon="4.68403">
        <ele>677.21899414062</ele>
        <time>2009-09-19T14:27:30Z</time>
      </trkpt>
      <trkpt lat="44.91525" lon="4.68405">
        <ele>676.91802978516</ele>
        <time>2009-09-19T14:27:39Z</time>
      </trkpt>
      <trkpt lat="44.91546" lon="4.68408">
        <ele>676.75299072266</ele>
        <time>2009-09-19T14:27:41Z</time>
      </trkpt>
      <trkpt lat="44.91595" lon="4.68375">
        <ele>675.35601806641</ele>
        <time>2009-09-19T14:27:47Z</time>
      </trkpt>
      <trkpt lat="44.91601" lon="4.68351">
        <ele>675.70397949219</ele>
        <time>2009-09-19T14:27:49Z</time>
      </trkpt>
      <trkpt lat="44.91623" lon="4.68271">
        <ele>676.8740234375</ele>
        <time>2009-09-19T14:27:56Z</time>
      </trkpt>
      <trkpt lat="44.91626" lon="4.68173">
        <ele>676.86700439453</ele>
        <time>2009-09-19T14:28:04Z</time>
      </trkpt>
      <trkpt lat="44.91596" lon="4.68109">
        <ele>676.42602539062</ele>
        <time>2009-09-19T14:28:10Z</time>
      </trkpt>
      <trkpt lat="44.91549" lon="4.6808">
        <ele>675.90698242188</ele>
        <time>2009-09-19T14:28:15Z</time>
      </trkpt>
      <trkpt lat="44.91521" lon="4.68074">
        <ele>676.17999267578</ele>
        <time>2009-09-19T14:28:18Z</time>
      </trkpt>
      <trkpt lat="44.91488" lon="4.68099">
        <ele>676.8330078125</ele>
        <time>2009-09-19T14:28:22Z</time>
      </trkpt>
      <trkpt lat="44.91443" lon="4.6814">
        <ele>677.63397216797</ele>
        <time>2009-09-19T14:28:28Z</time>
      </trkpt>
      <trkpt lat="44.9141" lon="4.68149">
        <ele>677.36102294922</ele>
        <time>2009-09-19T14:28:32Z</time>
      </trkpt>
      <trkpt lat="44.91294" lon="4.68122">
        <ele>676.88897705078</ele>
        <time>2009-09-19T14:28:46Z</time>
      </trkpt>
      <trkpt lat="44.91166" lon="4.6804">
        <ele>679.34802246094</ele>
        <time>2009-09-19T14:29:03Z</time>
      </trkpt>
      <trkpt lat="44.91151" lon="4.6803">
        <ele>679.43103027344</ele>
        <time>2009-09-19T14:29:05Z</time>
      </trkpt>
      <trkpt lat="44.91106" lon="4.68023">
        <ele>679.42999267578</ele>
        <time>2009-09-19T14:29:10Z</time>
      </trkpt>
      <trkpt lat="44.91022" lon="4.68036">
        <ele>678.19000244141</ele>
        <time>2009-09-19T14:29:19Z</time>
      </trkpt>
      <trkpt lat="44.90978" lon="4.68001">
        <ele>678.92999267578</ele>
        <time>2009-09-19T14:29:25Z</time>
      </trkpt>
      <trkpt lat="44.90968" lon="4.67979">
        <ele>678.583984375</ele>
        <time>2009-09-19T14:29:27Z</time>
      </trkpt>
      <trkpt lat="44.90923" lon="4.67945">
        <ele>678.61499023438</ele>
        <time>2009-09-19T14:29:33Z</time>
      </trkpt>
      <trkpt lat="44.90915" lon="4.67947">
        <ele>678.19000244141</ele>
        <time>2009-09-19T14:29:34Z</time>
      </trkpt>
      <trkpt lat="44.90845" lon="4.67968">
        <ele>677.26800537109</ele>
        <time>2009-09-19T14:29:43Z</time>
      </trkpt>
      <trkpt lat="44.90815" lon="4.67979">
        <ele>677.60601806641</ele>
        <time>2009-09-19T14:29:52Z</time>
      </trkpt>
      <trkpt lat="44.90813" lon="4.67989">
        <ele>677.36901855469</ele>
        <time>2009-09-19T14:29:57Z</time>
      </trkpt>
      <trkpt lat="44.90807" lon="4.68001">
        <ele>678.09399414062</ele>
        <time>2009-09-19T14:30:03Z</time>
      </trkpt>
      <trkpt lat="44.90797" lon="4.68013">
        <ele>677.97497558594</ele>
        <time>2009-09-19T14:30:11Z</time>
      </trkpt>
      <trkpt lat="44.90789" lon="4.6802">
        <ele>677.60998535156</ele>
        <time>2009-09-19T14:30:16Z</time>
      </trkpt>
      <trkpt lat="44.90781" lon="4.68026">
        <ele>677.22900390625</ele>
        <time>2009-09-19T14:30:20Z</time>
      </trkpt>
      <trkpt lat="44.90774" lon="4.68031">
        <ele>677.30902099609</ele>
        <time>2009-09-19T14:30:26Z</time>
      </trkpt>
      <trkpt lat="44.90766" lon="4.68037">
        <ele>676.89398193359</ele>
        <time>2009-09-19T14:30:35Z</time>
      </trkpt>
      <trkpt lat="44.90732" lon="4.68055">
        <ele>675.93499755859</ele>
        <time>2009-09-19T14:30:48Z</time>
      </trkpt>
      <trkpt lat="44.9067" lon="4.68091">
        <ele>675.02001953125</ele>
        <time>2009-09-19T14:31:00Z</time>
      </trkpt>
      <trkpt lat="44.90626" lon="4.68125">
        <ele>674.59698486328</ele>
        <time>2009-09-19T14:31:08Z</time>
      </trkpt>
      <trkpt lat="44.90606" lon="4.68171">
        <ele>674.21301269531</ele>
        <time>2009-09-19T14:31:14Z</time>
      </trkpt>
      <trkpt lat="44.90603" lon="4.68189">
        <ele>674.6240234375</ele>
        <time>2009-09-19T14:31:16Z</time>
      </trkpt>
      <trkpt lat="44.90612" lon="4.68313">
        <ele>676.61602783203</ele>
        <time>2009-09-19T14:31:30Z</time>
      </trkpt>
      <trkpt lat="44.9062" lon="4.68399">
        <ele>678.44598388672</ele>
        <time>2009-09-19T14:31:41Z</time>
      </trkpt>
      <trkpt lat="44.90588" lon="4.68463">
        <ele>679.71099853516</ele>
        <time>2009-09-19T14:31:52Z</time>
      </trkpt>
      <trkpt lat="44.90583" lon="4.68466">
        <ele>679.87799072266</ele>
        <time>2009-09-19T14:31:53Z</time>
      </trkpt>
      <trkpt lat="44.90557" lon="4.68479">
        <ele>679.95202636719</ele>
        <time>2009-09-19T14:31:58Z</time>
      </trkpt>
      <trkpt lat="44.9054" lon="4.68502">
        <ele>679.87701416016</ele>
        <time>2009-09-19T14:32:02Z</time>
      </trkpt>
      <trkpt lat="44.90526" lon="4.68541">
        <ele>679.76800537109</ele>
        <time>2009-09-19T14:32:07Z</time>
      </trkpt>
      <trkpt lat="44.90523" lon="4.68559">
        <ele>679.24597167969</ele>
        <time>2009-09-19T14:32:09Z</time>
      </trkpt>
      <trkpt lat="44.90525" lon="4.68607">
        <ele>679.20098876953</ele>
        <time>2009-09-19T14:32:14Z</time>
      </trkpt>
      <trkpt lat="44.90549" lon="4.6874">
        <ele>678.65002441406</ele>
        <time>2009-09-19T14:32:29Z</time>
      </trkpt>
      <trkpt lat="44.90574" lon="4.68884">
        <ele>677.46801757812</ele>
        <time>2009-09-19T14:32:44Z</time>
      </trkpt>
      <trkpt lat="44.90598" lon="4.68947">
        <ele>677.05102539062</ele>
        <time>2009-09-19T14:32:51Z</time>
      </trkpt>
      <trkpt lat="44.90606" lon="4.68988">
        <ele>676.875</ele>
        <time>2009-09-19T14:32:55Z</time>
      </trkpt>
      <trkpt lat="44.90597" lon="4.69047">
        <ele>676.31799316406</ele>
        <time>2009-09-19T14:33:01Z</time>
      </trkpt>
      <trkpt lat="44.90541" lon="4.69191">
        <ele>675.12701416016</ele>
        <time>2009-09-19T14:33:16Z</time>
      </trkpt>
      <trkpt lat="44.90538" lon="4.69202">
        <ele>674.97100830078</ele>
        <time>2009-09-19T14:33:17Z</time>
      </trkpt>
      <trkpt lat="44.90544" lon="4.69282">
        <ele>674.30102539062</ele>
        <time>2009-09-19T14:33:24Z</time>
      </trkpt>
      <trkpt lat="44.90572" lon="4.6935">
        <ele>673.86199951172</ele>
        <time>2009-09-19T14:33:31Z</time>
      </trkpt>
      <trkpt lat="44.90588" lon="4.69415">
        <ele>673.09802246094</ele>
        <time>2009-09-19T14:33:38Z</time>
      </trkpt>
      <trkpt lat="44.90562" lon="4.69468">
        <ele>672.89202880859</ele>
        <time>2009-09-19T14:33:45Z</time>
      </trkpt>
      <trkpt lat="44.90539" lon="4.69467">
        <ele>672.84301757812</ele>
        <time>2009-09-19T14:33:48Z</time>
      </trkpt>
      <trkpt lat="44.90467" lon="4.69438">
        <ele>672.39599609375</ele>
        <time>2009-09-19T14:33:58Z</time>
      </trkpt>
      <trkpt lat="44.90446" lon="4.69425">
        <ele>672.32098388672</ele>
        <time>2009-09-19T14:34:01Z</time>
      </trkpt>
      <trkpt lat="44.90413" lon="4.69422">
        <ele>671.99298095703</ele>
        <time>2009-09-19T14:34:06Z</time>
      </trkpt>
      <trkpt lat="44.90402" lon="4.6943">
        <ele>672.00402832031</ele>
        <time>2009-09-19T14:34:08Z</time>
      </trkpt>
      <trkpt lat="44.90391" lon="4.6944">
        <ele>672.42102050781</ele>
        <time>2009-09-19T14:34:10Z</time>
      </trkpt>
      <trkpt lat="44.90358" lon="4.69481">
        <ele>672.72601318359</ele>
        <time>2009-09-19T14:34:16Z</time>
      </trkpt>
      <trkpt lat="44.90347" lon="4.69501">
        <ele>672.77697753906</ele>
        <time>2009-09-19T14:34:19Z</time>
      </trkpt>
      <trkpt lat="44.90342" lon="4.69551">
        <ele>673.11700439453</ele>
        <time>2009-09-19T14:34:24Z</time>
      </trkpt>
      <trkpt lat="44.90352" lon="4.69605">
        <ele>673.27301025391</ele>
        <time>2009-09-19T14:34:30Z</time>
      </trkpt>
      <trkpt lat="44.90334" lon="4.69646">
        <ele>673.28198242188</ele>
        <time>2009-09-19T14:34:36Z</time>
      </trkpt>
      <trkpt lat="44.90322" lon="4.6965">
        <ele>673.57598876953</ele>
        <time>2009-09-19T14:34:38Z</time>
      </trkpt>
      <trkpt lat="44.90303" lon="4.69656">
        <ele>674.18499755859</ele>
        <time>2009-09-19T14:34:41Z</time>
      </trkpt>
      <trkpt lat="44.90218" lon="4.69677">
        <ele>675.0009765625</ele>
        <time>2009-09-19T14:34:55Z</time>
      </trkpt>
      <trkpt lat="44.90199" lon="4.6968">
        <ele>675.02801513672</ele>
        <time>2009-09-19T14:34:58Z</time>
      </trkpt>
      <trkpt lat="44.90161" lon="4.69685">
        <ele>675.74798583984</ele>
        <time>2009-09-19T14:35:04Z</time>
      </trkpt>
      <trkpt lat="44.90084" lon="4.6972">
        <ele>676.13800048828</ele>
        <time>2009-09-19T14:35:16Z</time>
      </trkpt>
      <trkpt lat="44.9005" lon="4.6973">
        <ele>676.65997314453</ele>
        <time>2009-09-19T14:35:21Z</time>
      </trkpt>
      <trkpt lat="44.90019" lon="4.6973">
        <ele>677.13299560547</ele>
        <time>2009-09-19T14:35:26Z</time>
      </trkpt>
      <trkpt lat="44.89994" lon="4.69764">
        <ele>677.61499023438</ele>
        <time>2009-09-19T14:35:31Z</time>
      </trkpt>
      <trkpt lat="44.89958" lon="4.69812">
        <ele>677.75897216797</ele>
        <time>2009-09-19T14:35:38Z</time>
      </trkpt>
      <trkpt lat="44.89959" lon="4.69873">
        <ele>678.76800537109</ele>
        <time>2009-09-19T14:35:45Z</time>
      </trkpt>
      <trkpt lat="44.89977" lon="4.69887">
        <ele>679.02502441406</ele>
        <time>2009-09-19T14:35:48Z</time>
      </trkpt>
      <trkpt lat="44.89998" lon="4.699">
        <ele>679.2490234375</ele>
        <time>2009-09-19T14:35:52Z</time>
      </trkpt>
      <trkpt lat="44.90015" lon="4.69915">
        <ele>679.50299072266</ele>
        <time>2009-09-19T14:35:55Z</time>
      </trkpt>
      <trkpt lat="44.90036" lon="4.69938">
        <ele>679.3740234375</ele>
        <time>2009-09-19T14:35:59Z</time>
      </trkpt>
      <trkpt lat="44.90052" lon="4.69971">
        <ele>679.63201904297</ele>
        <time>2009-09-19T14:36:03Z</time>
      </trkpt>
      <trkpt lat="44.90064" lon="4.70034">
        <ele>680.85400390625</ele>
        <time>2009-09-19T14:36:11Z</time>
      </trkpt>
      <trkpt lat="44.90085" lon="4.70038">
        <ele>682.23101806641</ele>
        <time>2009-09-19T14:36:15Z</time>
      </trkpt>
      <trkpt lat="44.90102" lon="4.70033">
        <ele>682.84100341797</ele>
        <time>2009-09-19T14:36:18Z</time>
      </trkpt>
      <trkpt lat="44.90115" lon="4.70031">
        <ele>682.76000976562</ele>
        <time>2009-09-19T14:36:20Z</time>
      </trkpt>
      <trkpt lat="44.90127" lon="4.70032">
        <ele>683.51300048828</ele>
        <time>2009-09-19T14:36:22Z</time>
      </trkpt>
      <trkpt lat="44.90203" lon="4.70069">
        <ele>685.68798828125</ele>
        <time>2009-09-19T14:36:36Z</time>
      </trkpt>
      <trkpt lat="44.9023" lon="4.70083">
        <ele>686.55700683594</ele>
        <time>2009-09-19T14:36:41Z</time>
      </trkpt>
      <trkpt lat="44.90278" lon="4.70102">
        <ele>688.52099609375</ele>
        <time>2009-09-19T14:36:50Z</time>
      </trkpt>
      <trkpt lat="44.90314" lon="4.70133">
        <ele>689.46997070312</ele>
        <time>2009-09-19T14:36:57Z</time>
      </trkpt>
      <trkpt lat="44.90332" lon="4.70175">
        <ele>690.68200683594</ele>
        <time>2009-09-19T14:37:03Z</time>
      </trkpt>
      <trkpt lat="44.90334" lon="4.70197">
        <ele>690.64001464844</ele>
        <time>2009-09-19T14:37:06Z</time>
      </trkpt>
      <trkpt lat="44.90334" lon="4.70231">
        <ele>691.25402832031</ele>
        <time>2009-09-19T14:37:10Z</time>
      </trkpt>
      <trkpt lat="44.90329" lon="4.70257">
        <ele>691.71197509766</ele>
        <time>2009-09-19T14:37:13Z</time>
      </trkpt>
      <trkpt lat="44.90327" lon="4.70273">
        <ele>692.02697753906</ele>
        <time>2009-09-19T14:37:15Z</time>
      </trkpt>
      <trkpt lat="44.90329" lon="4.70338">
        <ele>692.90002441406</ele>
        <time>2009-09-19T14:37:22Z</time>
      </trkpt>
      <trkpt lat="44.90334" lon="4.70372">
        <ele>693.74499511719</ele>
        <time>2009-09-19T14:37:26Z</time>
      </trkpt>
      <trkpt lat="44.90362" lon="4.70404">
        <ele>694.40100097656</ele>
        <time>2009-09-19T14:37:32Z</time>
      </trkpt>
      <trkpt lat="44.90413" lon="4.70427">
        <ele>696.06298828125</ele>
        <time>2009-09-19T14:37:41Z</time>
      </trkpt>
      <trkpt lat="44.9044" lon="4.70452">
        <ele>697.03002929688</ele>
        <time>2009-09-19T14:37:46Z</time>
      </trkpt>
      <trkpt lat="44.90458" lon="4.70462">
        <ele>696.90197753906</ele>
        <time>2009-09-19T14:37:49Z</time>
      </trkpt>
      <trkpt lat="44.90508" lon="4.70451">
        <ele>698.39300537109</ele>
        <time>2009-09-19T14:37:58Z</time>
      </trkpt>
      <trkpt lat="44.90513" lon="4.70455">
        <ele>698.78601074219</ele>
        <time>2009-09-19T14:37:59Z</time>
      </trkpt>
      <trkpt lat="44.90527" lon="4.70465">
        <ele>699.33599853516</ele>
        <time>2009-09-19T14:38:01Z</time>
      </trkpt>
      <trkpt lat="44.9054" lon="4.70499">
        <ele>699.90802001953</ele>
        <time>2009-09-19T14:38:05Z</time>
      </trkpt>
      <trkpt lat="44.90557" lon="4.7064">
        <ele>701.25</ele>
        <time>2009-09-19T14:38:19Z</time>
      </trkpt>
      <trkpt lat="44.90562" lon="4.7069">
        <ele>701.80499267578</ele>
        <time>2009-09-19T14:38:24Z</time>
      </trkpt>
      <trkpt lat="44.90574" lon="4.70729">
        <ele>702.17498779297</ele>
        <time>2009-09-19T14:38:28Z</time>
      </trkpt>
      <trkpt lat="44.90623" lon="4.70829">
        <ele>702.52001953125</ele>
        <time>2009-09-19T14:38:39Z</time>
      </trkpt>
      <trkpt lat="44.90625" lon="4.709">
        <ele>702.93798828125</ele>
        <time>2009-09-19T14:38:45Z</time>
      </trkpt>
      <trkpt lat="44.90628" lon="4.70924">
        <ele>702.90600585938</ele>
        <time>2009-09-19T14:38:47Z</time>
      </trkpt>
      <trkpt lat="44.90631" lon="4.70962">
        <ele>703.30798339844</ele>
        <time>2009-09-19T14:38:50Z</time>
      </trkpt>
      <trkpt lat="44.906" lon="4.71034">
        <ele>703.47802734375</ele>
        <time>2009-09-19T14:38:58Z</time>
      </trkpt>
      <trkpt lat="44.90593" lon="4.71039">
        <ele>703.68103027344</ele>
        <time>2009-09-19T14:38:59Z</time>
      </trkpt>
      <trkpt lat="44.90563" lon="4.71098">
        <ele>704.11297607422</ele>
        <time>2009-09-19T14:39:06Z</time>
      </trkpt>
      <trkpt lat="44.90567" lon="4.71118">
        <ele>704.18298339844</ele>
        <time>2009-09-19T14:39:08Z</time>
      </trkpt>
      <trkpt lat="44.90596" lon="4.71198">
        <ele>704.60198974609</ele>
        <time>2009-09-19T14:39:16Z</time>
      </trkpt>
      <trkpt lat="44.90608" lon="4.71213">
        <ele>704.48498535156</ele>
        <time>2009-09-19T14:39:18Z</time>
      </trkpt>
      <trkpt lat="44.90614" lon="4.71285">
        <ele>705.46997070312</ele>
        <time>2009-09-19T14:39:25Z</time>
      </trkpt>
      <trkpt lat="44.90611" lon="4.71294">
        <ele>705.05603027344</ele>
        <time>2009-09-19T14:39:26Z</time>
      </trkpt>
      <trkpt lat="44.90567" lon="4.71397">
        <ele>705.96697998047</ele>
        <time>2009-09-19T14:39:37Z</time>
      </trkpt>
      <trkpt lat="44.90561" lon="4.71428">
        <ele>706.34497070312</ele>
        <time>2009-09-19T14:39:40Z</time>
      </trkpt>
      <trkpt lat="44.90582" lon="4.7151">
        <ele>706.92700195312</ele>
        <time>2009-09-19T14:39:48Z</time>
      </trkpt>
      <trkpt lat="44.90549" lon="4.71558">
        <ele>707.88000488281</ele>
        <time>2009-09-19T14:39:55Z</time>
      </trkpt>
      <trkpt lat="44.90507" lon="4.71572">
        <ele>706.84997558594</ele>
        <time>2009-09-19T14:40:01Z</time>
      </trkpt>
      <trkpt lat="44.9048" lon="4.71577">
        <ele>706.97998046875</ele>
        <time>2009-09-19T14:40:06Z</time>
      </trkpt>
      <trkpt lat="44.90431" lon="4.71583">
        <ele>705.15997314453</ele>
        <time>2009-09-19T14:40:17Z</time>
      </trkpt>
      <trkpt lat="44.90412" lon="4.71586">
        <ele>705.01501464844</ele>
        <time>2009-09-19T14:40:21Z</time>
      </trkpt>
      <trkpt lat="44.90377" lon="4.71588">
        <ele>703.99200439453</ele>
        <time>2009-09-19T14:40:29Z</time>
      </trkpt>
      <trkpt lat="44.90352" lon="4.71584">
        <ele>703.32501220703</ele>
        <time>2009-09-19T14:40:35Z</time>
      </trkpt>
      <trkpt lat="44.90336" lon="4.71575">
        <ele>703.03497314453</ele>
        <time>2009-09-19T14:40:39Z</time>
      </trkpt>
      <trkpt lat="44.90324" lon="4.71566">
        <ele>702.83099365234</ele>
        <time>2009-09-19T14:40:42Z</time>
      </trkpt>
      <trkpt lat="44.9031" lon="4.71548">
        <ele>702.92401123047</ele>
        <time>2009-09-19T14:40:46Z</time>
      </trkpt>
      <trkpt lat="44.903" lon="4.71532">
        <ele>702.81597900391</ele>
        <time>2009-09-19T14:40:49Z</time>
      </trkpt>
      <trkpt lat="44.9029" lon="4.71516">
        <ele>702.54699707031</ele>
        <time>2009-09-19T14:40:52Z</time>
      </trkpt>
      <trkpt lat="44.90264" lon="4.71473">
        <ele>701.1669921875</ele>
        <time>2009-09-19T14:40:59Z</time>
      </trkpt>
      <trkpt lat="44.90243" lon="4.71436">
        <ele>701.37200927734</ele>
        <time>2009-09-19T14:41:08Z</time>
      </trkpt>
      <trkpt lat="44.90242" lon="4.71434">
        <ele>701.63800048828</ele>
        <time>2009-09-19T14:41:11Z</time>
      </trkpt>
      <trkpt lat="44.90236" lon="4.71433">
        <ele>701.38500976562</ele>
        <time>2009-09-19T14:43:37Z</time>
      </trkpt>
      <trkpt lat="44.90223" lon="4.71435">
        <ele>701.12902832031</ele>
        <time>2009-09-19T14:43:42Z</time>
      </trkpt>
      <trkpt lat="44.90187" lon="4.71449">
        <ele>700.21502685547</ele>
        <time>2009-09-19T14:43:50Z</time>
      </trkpt>
      <trkpt lat="44.90153" lon="4.71462">
        <ele>699.96697998047</ele>
        <time>2009-09-19T14:43:56Z</time>
      </trkpt>
      <trkpt lat="44.90115" lon="4.71478">
        <ele>699.34600830078</ele>
        <time>2009-09-19T14:44:02Z</time>
      </trkpt>
      <trkpt lat="44.9009" lon="4.71482">
        <ele>699.291015625</ele>
        <time>2009-09-19T14:44:06Z</time>
      </trkpt>
      <trkpt lat="44.89985" lon="4.71549">
        <ele>698.458984375</ele>
        <time>2009-09-19T14:44:24Z</time>
      </trkpt>
      <trkpt lat="44.89901" lon="4.71575">
        <ele>697.36901855469</ele>
        <time>2009-09-19T14:44:36Z</time>
      </trkpt>
      <trkpt lat="44.89858" lon="4.71584">
        <ele>697.48999023438</ele>
        <time>2009-09-19T14:44:42Z</time>
      </trkpt>
      <trkpt lat="44.89831" lon="4.71614">
        <ele>696.82897949219</ele>
        <time>2009-09-19T14:44:47Z</time>
      </trkpt>
      <trkpt lat="44.8981" lon="4.71662">
        <ele>696.98199462891</ele>
        <time>2009-09-19T14:44:53Z</time>
      </trkpt>
      <trkpt lat="44.89792" lon="4.71734">
        <ele>696.19201660156</ele>
        <time>2009-09-19T14:45:01Z</time>
      </trkpt>
      <trkpt lat="44.89745" lon="4.71785">
        <ele>695.40600585938</ele>
        <time>2009-09-19T14:45:10Z</time>
      </trkpt>
      <trkpt lat="44.89717" lon="4.71766">
        <ele>695.92700195312</ele>
        <time>2009-09-19T14:45:15Z</time>
      </trkpt>
      <trkpt lat="44.89677" lon="4.71735">
        <ele>695.90997314453</ele>
        <time>2009-09-19T14:45:22Z</time>
      </trkpt>
      <trkpt lat="44.89618" lon="4.7171">
        <ele>695.30499267578</ele>
        <time>2009-09-19T14:45:30Z</time>
      </trkpt>
      <trkpt lat="44.89582" lon="4.71704">
        <ele>695.02301025391</ele>
        <time>2009-09-19T14:45:35Z</time>
      </trkpt>
      <trkpt lat="44.89521" lon="4.71699">
        <ele>694.38598632812</ele>
        <time>2009-09-19T14:45:43Z</time>
      </trkpt>
      <trkpt lat="44.89498" lon="4.71702">
        <ele>694.46197509766</ele>
        <time>2009-09-19T14:45:46Z</time>
      </trkpt>
      <trkpt lat="44.89473" lon="4.7174">
        <ele>692.70300292969</ele>
        <time>2009-09-19T14:45:51Z</time>
      </trkpt>
      <trkpt lat="44.89473" lon="4.7178">
        <ele>690.61700439453</ele>
        <time>2009-09-19T14:45:54Z</time>
      </trkpt>
      <trkpt lat="44.89476" lon="4.71832">
        <ele>689.44299316406</ele>
        <time>2009-09-19T14:45:58Z</time>
      </trkpt>
      <trkpt lat="44.8947" lon="4.71882">
        <ele>686.27600097656</ele>
        <time>2009-09-19T14:46:02Z</time>
      </trkpt>
      <trkpt lat="44.89439" lon="4.71918">
        <ele>684.90399169922</ele>
        <time>2009-09-19T14:46:06Z</time>
      </trkpt>
      <trkpt lat="44.89409" lon="4.71935">
        <ele>682.94201660156</ele>
        <time>2009-09-19T14:46:09Z</time>
      </trkpt>
      <trkpt lat="44.89362" lon="4.72001">
        <ele>678.42199707031</ele>
        <time>2009-09-19T14:46:15Z</time>
      </trkpt>
      <trkpt lat="44.89346" lon="4.72023">
        <ele>677.09600830078</ele>
        <time>2009-09-19T14:46:17Z</time>
      </trkpt>
      <trkpt lat="44.89336" lon="4.72069">
        <ele>675.65301513672</ele>
        <time>2009-09-19T14:46:20Z</time>
      </trkpt>
      <trkpt lat="44.89339" lon="4.72084">
        <ele>674.80999755859</ele>
        <time>2009-09-19T14:46:21Z</time>
      </trkpt>
      <trkpt lat="44.89344" lon="4.72148">
        <ele>671.76000976562</ele>
        <time>2009-09-19T14:46:25Z</time>
      </trkpt>
      <trkpt lat="44.89344" lon="4.72165">
        <ele>671.36798095703</ele>
        <time>2009-09-19T14:46:26Z</time>
      </trkpt>
      <trkpt lat="44.89357" lon="4.72303">
        <ele>666.47998046875</ele>
        <time>2009-09-19T14:46:35Z</time>
      </trkpt>
      <trkpt lat="44.89372" lon="4.72373">
        <ele>664.63897705078</ele>
        <time>2009-09-19T14:46:40Z</time>
      </trkpt>
      <trkpt lat="44.89342" lon="4.72395">
        <ele>663.00500488281</ele>
        <time>2009-09-19T14:46:45Z</time>
      </trkpt>
      <trkpt lat="44.89325" lon="4.72388">
        <ele>662.16400146484</ele>
        <time>2009-09-19T14:46:47Z</time>
      </trkpt>
      <trkpt lat="44.89218" lon="4.72328">
        <ele>656.71899414062</ele>
        <time>2009-09-19T14:46:59Z</time>
      </trkpt>
      <trkpt lat="44.89188" lon="4.72315">
        <ele>655.35400390625</ele>
        <time>2009-09-19T14:47:02Z</time>
      </trkpt>
      <trkpt lat="44.89144" lon="4.7232">
        <ele>653.75897216797</ele>
        <time>2009-09-19T14:47:06Z</time>
      </trkpt>
      <trkpt lat="44.89134" lon="4.72325">
        <ele>653.27197265625</ele>
        <time>2009-09-19T14:47:07Z</time>
      </trkpt>
      <trkpt lat="44.89098" lon="4.72341">
        <ele>651.05499267578</ele>
        <time>2009-09-19T14:47:11Z</time>
      </trkpt>
      <trkpt lat="44.89067" lon="4.7237">
        <ele>649.78698730469</ele>
        <time>2009-09-19T14:47:14Z</time>
      </trkpt>
      <trkpt lat="44.89043" lon="4.72403">
        <ele>647.94500732422</ele>
        <time>2009-09-19T14:47:17Z</time>
      </trkpt>
      <trkpt lat="44.89032" lon="4.72467">
        <ele>646.23999023438</ele>
        <time>2009-09-19T14:47:21Z</time>
      </trkpt>
      <trkpt lat="44.89033" lon="4.72498">
        <ele>645.04602050781</ele>
        <time>2009-09-19T14:47:23Z</time>
      </trkpt>
      <trkpt lat="44.89036" lon="4.72527">
        <ele>644.08502197266</ele>
        <time>2009-09-19T14:47:25Z</time>
      </trkpt>
      <trkpt lat="44.89003" lon="4.72576">
        <ele>641.48797607422</ele>
        <time>2009-09-19T14:47:30Z</time>
      </trkpt>
      <trkpt lat="44.88992" lon="4.72578">
        <ele>641.03399658203</ele>
        <time>2009-09-19T14:47:31Z</time>
      </trkpt>
      <trkpt lat="44.88935" lon="4.72583">
        <ele>638.42999267578</ele>
        <time>2009-09-19T14:47:36Z</time>
      </trkpt>
      <trkpt lat="44.88901" lon="4.7259">
        <ele>637.17999267578</ele>
        <time>2009-09-19T14:47:39Z</time>
      </trkpt>
      <trkpt lat="44.88841" lon="4.72643">
        <ele>633.85302734375</ele>
        <time>2009-09-19T14:47:45Z</time>
      </trkpt>
      <trkpt lat="44.88809" lon="4.72695">
        <ele>631.09899902344</ele>
        <time>2009-09-19T14:47:49Z</time>
      </trkpt>
      <trkpt lat="44.88781" lon="4.7275">
        <ele>629.34600830078</ele>
        <time>2009-09-19T14:47:53Z</time>
      </trkpt>
      <trkpt lat="44.88745" lon="4.7281">
        <ele>627.90502929688</ele>
        <time>2009-09-19T14:47:58Z</time>
      </trkpt>
      <trkpt lat="44.88707" lon="4.7284">
        <ele>627.39202880859</ele>
        <time>2009-09-19T14:48:02Z</time>
      </trkpt>
      <trkpt lat="44.88599" lon="4.72909">
        <ele>622.26300048828</ele>
        <time>2009-09-19T14:48:13Z</time>
      </trkpt>
      <trkpt lat="44.88562" lon="4.72938">
        <ele>620.81701660156</ele>
        <time>2009-09-19T14:48:17Z</time>
      </trkpt>
      <trkpt lat="44.88553" lon="4.72946">
        <ele>620.32800292969</ele>
        <time>2009-09-19T14:48:18Z</time>
      </trkpt>
      <trkpt lat="44.88538" lon="4.73025">
        <ele>618.37200927734</ele>
        <time>2009-09-19T14:48:24Z</time>
      </trkpt>
      <trkpt lat="44.88544" lon="4.73055">
        <ele>617.90600585938</ele>
        <time>2009-09-19T14:48:26Z</time>
      </trkpt>
      <trkpt lat="44.8853" lon="4.73143">
        <ele>614.71801757812</ele>
        <time>2009-09-19T14:48:32Z</time>
      </trkpt>
      <trkpt lat="44.88508" lon="4.73178">
        <ele>612.99298095703</ele>
        <time>2009-09-19T14:48:35Z</time>
      </trkpt>
      <trkpt lat="44.88493" lon="4.732">
        <ele>612.96600341797</ele>
        <time>2009-09-19T14:48:37Z</time>
      </trkpt>
      <trkpt lat="44.88492" lon="4.73269">
        <ele>611.16198730469</ele>
        <time>2009-09-19T14:48:42Z</time>
      </trkpt>
      <trkpt lat="44.88504" lon="4.73295">
        <ele>609.38000488281</ele>
        <time>2009-09-19T14:48:44Z</time>
      </trkpt>
      <trkpt lat="44.88583" lon="4.73453">
        <ele>603.7490234375</ele>
        <time>2009-09-19T14:48:56Z</time>
      </trkpt>
      <trkpt lat="44.88564" lon="4.73519">
        <ele>600.96099853516</ele>
        <time>2009-09-19T14:49:01Z</time>
      </trkpt>
      <trkpt lat="44.88554" lon="4.73524">
        <ele>600.95397949219</ele>
        <time>2009-09-19T14:49:02Z</time>
      </trkpt>
      <trkpt lat="44.88453" lon="4.73586">
        <ele>597.5419921875</ele>
        <time>2009-09-19T14:49:12Z</time>
      </trkpt>
      <trkpt lat="44.88424" lon="4.73632">
        <ele>595.23498535156</ele>
        <time>2009-09-19T14:49:16Z</time>
      </trkpt>
      <trkpt lat="44.8841" lon="4.73688">
        <ele>594.33697509766</ele>
        <time>2009-09-19T14:49:20Z</time>
      </trkpt>
      <trkpt lat="44.88347" lon="4.73733">
        <ele>591.583984375</ele>
        <time>2009-09-19T14:49:27Z</time>
      </trkpt>
      <trkpt lat="44.8824" lon="4.73791">
        <ele>587.48999023438</ele>
        <time>2009-09-19T14:49:37Z</time>
      </trkpt>
      <trkpt lat="44.88208" lon="4.73806">
        <ele>586.13598632812</ele>
        <time>2009-09-19T14:49:40Z</time>
      </trkpt>
      <trkpt lat="44.88166" lon="4.73828">
        <ele>584.13500976562</ele>
        <time>2009-09-19T14:49:44Z</time>
      </trkpt>
      <trkpt lat="44.88123" lon="4.73849">
        <ele>582.70697021484</ele>
        <time>2009-09-19T14:49:48Z</time>
      </trkpt>
      <trkpt lat="44.88085" lon="4.73899">
        <ele>581.78198242188</ele>
        <time>2009-09-19T14:49:53Z</time>
      </trkpt>
      <trkpt lat="44.88097" lon="4.73968">
        <ele>580.54998779297</ele>
        <time>2009-09-19T14:49:58Z</time>
      </trkpt>
      <trkpt lat="44.88123" lon="4.73995">
        <ele>579.16998291016</ele>
        <time>2009-09-19T14:50:01Z</time>
      </trkpt>
      <trkpt lat="44.88243" lon="4.74046">
        <ele>574.57397460938</ele>
        <time>2009-09-19T14:50:13Z</time>
      </trkpt>
      <trkpt lat="44.8832" lon="4.74074">
        <ele>571.48999023438</ele>
        <time>2009-09-19T14:50:21Z</time>
      </trkpt>
      <trkpt lat="44.88338" lon="4.74076">
        <ele>571.17102050781</ele>
        <time>2009-09-19T14:50:23Z</time>
      </trkpt>
      <trkpt lat="44.88379" lon="4.74059">
        <ele>570.08898925781</ele>
        <time>2009-09-19T14:50:27Z</time>
      </trkpt>
      <trkpt lat="44.88401" lon="4.74051">
        <ele>568.88702392578</ele>
        <time>2009-09-19T14:50:29Z</time>
      </trkpt>
      <trkpt lat="44.88461" lon="4.74052">
        <ele>567.30700683594</ele>
        <time>2009-09-19T14:50:35Z</time>
      </trkpt>
      <trkpt lat="44.8848" lon="4.74096">
        <ele>565.39898681641</ele>
        <time>2009-09-19T14:50:41Z</time>
      </trkpt>
      <trkpt lat="44.88471" lon="4.74129">
        <ele>564.28497314453</ele>
        <time>2009-09-19T14:50:44Z</time>
      </trkpt>
      <trkpt lat="44.88461" lon="4.74166">
        <ele>563.68499755859</ele>
        <time>2009-09-19T14:50:47Z</time>
      </trkpt>
      <trkpt lat="44.88448" lon="4.74204">
        <ele>562.94299316406</ele>
        <time>2009-09-19T14:50:50Z</time>
      </trkpt>
      <trkpt lat="44.88401" lon="4.74273">
        <ele>559.57000732422</ele>
        <time>2009-09-19T14:50:57Z</time>
      </trkpt>
      <trkpt lat="44.88313" lon="4.74321">
        <ele>556.90399169922</ele>
        <time>2009-09-19T14:51:06Z</time>
      </trkpt>
      <trkpt lat="44.88257" lon="4.74347">
        <ele>554.67199707031</ele>
        <time>2009-09-19T14:51:12Z</time>
      </trkpt>
      <trkpt lat="44.88141" lon="4.74344">
        <ele>551.31597900391</ele>
        <time>2009-09-19T14:51:23Z</time>
      </trkpt>
      <trkpt lat="44.8809" lon="4.74359">
        <ele>549.98400878906</ele>
        <time>2009-09-19T14:51:28Z</time>
      </trkpt>
      <trkpt lat="44.88028" lon="4.74435">
        <ele>547.42297363281</ele>
        <time>2009-09-19T14:51:36Z</time>
      </trkpt>
      <trkpt lat="44.88039" lon="4.74496">
        <ele>546.33801269531</ele>
        <time>2009-09-19T14:51:41Z</time>
      </trkpt>
      <trkpt lat="44.88054" lon="4.74513">
        <ele>545.96801757812</ele>
        <time>2009-09-19T14:51:43Z</time>
      </trkpt>
      <trkpt lat="44.88077" lon="4.74536">
        <ele>544.83001708984</ele>
        <time>2009-09-19T14:51:46Z</time>
      </trkpt>
      <trkpt lat="44.88091" lon="4.74557">
        <ele>543.82098388672</ele>
        <time>2009-09-19T14:51:48Z</time>
      </trkpt>
      <trkpt lat="44.88075" lon="4.74597">
        <ele>542.88098144531</ele>
        <time>2009-09-19T14:51:52Z</time>
      </trkpt>
      <trkpt lat="44.88031" lon="4.74656">
        <ele>541.166015625</ele>
        <time>2009-09-19T14:51:58Z</time>
      </trkpt>
      <trkpt lat="44.88048" lon="4.74735">
        <ele>538.39501953125</ele>
        <time>2009-09-19T14:52:04Z</time>
      </trkpt>
      <trkpt lat="44.88092" lon="4.74796">
        <ele>536.68402099609</ele>
        <time>2009-09-19T14:52:10Z</time>
      </trkpt>
      <trkpt lat="44.88078" lon="4.7484">
        <ele>536.23400878906</ele>
        <time>2009-09-19T14:52:15Z</time>
      </trkpt>
      <trkpt lat="44.88068" lon="4.74845">
        <ele>535.86700439453</ele>
        <time>2009-09-19T14:52:16Z</time>
      </trkpt>
      <trkpt lat="44.88023" lon="4.74866">
        <ele>533.94097900391</ele>
        <time>2009-09-19T14:52:21Z</time>
      </trkpt>
      <trkpt lat="44.87994" lon="4.74879">
        <ele>533.32299804688</ele>
        <time>2009-09-19T14:52:24Z</time>
      </trkpt>
      <trkpt lat="44.8793" lon="4.74896">
        <ele>531.01898193359</ele>
        <time>2009-09-19T14:52:31Z</time>
      </trkpt>
      <trkpt lat="44.87909" lon="4.74966">
        <ele>529.90100097656</ele>
        <time>2009-09-19T14:52:37Z</time>
      </trkpt>
      <trkpt lat="44.87938" lon="4.75005">
        <ele>528.73400878906</ele>
        <time>2009-09-19T14:52:41Z</time>
      </trkpt>
      <trkpt lat="44.88021" lon="4.75062">
        <ele>526.77099609375</ele>
        <time>2009-09-19T14:52:50Z</time>
      </trkpt>
      <trkpt lat="44.88012" lon="4.75131">
        <ele>524.45501708984</ele>
        <time>2009-09-19T14:52:56Z</time>
      </trkpt>
      <trkpt lat="44.87987" lon="4.75157">
        <ele>523.96197509766</ele>
        <time>2009-09-19T14:52:59Z</time>
      </trkpt>
      <trkpt lat="44.87909" lon="4.75221">
        <ele>520.88201904297</ele>
        <time>2009-09-19T14:53:08Z</time>
      </trkpt>
      <trkpt lat="44.87877" lon="4.75262">
        <ele>519.78002929688</ele>
        <time>2009-09-19T14:53:12Z</time>
      </trkpt>
      <trkpt lat="44.87878" lon="4.75348">
        <ele>518.06597900391</ele>
        <time>2009-09-19T14:53:18Z</time>
      </trkpt>
      <trkpt lat="44.87894" lon="4.75367">
        <ele>517.47497558594</ele>
        <time>2009-09-19T14:53:20Z</time>
      </trkpt>
      <trkpt lat="44.87921" lon="4.75393">
        <ele>516.49597167969</ele>
        <time>2009-09-19T14:53:23Z</time>
      </trkpt>
      <trkpt lat="44.87936" lon="4.75471">
        <ele>514.82202148438</ele>
        <time>2009-09-19T14:53:29Z</time>
      </trkpt>
      <trkpt lat="44.87942" lon="4.75499">
        <ele>513.99499511719</ele>
        <time>2009-09-19T14:53:31Z</time>
      </trkpt>
      <trkpt lat="44.87952" lon="4.75526">
        <ele>513.38000488281</ele>
        <time>2009-09-19T14:53:33Z</time>
      </trkpt>
      <trkpt lat="44.87962" lon="4.75585">
        <ele>511.48001098633</ele>
        <time>2009-09-19T14:53:37Z</time>
      </trkpt>
      <trkpt lat="44.8793" lon="4.75622">
        <ele>510.85000610352</ele>
        <time>2009-09-19T14:53:41Z</time>
      </trkpt>
      <trkpt lat="44.87853" lon="4.75659">
        <ele>509.45700073242</ele>
        <time>2009-09-19T14:53:50Z</time>
      </trkpt>
      <trkpt lat="44.87818" lon="4.75674">
        <ele>509.0710144043</ele>
        <time>2009-09-19T14:53:54Z</time>
      </trkpt>
      <trkpt lat="44.87797" lon="4.75725">
        <ele>507.3210144043</ele>
        <time>2009-09-19T14:54:00Z</time>
      </trkpt>
      <trkpt lat="44.87823" lon="4.75734">
        <ele>505.16799926758</ele>
        <time>2009-09-19T14:54:03Z</time>
      </trkpt>
      <trkpt lat="44.87877" lon="4.75732">
        <ele>502.22100830078</ele>
        <time>2009-09-19T14:54:08Z</time>
      </trkpt>
      <trkpt lat="44.87919" lon="4.75752">
        <ele>499.53500366211</ele>
        <time>2009-09-19T14:54:12Z</time>
      </trkpt>
      <trkpt lat="44.87927" lon="4.75763">
        <ele>498.85299682617</ele>
        <time>2009-09-19T14:54:13Z</time>
      </trkpt>
      <trkpt lat="44.87946" lon="4.75787">
        <ele>497.8630065918</ele>
        <time>2009-09-19T14:54:15Z</time>
      </trkpt>
      <trkpt lat="44.87965" lon="4.75801">
        <ele>496.39801025391</ele>
        <time>2009-09-19T14:54:17Z</time>
      </trkpt>
      <trkpt lat="44.87987" lon="4.75802">
        <ele>495.68600463867</ele>
        <time>2009-09-19T14:54:19Z</time>
      </trkpt>
      <trkpt lat="44.8803" lon="4.7578">
        <ele>494.14898681641</ele>
        <time>2009-09-19T14:54:23Z</time>
      </trkpt>
      <trkpt lat="44.8805" lon="4.75837">
        <ele>491.10598754883</ele>
        <time>2009-09-19T14:54:29Z</time>
      </trkpt>
      <trkpt lat="44.88033" lon="4.75894">
        <ele>489.14199829102</ele>
        <time>2009-09-19T14:54:33Z</time>
      </trkpt>
      <trkpt lat="44.87999" lon="4.75939">
        <ele>487.26699829102</ele>
        <time>2009-09-19T14:54:37Z</time>
      </trkpt>
      <trkpt lat="44.87967" lon="4.75969">
        <ele>485.17199707031</ele>
        <time>2009-09-19T14:54:40Z</time>
      </trkpt>
      <trkpt lat="44.87942" lon="4.76008">
        <ele>483.59100341797</ele>
        <time>2009-09-19T14:54:43Z</time>
      </trkpt>
      <trkpt lat="44.87931" lon="4.76095">
        <ele>480.98199462891</ele>
        <time>2009-09-19T14:54:48Z</time>
      </trkpt>
      <trkpt lat="44.87958" lon="4.76163">
        <ele>478.23999023438</ele>
        <time>2009-09-19T14:54:53Z</time>
      </trkpt>
      <trkpt lat="44.87986" lon="4.76192">
        <ele>476.71499633789</ele>
        <time>2009-09-19T14:54:56Z</time>
      </trkpt>
      <trkpt lat="44.88003" lon="4.76272">
        <ele>474.18798828125</ele>
        <time>2009-09-19T14:55:01Z</time>
      </trkpt>
      <trkpt lat="44.87996" lon="4.76339">
        <ele>471.87100219727</ele>
        <time>2009-09-19T14:55:05Z</time>
      </trkpt>
      <trkpt lat="44.87975" lon="4.76438">
        <ele>468.94500732422</ele>
        <time>2009-09-19T14:55:11Z</time>
      </trkpt>
      <trkpt lat="44.87951" lon="4.76551">
        <ele>464.96899414062</ele>
        <time>2009-09-19T14:55:18Z</time>
      </trkpt>
      <trkpt lat="44.87939" lon="4.76599">
        <ele>463.92999267578</ele>
        <time>2009-09-19T14:55:21Z</time>
      </trkpt>
      <trkpt lat="44.87916" lon="4.76654">
        <ele>461.94100952148</ele>
        <time>2009-09-19T14:55:25Z</time>
      </trkpt>
      <trkpt lat="44.87823" lon="4.76788">
        <ele>458.87100219727</ele>
        <time>2009-09-19T14:55:37Z</time>
      </trkpt>
      <trkpt lat="44.87807" lon="4.76809">
        <ele>458.0950012207</ele>
        <time>2009-09-19T14:55:39Z</time>
      </trkpt>
      <trkpt lat="44.8777" lon="4.76843">
        <ele>455.75799560547</ele>
        <time>2009-09-19T14:55:43Z</time>
      </trkpt>
      <trkpt lat="44.87705" lon="4.76912">
        <ele>451.8219909668</ele>
        <time>2009-09-19T14:55:50Z</time>
      </trkpt>
      <trkpt lat="44.87709" lon="4.76983">
        <ele>449.7200012207</ele>
        <time>2009-09-19T14:55:55Z</time>
      </trkpt>
      <trkpt lat="44.87717" lon="4.76994">
        <ele>449.52398681641</ele>
        <time>2009-09-19T14:55:56Z</time>
      </trkpt>
      <trkpt lat="44.8772" lon="4.77058">
        <ele>446.86401367188</ele>
        <time>2009-09-19T14:56:01Z</time>
      </trkpt>
      <trkpt lat="44.8767" lon="4.77096">
        <ele>445.15100097656</ele>
        <time>2009-09-19T14:56:06Z</time>
      </trkpt>
      <trkpt lat="44.87643" lon="4.7713">
        <ele>443.70999145508</ele>
        <time>2009-09-19T14:56:09Z</time>
      </trkpt>
      <trkpt lat="44.87633" lon="4.77221">
        <ele>441.22399902344</ele>
        <time>2009-09-19T14:56:15Z</time>
      </trkpt>
      <trkpt lat="44.8764" lon="4.77236">
        <ele>441.06399536133</ele>
        <time>2009-09-19T14:56:16Z</time>
      </trkpt>
      <trkpt lat="44.87667" lon="4.77294">
        <ele>438.89700317383</ele>
        <time>2009-09-19T14:56:20Z</time>
      </trkpt>
      <trkpt lat="44.87685" lon="4.77375">
        <ele>436.50100708008</ele>
        <time>2009-09-19T14:56:25Z</time>
      </trkpt>
      <trkpt lat="44.87692" lon="4.77425">
        <ele>434.33999633789</ele>
        <time>2009-09-19T14:56:28Z</time>
      </trkpt>
      <trkpt lat="44.87683" lon="4.77481">
        <ele>434.01599121094</ele>
        <time>2009-09-19T14:56:32Z</time>
      </trkpt>
      <trkpt lat="44.87682" lon="4.77493">
        <ele>434.45300292969</ele>
        <time>2009-09-19T14:56:39Z</time>
      </trkpt>
      <trkpt lat="44.87713" lon="4.77529">
        <ele>432.15899658203</ele>
        <time>2009-09-19T14:56:56Z</time>
      </trkpt>
      <trkpt lat="44.87722" lon="4.77539">
        <ele>431.40899658203</ele>
        <time>2009-09-19T14:56:58Z</time>
      </trkpt>
      <trkpt lat="44.87732" lon="4.77553">
        <ele>430.66799926758</ele>
        <time>2009-09-19T14:57:00Z</time>
      </trkpt>
      <trkpt lat="44.8774" lon="4.77569">
        <ele>430.00799560547</ele>
        <time>2009-09-19T14:57:02Z</time>
      </trkpt>
      <trkpt lat="44.87746" lon="4.77602">
        <ele>428.50900268555</ele>
        <time>2009-09-19T14:57:05Z</time>
      </trkpt>
      <trkpt lat="44.87753" lon="4.77705">
        <ele>424.20999145508</ele>
        <time>2009-09-19T14:57:13Z</time>
      </trkpt>
      <trkpt lat="44.87753" lon="4.77735">
        <ele>422.9049987793</ele>
        <time>2009-09-19T14:57:15Z</time>
      </trkpt>
      <trkpt lat="44.87768" lon="4.77772">
        <ele>421.15701293945</ele>
        <time>2009-09-19T14:57:18Z</time>
      </trkpt>
      <trkpt lat="44.87777" lon="4.77779">
        <ele>420.48400878906</ele>
        <time>2009-09-19T14:57:19Z</time>
      </trkpt>
      <trkpt lat="44.87788" lon="4.77837">
        <ele>419.07998657227</ele>
        <time>2009-09-19T14:57:24Z</time>
      </trkpt>
      <trkpt lat="44.87801" lon="4.77878">
        <ele>416.81698608398</ele>
        <time>2009-09-19T14:57:27Z</time>
      </trkpt>
      <trkpt lat="44.87856" lon="4.77958">
        <ele>412.04998779297</ele>
        <time>2009-09-19T14:57:35Z</time>
      </trkpt>
      <trkpt lat="44.87866" lon="4.78003">
        <ele>410.35000610352</ele>
        <time>2009-09-19T14:57:39Z</time>
      </trkpt>
      <trkpt lat="44.87881" lon="4.78045">
        <ele>407.84201049805</ele>
        <time>2009-09-19T14:57:43Z</time>
      </trkpt>
      <trkpt lat="44.87931" lon="4.78091">
        <ele>405.11898803711</ele>
        <time>2009-09-19T14:57:49Z</time>
      </trkpt>
      <trkpt lat="44.87949" lon="4.78107">
        <ele>403.93301391602</ele>
        <time>2009-09-19T14:57:51Z</time>
      </trkpt>
      <trkpt lat="44.87965" lon="4.78127">
        <ele>402.79400634766</ele>
        <time>2009-09-19T14:57:53Z</time>
      </trkpt>
      <trkpt lat="44.87952" lon="4.78203">
        <ele>399.3450012207</ele>
        <time>2009-09-19T14:57:58Z</time>
      </trkpt>
      <trkpt lat="44.87933" lon="4.78247">
        <ele>396.81900024414</ele>
        <time>2009-09-19T14:58:03Z</time>
      </trkpt>
      <trkpt lat="44.8796" lon="4.78254">
        <ele>395.23699951172</ele>
        <time>2009-09-19T14:58:06Z</time>
      </trkpt>
      <trkpt lat="44.88015" lon="4.78269">
        <ele>391.78500366211</ele>
        <time>2009-09-19T14:58:12Z</time>
      </trkpt>
      <trkpt lat="44.88052" lon="4.78294">
        <ele>389.7919921875</ele>
        <time>2009-09-19T14:58:16Z</time>
      </trkpt>
      <trkpt lat="44.88078" lon="4.7832">
        <ele>387.94100952148</ele>
        <time>2009-09-19T14:58:19Z</time>
      </trkpt>
      <trkpt lat="44.88111" lon="4.78368">
        <ele>385.21200561523</ele>
        <time>2009-09-19T14:58:23Z</time>
      </trkpt>
      <trkpt lat="44.88129" lon="4.7841">
        <ele>383.27801513672</ele>
        <time>2009-09-19T14:58:26Z</time>
      </trkpt>
      <trkpt lat="44.88136" lon="4.78467">
        <ele>380.82000732422</ele>
        <time>2009-09-19T14:58:30Z</time>
      </trkpt>
      <trkpt lat="44.88164" lon="4.78483">
        <ele>378.41598510742</ele>
        <time>2009-09-19T14:58:33Z</time>
      </trkpt>
      <trkpt lat="44.88184" lon="4.78488">
        <ele>377.11801147461</ele>
        <time>2009-09-19T14:58:35Z</time>
      </trkpt>
      <trkpt lat="44.88203" lon="4.78493">
        <ele>376.45001220703</ele>
        <time>2009-09-19T14:58:37Z</time>
      </trkpt>
      <trkpt lat="44.88236" lon="4.78545">
        <ele>373.53399658203</ele>
        <time>2009-09-19T14:58:43Z</time>
      </trkpt>
      <trkpt lat="44.88267" lon="4.78534">
        <ele>372.07901000977</ele>
        <time>2009-09-19T14:58:47Z</time>
      </trkpt>
      <trkpt lat="44.88282" lon="4.78523">
        <ele>371.41198730469</ele>
        <time>2009-09-19T14:58:49Z</time>
      </trkpt>
      <trkpt lat="44.88317" lon="4.78518">
        <ele>369.40899658203</ele>
        <time>2009-09-19T14:58:53Z</time>
      </trkpt>
      <trkpt lat="44.88361" lon="4.78512">
        <ele>367.61099243164</ele>
        <time>2009-09-19T14:58:58Z</time>
      </trkpt>
      <trkpt lat="44.88395" lon="4.78538">
        <ele>365.37701416016</ele>
        <time>2009-09-19T14:59:02Z</time>
      </trkpt>
      <trkpt lat="44.88411" lon="4.78557">
        <ele>364.5419921875</ele>
        <time>2009-09-19T14:59:04Z</time>
      </trkpt>
      <trkpt lat="44.8842" lon="4.78567">
        <ele>363.85900878906</ele>
        <time>2009-09-19T14:59:05Z</time>
      </trkpt>
      <trkpt lat="44.88455" lon="4.78622">
        <ele>362.35800170898</ele>
        <time>2009-09-19T14:59:11Z</time>
      </trkpt>
      <trkpt lat="44.8846" lon="4.7859">
        <ele>360.05499267578</ele>
        <time>2009-09-19T14:59:15Z</time>
      </trkpt>
      <trkpt lat="44.88427" lon="4.78553">
        <ele>358.11801147461</ele>
        <time>2009-09-19T14:59:20Z</time>
      </trkpt>
      <trkpt lat="44.88403" lon="4.78516">
        <ele>356.33499145508</ele>
        <time>2009-09-19T14:59:24Z</time>
      </trkpt>
      <trkpt lat="44.8839" lon="4.785">
        <ele>355.30200195312</ele>
        <time>2009-09-19T14:59:26Z</time>
      </trkpt>
      <trkpt lat="44.88374" lon="4.78492">
        <ele>354.36499023438</ele>
        <time>2009-09-19T14:59:28Z</time>
      </trkpt>
      <trkpt lat="44.88372" lon="4.78451">
        <ele>351.97799682617</ele>
        <time>2009-09-19T14:59:33Z</time>
      </trkpt>
      <trkpt lat="44.8839" lon="4.78446">
        <ele>351.17001342773</ele>
        <time>2009-09-19T14:59:35Z</time>
      </trkpt>
      <trkpt lat="44.88417" lon="4.78444">
        <ele>350.16598510742</ele>
        <time>2009-09-19T14:59:38Z</time>
      </trkpt>
      <trkpt lat="44.88453" lon="4.78441">
        <ele>349.12298583984</ele>
        <time>2009-09-19T14:59:42Z</time>
      </trkpt>
      <trkpt lat="44.88483" lon="4.78468">
        <ele>348.85699462891</ele>
        <time>2009-09-19T14:59:47Z</time>
      </trkpt>
      <trkpt lat="44.88502" lon="4.7852">
        <ele>348.84899902344</ele>
        <time>2009-09-19T14:59:52Z</time>
      </trkpt>
      <trkpt lat="44.88528" lon="4.7855">
        <ele>348.4169921875</ele>
        <time>2009-09-19T14:59:56Z</time>
      </trkpt>
      <trkpt lat="44.88583" lon="4.78624">
        <ele>348.89801025391</ele>
        <time>2009-09-19T15:00:05Z</time>
      </trkpt>
      <trkpt lat="44.88602" lon="4.7866">
        <ele>349.19900512695</ele>
        <time>2009-09-19T15:00:09Z</time>
      </trkpt>
      <trkpt lat="44.88657" lon="4.78761">
        <ele>349.82400512695</ele>
        <time>2009-09-19T15:00:21Z</time>
      </trkpt>
      <trkpt lat="44.88694" lon="4.7887">
        <ele>350.90301513672</ele>
        <time>2009-09-19T15:00:33Z</time>
      </trkpt>
      <trkpt lat="44.88704" lon="4.78914">
        <ele>352.13800048828</ele>
        <time>2009-09-19T15:00:38Z</time>
      </trkpt>
      <trkpt lat="44.88717" lon="4.79013">
        <ele>353.89498901367</ele>
        <time>2009-09-19T15:00:49Z</time>
      </trkpt>
      <trkpt lat="44.88733" lon="4.79051">
        <ele>354.83801269531</ele>
        <time>2009-09-19T15:00:54Z</time>
      </trkpt>
      <trkpt lat="44.88752" lon="4.79077">
        <ele>355.68701171875</ele>
        <time>2009-09-19T15:00:58Z</time>
      </trkpt>
      <trkpt lat="44.88789" lon="4.7908">
        <ele>356.63900756836</ele>
        <time>2009-09-19T15:01:05Z</time>
      </trkpt>
      <trkpt lat="44.88798" lon="4.79067">
        <ele>356.78100585938</ele>
        <time>2009-09-19T15:01:07Z</time>
      </trkpt>
      <trkpt lat="44.88822" lon="4.79025">
        <ele>357.64498901367</ele>
        <time>2009-09-19T15:01:13Z</time>
      </trkpt>
      <trkpt lat="44.88857" lon="4.79022">
        <ele>358.25100708008</ele>
        <time>2009-09-19T15:01:20Z</time>
      </trkpt>
      <trkpt lat="44.88853" lon="4.79053">
        <ele>359.49200439453</ele>
        <time>2009-09-19T15:01:24Z</time>
      </trkpt>
      <trkpt lat="44.88846" lon="4.79066">
        <ele>360.02801513672</ele>
        <time>2009-09-19T15:01:26Z</time>
      </trkpt>
      <trkpt lat="44.8882" lon="4.79155">
        <ele>363.30599975586</ele>
        <time>2009-09-19T15:01:39Z</time>
      </trkpt>
      <trkpt lat="44.88829" lon="4.79194">
        <ele>364.97601318359</ele>
        <time>2009-09-19T15:01:45Z</time>
      </trkpt>
      <trkpt lat="44.88843" lon="4.79216">
        <ele>365.93399047852</ele>
        <time>2009-09-19T15:01:49Z</time>
      </trkpt>
      <trkpt lat="44.88853" lon="4.79242">
        <ele>367.17098999023</ele>
        <time>2009-09-19T15:01:53Z</time>
      </trkpt>
      <trkpt lat="44.88866" lon="4.79265">
        <ele>367.84100341797</ele>
        <time>2009-09-19T15:01:57Z</time>
      </trkpt>
      <trkpt lat="44.88918" lon="4.79334">
        <ele>370.97198486328</ele>
        <time>2009-09-19T15:02:11Z</time>
      </trkpt>
      <trkpt lat="44.88934" lon="4.79353">
        <ele>371.58200073242</ele>
        <time>2009-09-19T15:02:15Z</time>
      </trkpt>
      <trkpt lat="44.88945" lon="4.7938">
        <ele>372.55099487305</ele>
        <time>2009-09-19T15:02:19Z</time>
      </trkpt>
      <trkpt lat="44.88956" lon="4.7941">
        <ele>373.73599243164</ele>
        <time>2009-09-19T15:02:24Z</time>
      </trkpt>
      <trkpt lat="44.89007" lon="4.79476">
        <ele>376.97601318359</ele>
        <time>2009-09-19T15:02:37Z</time>
      </trkpt>
      <trkpt lat="44.8906" lon="4.79583">
        <ele>380.22698974609</ele>
        <time>2009-09-19T15:02:53Z</time>
      </trkpt>
      <trkpt lat="44.89098" lon="4.79675">
        <ele>382.97799682617</ele>
        <time>2009-09-19T15:03:06Z</time>
      </trkpt>
      <trkpt lat="44.89127" lon="4.7977">
        <ele>385.63299560547</ele>
        <time>2009-09-19T15:03:15Z</time>
      </trkpt>
      <trkpt lat="44.89135" lon="4.79791">
        <ele>386.50500488281</ele>
        <time>2009-09-19T15:03:17Z</time>
      </trkpt>
      <trkpt lat="44.8915" lon="4.79826">
        <ele>387.30099487305</ele>
        <time>2009-09-19T15:03:21Z</time>
      </trkpt>
      <trkpt lat="44.89175" lon="4.79838">
        <ele>385.57699584961</ele>
        <time>2009-09-19T15:03:26Z</time>
      </trkpt>
      <trkpt lat="44.89183" lon="4.79808">
        <ele>383.95498657227</ele>
        <time>2009-09-19T15:03:29Z</time>
      </trkpt>
      <trkpt lat="44.89223" lon="4.79727">
        <ele>379.81500244141</ele>
        <time>2009-09-19T15:03:38Z</time>
      </trkpt>
      <trkpt lat="44.89225" lon="4.79692">
        <ele>378.24700927734</ele>
        <time>2009-09-19T15:03:41Z</time>
      </trkpt>
      <trkpt lat="44.8921" lon="4.79631">
        <ele>375.69198608398</ele>
        <time>2009-09-19T15:03:46Z</time>
      </trkpt>
      <trkpt lat="44.89206" lon="4.7962">
        <ele>374.91101074219</ele>
        <time>2009-09-19T15:03:47Z</time>
      </trkpt>
      <trkpt lat="44.89182" lon="4.79584">
        <ele>374.56201171875</ele>
        <time>2009-09-19T15:03:51Z</time>
      </trkpt>
      <trkpt lat="44.89187" lon="4.79572">
        <ele>374.32901000977</ele>
        <time>2009-09-19T15:03:56Z</time>
      </trkpt>
      <trkpt lat="44.8919" lon="4.79577">
        <ele>373.96899414062</ele>
        <time>2009-09-19T15:03:57Z</time>
      </trkpt>
      <trkpt lat="44.89234" lon="4.79652">
        <ele>370.01098632812</ele>
        <time>2009-09-19T15:04:08Z</time>
      </trkpt>
      <trkpt lat="44.89251" lon="4.79709">
        <ele>367.82501220703</ele>
        <time>2009-09-19T15:04:13Z</time>
      </trkpt>
      <trkpt lat="44.89252" lon="4.79736">
        <ele>366.70401000977</ele>
        <time>2009-09-19T15:04:15Z</time>
      </trkpt>
      <trkpt lat="44.89222" lon="4.79792">
        <ele>363.79598999023</ele>
        <time>2009-09-19T15:04:20Z</time>
      </trkpt>
      <trkpt lat="44.89217" lon="4.79835">
        <ele>362.24600219727</ele>
        <time>2009-09-19T15:04:23Z</time>
      </trkpt>
      <trkpt lat="44.89245" lon="4.79898">
        <ele>358.85400390625</ele>
        <time>2009-09-19T15:04:28Z</time>
      </trkpt>
      <trkpt lat="44.89267" lon="4.79954">
        <ele>356.67300415039</ele>
        <time>2009-09-19T15:04:33Z</time>
      </trkpt>
      <trkpt lat="44.8926" lon="4.79963">
        <ele>356.04699707031</ele>
        <time>2009-09-19T15:04:34Z</time>
      </trkpt>
      <trkpt lat="44.89233" lon="4.80031">
        <ele>353.24499511719</ele>
        <time>2009-09-19T15:04:40Z</time>
      </trkpt>
      <trkpt lat="44.89191" lon="4.80078">
        <ele>350.11700439453</ele>
        <time>2009-09-19T15:04:46Z</time>
      </trkpt>
      <trkpt lat="44.89189" lon="4.80107">
        <ele>348.83599853516</ele>
        <time>2009-09-19T15:04:48Z</time>
      </trkpt>
      <trkpt lat="44.89174" lon="4.80176">
        <ele>346.04699707031</ele>
        <time>2009-09-19T15:04:53Z</time>
      </trkpt>
      <trkpt lat="44.89204" lon="4.80219">
        <ele>343.59799194336</ele>
        <time>2009-09-19T15:04:57Z</time>
      </trkpt>
      <trkpt lat="44.89215" lon="4.80224">
        <ele>343.17700195312</ele>
        <time>2009-09-19T15:04:58Z</time>
      </trkpt>
      <trkpt lat="44.89234" lon="4.80233">
        <ele>341.87200927734</ele>
        <time>2009-09-19T15:05:00Z</time>
      </trkpt>
      <trkpt lat="44.89265" lon="4.80268">
        <ele>339.65100097656</ele>
        <time>2009-09-19T15:05:04Z</time>
      </trkpt>
      <trkpt lat="44.89286" lon="4.80299">
        <ele>338.12799072266</ele>
        <time>2009-09-19T15:05:07Z</time>
      </trkpt>
      <trkpt lat="44.89317" lon="4.80311">
        <ele>336.79598999023</ele>
        <time>2009-09-19T15:05:10Z</time>
      </trkpt>
      <trkpt lat="44.89347" lon="4.80362">
        <ele>334.51098632812</ele>
        <time>2009-09-19T15:05:16Z</time>
      </trkpt>
      <trkpt lat="44.89316" lon="4.80428">
        <ele>330.57901000977</ele>
        <time>2009-09-19T15:05:22Z</time>
      </trkpt>
      <trkpt lat="44.89316" lon="4.8044">
        <ele>330.39099121094</ele>
        <time>2009-09-19T15:05:23Z</time>
      </trkpt>
      <trkpt lat="44.89334" lon="4.80487">
        <ele>327.78399658203</ele>
        <time>2009-09-19T15:05:27Z</time>
      </trkpt>
      <trkpt lat="44.89354" lon="4.80517">
        <ele>326.05899047852</ele>
        <time>2009-09-19T15:05:30Z</time>
      </trkpt>
      <trkpt lat="44.89361" lon="4.80566">
        <ele>324.37100219727</ele>
        <time>2009-09-19T15:05:34Z</time>
      </trkpt>
      <trkpt lat="44.89354" lon="4.8059">
        <ele>322.85900878906</ele>
        <time>2009-09-19T15:05:36Z</time>
      </trkpt>
      <trkpt lat="44.89365" lon="4.80651">
        <ele>320.48699951172</ele>
        <time>2009-09-19T15:05:41Z</time>
      </trkpt>
      <trkpt lat="44.89372" lon="4.80661">
        <ele>319.5710144043</ele>
        <time>2009-09-19T15:05:42Z</time>
      </trkpt>
      <trkpt lat="44.89404" lon="4.80701">
        <ele>317.6369934082</ele>
        <time>2009-09-19T15:05:46Z</time>
      </trkpt>
      <trkpt lat="44.89432" lon="4.80768">
        <ele>314.47299194336</ele>
        <time>2009-09-19T15:05:51Z</time>
      </trkpt>
      <trkpt lat="44.89473" lon="4.80858">
        <ele>311.19500732422</ele>
        <time>2009-09-19T15:05:58Z</time>
      </trkpt>
      <trkpt lat="44.89474" lon="4.80886">
        <ele>309.93301391602</ele>
        <time>2009-09-19T15:06:00Z</time>
      </trkpt>
      <trkpt lat="44.89473" lon="4.80915">
        <ele>308.04000854492</ele>
        <time>2009-09-19T15:06:02Z</time>
      </trkpt>
      <trkpt lat="44.89501" lon="4.80994">
        <ele>304.60998535156</ele>
        <time>2009-09-19T15:06:08Z</time>
      </trkpt>
      <trkpt lat="44.89551" lon="4.81062">
        <ele>300.88500976562</ele>
        <time>2009-09-19T15:06:14Z</time>
      </trkpt>
      <trkpt lat="44.89573" lon="4.81102">
        <ele>299.23098754883</ele>
        <time>2009-09-19T15:06:17Z</time>
      </trkpt>
      <trkpt lat="44.89634" lon="4.81254">
        <ele>291.78799438477</ele>
        <time>2009-09-19T15:06:27Z</time>
      </trkpt>
      <trkpt lat="44.89643" lon="4.81305">
        <ele>289.77099609375</ele>
        <time>2009-09-19T15:06:30Z</time>
      </trkpt>
      <trkpt lat="44.89662" lon="4.81353">
        <ele>287.44400024414</ele>
        <time>2009-09-19T15:06:33Z</time>
      </trkpt>
      <trkpt lat="44.89697" lon="4.8145">
        <ele>283.08999633789</ele>
        <time>2009-09-19T15:06:39Z</time>
      </trkpt>
      <trkpt lat="44.89719" lon="4.81494">
        <ele>281.95199584961</ele>
        <time>2009-09-19T15:06:42Z</time>
      </trkpt>
      <trkpt lat="44.89753" lon="4.816">
        <ele>276.98300170898</ele>
        <time>2009-09-19T15:06:49Z</time>
      </trkpt>
      <trkpt lat="44.89769" lon="4.81637">
        <ele>276.51400756836</ele>
        <time>2009-09-19T15:06:53Z</time>
      </trkpt>
      <trkpt lat="44.89772" lon="4.81675">
        <ele>275.07901000977</ele>
        <time>2009-09-19T15:06:58Z</time>
      </trkpt>
      <trkpt lat="44.89758" lon="4.81717">
        <ele>273.35299682617</ele>
        <time>2009-09-19T15:07:04Z</time>
      </trkpt>
      <trkpt lat="44.89741" lon="4.81762">
        <ele>270.88101196289</ele>
        <time>2009-09-19T15:07:09Z</time>
      </trkpt>
      <trkpt lat="44.89734" lon="4.8178">
        <ele>270.1549987793</ele>
        <time>2009-09-19T15:07:11Z</time>
      </trkpt>
      <trkpt lat="44.89702" lon="4.81824">
        <ele>266.97900390625</ele>
        <time>2009-09-19T15:07:17Z</time>
      </trkpt>
      <trkpt lat="44.89681" lon="4.8184">
        <ele>265.58999633789</ele>
        <time>2009-09-19T15:07:20Z</time>
      </trkpt>
      <trkpt lat="44.89675" lon="4.81845">
        <ele>265.45199584961</ele>
        <time>2009-09-19T15:07:21Z</time>
      </trkpt>
      <trkpt lat="44.89642" lon="4.81861">
        <ele>263.71899414062</ele>
        <time>2009-09-19T15:07:25Z</time>
      </trkpt>
      <trkpt lat="44.89567" lon="4.81904">
        <ele>258.20901489258</ele>
        <time>2009-09-19T15:07:33Z</time>
      </trkpt>
      <trkpt lat="44.89529" lon="4.81898">
        <ele>255.57800292969</ele>
        <time>2009-09-19T15:07:37Z</time>
      </trkpt>
      <trkpt lat="44.89491" lon="4.81909">
        <ele>253.39100646973</ele>
        <time>2009-09-19T15:07:43Z</time>
      </trkpt>
      <trkpt lat="44.89513" lon="4.8194">
        <ele>252.10299682617</ele>
        <time>2009-09-19T15:07:47Z</time>
      </trkpt>
      <trkpt lat="44.89522" lon="4.81943">
        <ele>251.53999328613</ele>
        <time>2009-09-19T15:07:48Z</time>
      </trkpt>
      <trkpt lat="44.89659" lon="4.81934">
        <ele>243.94400024414</ele>
        <time>2009-09-19T15:08:02Z</time>
      </trkpt>
      <trkpt lat="44.89702" lon="4.8193">
        <ele>241.64900207519</ele>
        <time>2009-09-19T15:08:06Z</time>
      </trkpt>
      <trkpt lat="44.89713" lon="4.81929">
        <ele>240.94099426269</ele>
        <time>2009-09-19T15:08:07Z</time>
      </trkpt>
      <trkpt lat="44.89748" lon="4.81927">
        <ele>239.48599243164</ele>
        <time>2009-09-19T15:08:10Z</time>
      </trkpt>
      <trkpt lat="44.8978" lon="4.81925">
        <ele>237.66499328613</ele>
        <time>2009-09-19T15:08:13Z</time>
      </trkpt>
      <trkpt lat="44.89801" lon="4.81923">
        <ele>236.72599792481</ele>
        <time>2009-09-19T15:08:15Z</time>
      </trkpt>
      <trkpt lat="44.89943" lon="4.81885">
        <ele>230.55400085449</ele>
        <time>2009-09-19T15:08:28Z</time>
      </trkpt>
      <trkpt lat="44.90002" lon="4.81899">
        <ele>228.13600158691</ele>
        <time>2009-09-19T15:08:33Z</time>
      </trkpt>
      <trkpt lat="44.90035" lon="4.81916">
        <ele>226.52900695801</ele>
        <time>2009-09-19T15:08:36Z</time>
      </trkpt>
      <trkpt lat="44.90128" lon="4.81984">
        <ele>223.52799987793</ele>
        <time>2009-09-19T15:08:45Z</time>
      </trkpt>
      <trkpt lat="44.90208" lon="4.82039">
        <ele>222.41700744629</ele>
        <time>2009-09-19T15:08:53Z</time>
      </trkpt>
      <trkpt lat="44.90237" lon="4.82059">
        <ele>222.08700561523</ele>
        <time>2009-09-19T15:08:56Z</time>
      </trkpt>
      <trkpt lat="44.9031" lon="4.82108">
        <ele>221.28799438477</ele>
        <time>2009-09-19T15:09:04Z</time>
      </trkpt>
      <trkpt lat="44.90345" lon="4.82134">
        <ele>220.64799499512</ele>
        <time>2009-09-19T15:09:08Z</time>
      </trkpt>
      <trkpt lat="44.9039" lon="4.82168">
        <ele>220.07099914551</ele>
        <time>2009-09-19T15:09:13Z</time>
      </trkpt>
      <trkpt lat="44.90462" lon="4.82225">
        <ele>218.80900573731</ele>
        <time>2009-09-19T15:09:21Z</time>
      </trkpt>
      <trkpt lat="44.90576" lon="4.82333">
        <ele>219.52299499512</ele>
        <time>2009-09-19T15:09:35Z</time>
      </trkpt>
      <trkpt lat="44.90678" lon="4.82451">
        <ele>218.41200256348</ele>
        <time>2009-09-19T15:09:48Z</time>
      </trkpt>
      <trkpt lat="44.9075" lon="4.82522">
        <ele>217.21600341797</ele>
        <time>2009-09-19T15:09:56Z</time>
      </trkpt>
      <trkpt lat="44.90829" lon="4.82602">
        <ele>215.78199768066</ele>
        <time>2009-09-19T15:10:04Z</time>
      </trkpt>
      <trkpt lat="44.90898" lon="4.8267">
        <ele>214.36099243164</ele>
        <time>2009-09-19T15:10:11Z</time>
      </trkpt>
      <trkpt lat="44.90918" lon="4.82689">
        <ele>213.04299926758</ele>
        <time>2009-09-19T15:10:13Z</time>
      </trkpt>
      <trkpt lat="44.9094" lon="4.82703">
        <ele>212.19799804688</ele>
        <time>2009-09-19T15:10:15Z</time>
      </trkpt>
      <trkpt lat="44.91044" lon="4.82739">
        <ele>203.04600524902</ele>
        <time>2009-09-19T15:10:23Z</time>
      </trkpt>
      <trkpt lat="44.91114" lon="4.82803">
        <ele>199.48899841309</ele>
        <time>2009-09-19T15:10:29Z</time>
      </trkpt>
      <trkpt lat="44.91248" lon="4.82911">
        <ele>195.14199829102</ele>
        <time>2009-09-19T15:10:41Z</time>
      </trkpt>
      <trkpt lat="44.91339" lon="4.82959">
        <ele>192.68899536133</ele>
        <time>2009-09-19T15:10:49Z</time>
      </trkpt>
      <trkpt lat="44.91396" lon="4.83023">
        <ele>189.78199768066</ele>
        <time>2009-09-19T15:10:55Z</time>
      </trkpt>
      <trkpt lat="44.91418" lon="4.83036">
        <ele>188.74000549316</ele>
        <time>2009-09-19T15:10:57Z</time>
      </trkpt>
      <trkpt lat="44.91467" lon="4.83038">
        <ele>186.30000305176</ele>
        <time>2009-09-19T15:11:01Z</time>
      </trkpt>
      <trkpt lat="44.91515" lon="4.83025">
        <ele>184.56199645996</ele>
        <time>2009-09-19T15:11:05Z</time>
      </trkpt>
      <trkpt lat="44.9164" lon="4.83005">
        <ele>180.73500061035</ele>
        <time>2009-09-19T15:11:15Z</time>
      </trkpt>
      <trkpt lat="44.91679" lon="4.83004">
        <ele>178.79499816894</ele>
        <time>2009-09-19T15:11:18Z</time>
      </trkpt>
      <trkpt lat="44.91843" lon="4.83009">
        <ele>179.58700561523</ele>
        <time>2009-09-19T15:11:31Z</time>
      </trkpt>
      <trkpt lat="44.92004" lon="4.83059">
        <ele>177.38900756836</ele>
        <time>2009-09-19T15:11:45Z</time>
      </trkpt>
      <trkpt lat="44.92027" lon="4.83069">
        <ele>176.33000183106</ele>
        <time>2009-09-19T15:11:47Z</time>
      </trkpt>
      <trkpt lat="44.92075" lon="4.83088">
        <ele>174.57800292969</ele>
        <time>2009-09-19T15:11:51Z</time>
      </trkpt>
      <trkpt lat="44.92136" lon="4.83091">
        <ele>172.78700256348</ele>
        <time>2009-09-19T15:11:56Z</time>
      </trkpt>
      <trkpt lat="44.92228" lon="4.83108">
        <ele>171.99299621582</ele>
        <time>2009-09-19T15:12:04Z</time>
      </trkpt>
      <trkpt lat="44.92294" lon="4.83123">
        <ele>170.29600524902</ele>
        <time>2009-09-19T15:12:10Z</time>
      </trkpt>
      <trkpt lat="44.92447" lon="4.83158">
        <ele>168.60899353027</ele>
        <time>2009-09-19T15:12:24Z</time>
      </trkpt>
      <trkpt lat="44.92506" lon="4.83165">
        <ele>165.06500244141</ele>
        <time>2009-09-19T15:12:29Z</time>
      </trkpt>
      <trkpt lat="44.92579" lon="4.83199">
        <ele>159.82400512695</ele>
        <time>2009-09-19T15:12:35Z</time>
      </trkpt>
      <trkpt lat="44.92615" lon="4.83201">
        <ele>158.43099975586</ele>
        <time>2009-09-19T15:12:38Z</time>
      </trkpt>
      <trkpt lat="44.92647" lon="4.83187">
        <ele>158.51400756836</ele>
        <time>2009-09-19T15:12:41Z</time>
      </trkpt>
      <trkpt lat="44.92765" lon="4.83119">
        <ele>160.15400695801</ele>
        <time>2009-09-19T15:12:55Z</time>
      </trkpt>
      <trkpt lat="44.92837" lon="4.83074">
        <ele>158.41499328613</ele>
        <time>2009-09-19T15:13:04Z</time>
      </trkpt>
      <trkpt lat="44.92862" lon="4.83038">
        <ele>158.2140045166</ele>
        <time>2009-09-19T15:13:08Z</time>
      </trkpt>
      <trkpt lat="44.92893" lon="4.82978">
        <ele>158.80099487305</ele>
        <time>2009-09-19T15:13:14Z</time>
      </trkpt>
      <trkpt lat="44.92939" lon="4.82966">
        <ele>158.80999755859</ele>
        <time>2009-09-19T15:13:20Z</time>
      </trkpt>
      <trkpt lat="44.92946" lon="4.82974">
        <ele>158.58000183106</ele>
        <time>2009-09-19T15:13:21Z</time>
      </trkpt>
      <trkpt lat="44.93063" lon="4.83093">
        <ele>157.44000244141</ele>
        <time>2009-09-19T15:13:37Z</time>
      </trkpt>
      <trkpt lat="44.93227" lon="4.8326">
        <ele>156.46600341797</ele>
        <time>2009-09-19T15:13:58Z</time>
      </trkpt>
      <trkpt lat="44.93332" lon="4.83318">
        <ele>156.12699890137</ele>
        <time>2009-09-19T15:14:10Z</time>
      </trkpt>
      <trkpt lat="44.93446" lon="4.83366">
        <ele>156.94500732422</ele>
        <time>2009-09-19T15:14:23Z</time>
      </trkpt>
      <trkpt lat="44.9354" lon="4.83439">
        <ele>155.78900146484</ele>
        <time>2009-09-19T15:14:35Z</time>
      </trkpt>
      <trkpt lat="44.93608" lon="4.83479">
        <ele>155.125</ele>
        <time>2009-09-19T15:14:44Z</time>
      </trkpt>
      <trkpt lat="44.93706" lon="4.83523">
        <ele>154.29699707031</ele>
        <time>2009-09-19T15:14:57Z</time>
      </trkpt>
      <trkpt lat="44.93715" lon="4.83529">
        <ele>154.48199462891</ele>
        <time>2009-09-19T15:15:05Z</time>
      </trkpt>
      <trkpt lat="44.93687" lon="4.83513">
        <ele>154.35200500488</ele>
        <time>2009-09-19T15:15:22Z</time>
      </trkpt>
      <trkpt lat="44.93679" lon="4.8351">
        <ele>154.37399291992</ele>
        <time>2009-09-19T15:15:25Z</time>
      </trkpt>
      <trkpt lat="44.93675" lon="4.83509">
        <ele>154.4880065918</ele>
        <time>2009-09-19T15:15:29Z</time>
      </trkpt>
      <trkpt lat="44.93675" lon="4.83506">
        <ele>150.97300720215</ele>
        <time>2009-09-19T15:24:28Z</time>
      </trkpt>
      <trkpt lat="44.93681" lon="4.83508">
        <ele>150.7619934082</ele>
        <time>2009-09-19T15:24:31Z</time>
      </trkpt>
      <trkpt lat="44.93716" lon="4.83526">
        <ele>150.95799255371</ele>
        <time>2009-09-19T15:24:41Z</time>
      </trkpt>
      <trkpt lat="44.93734" lon="4.83537">
        <ele>150.67500305176</ele>
        <time>2009-09-19T15:24:45Z</time>
      </trkpt>
      <trkpt lat="44.93833" lon="4.83587">
        <ele>150.32499694824</ele>
        <time>2009-09-19T15:25:04Z</time>
      </trkpt>
      <trkpt lat="44.93933" lon="4.83669">
        <ele>150.48300170898</ele>
        <time>2009-09-19T15:25:22Z</time>
      </trkpt>
      <trkpt lat="44.9401" lon="4.83732">
        <ele>154.20100402832</ele>
        <time>2009-09-19T15:25:38Z</time>
      </trkpt>
      <trkpt lat="44.94048" lon="4.83775">
        <ele>156.46200561523</ele>
        <time>2009-09-19T15:25:49Z</time>
      </trkpt>
      <trkpt lat="44.94052" lon="4.8378">
        <ele>156.24800109863</ele>
        <time>2009-09-19T15:25:50Z</time>
      </trkpt>
      <trkpt lat="44.94069" lon="4.83794">
        <ele>156.57099914551</ele>
        <time>2009-09-19T15:25:54Z</time>
      </trkpt>
      <trkpt lat="44.94077" lon="4.83802">
        <ele>156.58399963379</ele>
        <time>2009-09-19T15:25:56Z</time>
      </trkpt>
      <trkpt lat="44.94126" lon="4.8387">
        <ele>152.74000549316</ele>
        <time>2009-09-19T15:26:07Z</time>
      </trkpt>
      <trkpt lat="44.94161" lon="4.83907">
        <ele>150.77499389648</ele>
        <time>2009-09-19T15:26:12Z</time>
      </trkpt>
      <trkpt lat="44.94177" lon="4.83921">
        <ele>149.71699523926</ele>
        <time>2009-09-19T15:26:14Z</time>
      </trkpt>
      <trkpt lat="44.94199" lon="4.83948">
        <ele>148.38600158691</ele>
        <time>2009-09-19T15:26:17Z</time>
      </trkpt>
      <trkpt lat="44.9425" lon="4.84017">
        <ele>145.76100158691</ele>
        <time>2009-09-19T15:26:24Z</time>
      </trkpt>
      <trkpt lat="44.94278" lon="4.84048">
        <ele>144.51800537109</ele>
        <time>2009-09-19T15:26:28Z</time>
      </trkpt>
      <trkpt lat="44.94318" lon="4.84088">
        <ele>143.61000061035</ele>
        <time>2009-09-19T15:26:37Z</time>
      </trkpt>
      <trkpt lat="44.94359" lon="4.84129">
        <ele>143.31599426269</ele>
        <time>2009-09-19T15:26:49Z</time>
      </trkpt>
      <trkpt lat="44.94352" lon="4.84171">
        <ele>142.49899291992</ele>
        <time>2009-09-19T15:26:57Z</time>
      </trkpt>
      <trkpt lat="44.94344" lon="4.84217">
        <ele>142.08700561523</ele>
        <time>2009-09-19T15:27:03Z</time>
      </trkpt>
      <trkpt lat="44.94341" lon="4.84251">
        <ele>141.95599365234</ele>
        <time>2009-09-19T15:27:07Z</time>
      </trkpt>
      <trkpt lat="44.94342" lon="4.84289">
        <ele>142.12399291992</ele>
        <time>2009-09-19T15:27:13Z</time>
      </trkpt>
      <trkpt lat="44.94358" lon="4.84337">
        <ele>141.32099914551</ele>
        <time>2009-09-19T15:27:24Z</time>
      </trkpt>
      <trkpt lat="44.94377" lon="4.84374">
        <ele>140.85400390625</ele>
        <time>2009-09-19T15:27:31Z</time>
      </trkpt>
      <trkpt lat="44.94437" lon="4.84462">
        <ele>139.70199584961</ele>
        <time>2009-09-19T15:27:45Z</time>
      </trkpt>
      <trkpt lat="44.9445" lon="4.84481">
        <ele>139.52299499512</ele>
        <time>2009-09-19T15:27:48Z</time>
      </trkpt>
      <trkpt lat="44.94477" lon="4.84521">
        <ele>139.1609954834</ele>
        <time>2009-09-19T15:27:54Z</time>
      </trkpt>
      <trkpt lat="44.94539" lon="4.84628">
        <ele>138.78999328613</ele>
        <time>2009-09-19T15:28:09Z</time>
      </trkpt>
      <trkpt lat="44.94569" lon="4.8469">
        <ele>140.22799682617</ele>
        <time>2009-09-19T15:28:18Z</time>
      </trkpt>
      <trkpt lat="44.94574" lon="4.84712">
        <ele>140.56599426269</ele>
        <time>2009-09-19T15:28:22Z</time>
      </trkpt>
      <trkpt lat="44.94561" lon="4.84738">
        <ele>140.09599304199</ele>
        <time>2009-09-19T15:28:28Z</time>
      </trkpt>
      <trkpt lat="44.94572" lon="4.84777">
        <ele>138.81599426269</ele>
        <time>2009-09-19T15:28:35Z</time>
      </trkpt>
      <trkpt lat="44.94598" lon="4.84738">
        <ele>139.12199401856</ele>
        <time>2009-09-19T15:28:41Z</time>
      </trkpt>
      <trkpt lat="44.94598" lon="4.84729">
        <ele>138.53700256348</ele>
        <time>2009-09-19T15:28:42Z</time>
      </trkpt>
      <trkpt lat="44.94611" lon="4.84671">
        <ele>139.53500366211</ele>
        <time>2009-09-19T15:28:48Z</time>
      </trkpt>
      <trkpt lat="44.94665" lon="4.84594">
        <ele>139.58399963379</ele>
        <time>2009-09-19T15:28:58Z</time>
      </trkpt>
      <trkpt lat="44.94708" lon="4.84536">
        <ele>139.25300598144</ele>
        <time>2009-09-19T15:29:05Z</time>
      </trkpt>
      <trkpt lat="44.94804" lon="4.84407">
        <ele>140.42599487305</ele>
        <time>2009-09-19T15:29:22Z</time>
      </trkpt>
      <trkpt lat="44.94835" lon="4.84369">
        <ele>141.28900146484</ele>
        <time>2009-09-19T15:29:28Z</time>
      </trkpt>
      <trkpt lat="44.94887" lon="4.84357">
        <ele>143.35400390625</ele>
        <time>2009-09-19T15:29:36Z</time>
      </trkpt>
      <trkpt lat="44.94998" lon="4.84407">
        <ele>141.71899414062</ele>
        <time>2009-09-19T15:29:49Z</time>
      </trkpt>
      <trkpt lat="44.95144" lon="4.84469">
        <ele>139.12100219727</ele>
        <time>2009-09-19T15:30:05Z</time>
      </trkpt>
      <trkpt lat="44.95327" lon="4.84548">
        <ele>138.62800598144</ele>
        <time>2009-09-19T15:30:25Z</time>
      </trkpt>
      <trkpt lat="44.95511" lon="4.84622">
        <ele>138.15800476074</ele>
        <time>2009-09-19T15:30:44Z</time>
      </trkpt>
      <trkpt lat="44.95665" lon="4.84681">
        <ele>138.25399780273</ele>
        <time>2009-09-19T15:31:01Z</time>
      </trkpt>
      <trkpt lat="44.95752" lon="4.84711">
        <ele>138.17599487305</ele>
        <time>2009-09-19T15:31:11Z</time>
      </trkpt>
      <trkpt lat="44.95861" lon="4.84748">
        <ele>137.98300170898</ele>
        <time>2009-09-19T15:31:24Z</time>
      </trkpt>
      <trkpt lat="44.95991" lon="4.84782">
        <ele>138.91600036621</ele>
        <time>2009-09-19T15:31:40Z</time>
      </trkpt>
      <trkpt lat="44.96106" lon="4.84817">
        <ele>139.55900573731</ele>
        <time>2009-09-19T15:31:55Z</time>
      </trkpt>
      <trkpt lat="44.96236" lon="4.84851">
        <ele>137.76899719238</ele>
        <time>2009-09-19T15:32:10Z</time>
      </trkpt>
      <trkpt lat="44.96388" lon="4.84899">
        <ele>136.75199890137</ele>
        <time>2009-09-19T15:32:27Z</time>
      </trkpt>
      <trkpt lat="44.96471" lon="4.84924">
        <ele>136.75</ele>
        <time>2009-09-19T15:32:36Z</time>
      </trkpt>
      <trkpt lat="44.96592" lon="4.8496">
        <ele>135.82699584961</ele>
        <time>2009-09-19T15:32:49Z</time>
      </trkpt>
      <trkpt lat="44.96705" lon="4.84996">
        <ele>137.33799743652</ele>
        <time>2009-09-19T15:33:01Z</time>
      </trkpt>
      <trkpt lat="44.96812" lon="4.85026">
        <ele>136.93099975586</ele>
        <time>2009-09-19T15:33:12Z</time>
      </trkpt>
      <trkpt lat="44.97006" lon="4.85087">
        <ele>133.9109954834</ele>
        <time>2009-09-19T15:33:31Z</time>
      </trkpt>
      <trkpt lat="44.97059" lon="4.85114">
        <ele>132.12100219727</ele>
        <time>2009-09-19T15:33:36Z</time>
      </trkpt>
      <trkpt lat="44.97253" lon="4.85196">
        <ele>128.77099609375</ele>
        <time>2009-09-19T15:33:53Z</time>
      </trkpt>
      <trkpt lat="44.97427" lon="4.85197">
        <ele>124.49199676514</ele>
        <time>2009-09-19T15:34:07Z</time>
      </trkpt>
      <trkpt lat="44.9744" lon="4.85198">
        <ele>124.31999969482</ele>
        <time>2009-09-19T15:34:08Z</time>
      </trkpt>
      <trkpt lat="44.97601" lon="4.85176">
        <ele>125.03900146484</ele>
        <time>2009-09-19T15:34:21Z</time>
      </trkpt>
      <trkpt lat="44.97623" lon="4.85168">
        <ele>126.00900268555</ele>
        <time>2009-09-19T15:34:23Z</time>
      </trkpt>
      <trkpt lat="44.97806" lon="4.85108">
        <ele>125.22699737549</ele>
        <time>2009-09-19T15:34:39Z</time>
      </trkpt>
      <trkpt lat="44.97982" lon="4.85046">
        <ele>124.38200378418</ele>
        <time>2009-09-19T15:34:55Z</time>
      </trkpt>
      <trkpt lat="44.98024" lon="4.85033">
        <ele>125.77799987793</ele>
        <time>2009-09-19T15:34:59Z</time>
      </trkpt>
      <trkpt lat="44.98054" lon="4.85023">
        <ele>127.09999847412</ele>
        <time>2009-09-19T15:35:02Z</time>
      </trkpt>
      <trkpt lat="44.98144" lon="4.84992">
        <ele>124.96399688721</ele>
        <time>2009-09-19T15:35:11Z</time>
      </trkpt>
      <trkpt lat="44.9835" lon="4.84919">
        <ele>122.56999969482</ele>
        <time>2009-09-19T15:35:30Z</time>
      </trkpt>
      <trkpt lat="44.98535" lon="4.84812">
        <ele>123.12599945068</ele>
        <time>2009-09-19T15:35:48Z</time>
      </trkpt>
      <trkpt lat="44.98692" lon="4.84755">
        <ele>124.09799957275</ele>
        <time>2009-09-19T15:36:05Z</time>
      </trkpt>
      <trkpt lat="44.98854" lon="4.84748">
        <ele>123.70099639893</ele>
        <time>2009-09-19T15:36:20Z</time>
      </trkpt>
      <trkpt lat="44.99064" lon="4.84729">
        <ele>123.48500061035</ele>
        <time>2009-09-19T15:36:40Z</time>
      </trkpt>
      <trkpt lat="44.9925" lon="4.84655">
        <ele>124.13200378418</ele>
        <time>2009-09-19T15:36:59Z</time>
      </trkpt>
      <trkpt lat="44.99386" lon="4.84537">
        <ele>128.53900146484</ele>
        <time>2009-09-19T15:37:15Z</time>
      </trkpt>
      <trkpt lat="44.99514" lon="4.84426">
        <ele>131.74099731445</ele>
        <time>2009-09-19T15:37:31Z</time>
      </trkpt>
      <trkpt lat="44.99661" lon="4.84298">
        <ele>135.35899353027</ele>
        <time>2009-09-19T15:37:50Z</time>
      </trkpt>
      <trkpt lat="44.99808" lon="4.84172">
        <ele>134.13200378418</ele>
        <time>2009-09-19T15:38:07Z</time>
      </trkpt>
      <trkpt lat="44.99937" lon="4.84088">
        <ele>132.21499633789</ele>
        <time>2009-09-19T15:38:20Z</time>
      </trkpt>
      <trkpt lat="45.00119" lon="4.84022">
        <ele>129.72700500488</ele>
        <time>2009-09-19T15:38:36Z</time>
      </trkpt>
      <trkpt lat="45.00258" lon="4.83954">
        <ele>131.55400085449</ele>
        <time>2009-09-19T15:38:50Z</time>
      </trkpt>
      <trkpt lat="45.00348" lon="4.83841">
        <ele>131.17999267578</ele>
        <time>2009-09-19T15:39:01Z</time>
      </trkpt>
      <trkpt lat="45.00441" lon="4.83665">
        <ele>129.91000366211</ele>
        <time>2009-09-19T15:39:15Z</time>
      </trkpt>
      <trkpt lat="45.0054" lon="4.83498">
        <ele>132.63999938965</ele>
        <time>2009-09-19T15:39:30Z</time>
      </trkpt>
      <trkpt lat="45.00633" lon="4.83437">
        <ele>135.05999755859</ele>
        <time>2009-09-19T15:39:41Z</time>
      </trkpt>
      <trkpt lat="45.00752" lon="4.83392">
        <ele>135.80700683594</ele>
        <time>2009-09-19T15:39:53Z</time>
      </trkpt>
      <trkpt lat="45.00926" lon="4.83355">
        <ele>134.20700073242</ele>
        <time>2009-09-19T15:40:10Z</time>
      </trkpt>
      <trkpt lat="45.01072" lon="4.83366">
        <ele>132.48300170898</ele>
        <time>2009-09-19T15:40:23Z</time>
      </trkpt>
      <trkpt lat="45.01204" lon="4.83333">
        <ele>129.9940032959</ele>
        <time>2009-09-19T15:40:34Z</time>
      </trkpt>
      <trkpt lat="45.01302" lon="4.8332">
        <ele>126.44699859619</ele>
        <time>2009-09-19T15:40:42Z</time>
      </trkpt>
      <trkpt lat="45.0134" lon="4.83322">
        <ele>123.94400024414</ele>
        <time>2009-09-19T15:40:45Z</time>
      </trkpt>
      <trkpt lat="45.01376" lon="4.83326">
        <ele>122.67400360107</ele>
        <time>2009-09-19T15:40:48Z</time>
      </trkpt>
      <trkpt lat="45.01569" lon="4.83337">
        <ele>124.46800231934</ele>
        <time>2009-09-19T15:41:05Z</time>
      </trkpt>
      <trkpt lat="45.01669" lon="4.8332">
        <ele>127.54299926758</ele>
        <time>2009-09-19T15:41:15Z</time>
      </trkpt>
      <trkpt lat="45.01815" lon="4.83315">
        <ele>126.62799835205</ele>
        <time>2009-09-19T15:41:30Z</time>
      </trkpt>
      <trkpt lat="45.01913" lon="4.83348">
        <ele>124.19899749756</ele>
        <time>2009-09-19T15:41:39Z</time>
      </trkpt>
      <trkpt lat="45.01918" lon="4.83396">
        <ele>125.69899749756</ele>
        <time>2009-09-19T15:41:44Z</time>
      </trkpt>
      <trkpt lat="45.01913" lon="4.83404">
        <ele>125.9169998169</ele>
        <time>2009-09-19T15:41:45Z</time>
      </trkpt>
      <trkpt lat="45.0188" lon="4.83461">
        <ele>125.05599975586</ele>
        <time>2009-09-19T15:41:53Z</time>
      </trkpt>
      <trkpt lat="45.01815" lon="4.83526">
        <ele>124.33000183106</ele>
        <time>2009-09-19T15:42:04Z</time>
      </trkpt>
      <trkpt lat="45.01741" lon="4.83572">
        <ele>123.43499755859</ele>
        <time>2009-09-19T15:42:16Z</time>
      </trkpt>
      <trkpt lat="45.01632" lon="4.83622">
        <ele>122.50900268555</ele>
        <time>2009-09-19T15:42:32Z</time>
      </trkpt>
      <trkpt lat="45.0154" lon="4.83682">
        <ele>122.65100097656</ele>
        <time>2009-09-19T15:42:47Z</time>
      </trkpt>
      <trkpt lat="45.01472" lon="4.83691">
        <ele>122.6309967041</ele>
        <time>2009-09-19T15:42:58Z</time>
      </trkpt>
      <trkpt lat="45.01447" lon="4.83684">
        <ele>122.22200012207</ele>
        <time>2009-09-19T15:43:02Z</time>
      </trkpt>
      <trkpt lat="45.01354" lon="4.83638">
        <ele>121.68800354004</ele>
        <time>2009-09-19T15:43:16Z</time>
      </trkpt>
      <trkpt lat="45.01214" lon="4.8357">
        <ele>122.4879989624</ele>
        <time>2009-09-19T15:43:36Z</time>
      </trkpt>
      <trkpt lat="45.01178" lon="4.83572">
        <ele>122.92800140381</ele>
        <time>2009-09-19T15:43:41Z</time>
      </trkpt>
      <trkpt lat="45.01135" lon="4.8361">
        <ele>122.71600341797</ele>
        <time>2009-09-19T15:43:48Z</time>
      </trkpt>
      <trkpt lat="45.01065" lon="4.83744">
        <ele>122.86799621582</ele>
        <time>2009-09-19T15:44:04Z</time>
      </trkpt>
      <trkpt lat="45.01049" lon="4.83822">
        <ele>126.25099945068</ele>
        <time>2009-09-19T15:44:14Z</time>
      </trkpt>
      <trkpt lat="45.01036" lon="4.83911">
        <ele>126.87799835205</ele>
        <time>2009-09-19T15:44:26Z</time>
      </trkpt>
      <trkpt lat="45.01011" lon="4.84071">
        <ele>125.6370010376</ele>
        <time>2009-09-19T15:44:43Z</time>
      </trkpt>
      <trkpt lat="45.01006" lon="4.841">
        <ele>125.89900207519</ele>
        <time>2009-09-19T15:44:46Z</time>
      </trkpt>
      <trkpt lat="45.01032" lon="4.84158">
        <ele>122.702003479</ele>
        <time>2009-09-19T15:44:53Z</time>
      </trkpt>
      <trkpt lat="45.01066" lon="4.84184">
        <ele>120.46700286865</ele>
        <time>2009-09-19T15:44:58Z</time>
      </trkpt>
      <trkpt lat="45.01068" lon="4.84214">
        <ele>121.44499969482</ele>
        <time>2009-09-19T15:45:01Z</time>
      </trkpt>
      <trkpt lat="45.01073" lon="4.84359">
        <ele>120.22100067139</ele>
        <time>2009-09-19T15:45:14Z</time>
      </trkpt>
      <trkpt lat="45.01069" lon="4.84462">
        <ele>119.57599639893</ele>
        <time>2009-09-19T15:45:23Z</time>
      </trkpt>
      <trkpt lat="45.0107" lon="4.84552">
        <ele>120.51100158691</ele>
        <time>2009-09-19T15:45:32Z</time>
      </trkpt>
      <trkpt lat="45.01108" lon="4.84628">
        <ele>120.94799804688</ele>
        <time>2009-09-19T15:45:42Z</time>
      </trkpt>
      <trkpt lat="45.01195" lon="4.84735">
        <ele>120.83000183106</ele>
        <time>2009-09-19T15:45:57Z</time>
      </trkpt>
      <trkpt lat="45.01274" lon="4.84847">
        <ele>120.83499908447</ele>
        <time>2009-09-19T15:46:11Z</time>
      </trkpt>
      <trkpt lat="45.01286" lon="4.84889">
        <ele>120.59799957275</ele>
        <time>2009-09-19T15:46:15Z</time>
      </trkpt>
      <trkpt lat="45.01294" lon="4.84938">
        <ele>120.70500183106</ele>
        <time>2009-09-19T15:46:20Z</time>
      </trkpt>
      <trkpt lat="45.01353" lon="4.85118">
        <ele>121.32499694824</ele>
        <time>2009-09-19T15:46:38Z</time>
      </trkpt>
      <trkpt lat="45.01374" lon="4.85172">
        <ele>123.08000183106</ele>
        <time>2009-09-19T15:46:44Z</time>
      </trkpt>
      <trkpt lat="45.01383" lon="4.85196">
        <ele>124.48100280762</ele>
        <time>2009-09-19T15:46:47Z</time>
      </trkpt>
      <trkpt lat="45.01392" lon="4.85218">
        <ele>125.90599822998</ele>
        <time>2009-09-19T15:46:50Z</time>
      </trkpt>
      <trkpt lat="45.014" lon="4.8524">
        <ele>127.37000274658</ele>
        <time>2009-09-19T15:46:53Z</time>
      </trkpt>
      <trkpt lat="45.01428" lon="4.85309">
        <ele>128.88000488281</ele>
        <time>2009-09-19T15:47:02Z</time>
      </trkpt>
      <trkpt lat="45.01469" lon="4.85417">
        <ele>130.50300598144</ele>
        <time>2009-09-19T15:47:14Z</time>
      </trkpt>
      <trkpt lat="45.01477" lon="4.85437">
        <ele>129.85000610352</ele>
        <time>2009-09-19T15:47:16Z</time>
      </trkpt>
      <trkpt lat="45.01502" lon="4.85503">
        <ele>127.33599853516</ele>
        <time>2009-09-19T15:47:22Z</time>
      </trkpt>
      <trkpt lat="45.01534" lon="4.85596">
        <ele>129.625</ele>
        <time>2009-09-19T15:47:31Z</time>
      </trkpt>
      <trkpt lat="45.01534" lon="4.85631">
        <ele>130.86399841309</ele>
        <time>2009-09-19T15:47:35Z</time>
      </trkpt>
      <trkpt lat="45.01538" lon="4.85668">
        <ele>132.34800720215</ele>
        <time>2009-09-19T15:47:40Z</time>
      </trkpt>
      <trkpt lat="45.01554" lon="4.85708">
        <ele>133.9109954834</ele>
        <time>2009-09-19T15:47:45Z</time>
      </trkpt>
      <trkpt lat="45.01556" lon="4.85725">
        <ele>134.73500061035</ele>
        <time>2009-09-19T15:47:47Z</time>
      </trkpt>
      <trkpt lat="45.01561" lon="4.8575">
        <ele>135.28300476074</ele>
        <time>2009-09-19T15:47:50Z</time>
      </trkpt>
      <trkpt lat="45.01599" lon="4.85776">
        <ele>136.0059967041</ele>
        <time>2009-09-19T15:47:57Z</time>
      </trkpt>
      <trkpt lat="45.01669" lon="4.85765">
        <ele>133.87600708008</ele>
        <time>2009-09-19T15:48:07Z</time>
      </trkpt>
      <trkpt lat="45.01717" lon="4.8576">
        <ele>130.81799316406</ele>
        <time>2009-09-19T15:48:12Z</time>
      </trkpt>
      <trkpt lat="45.01844" lon="4.85781">
        <ele>128.69000244141</ele>
        <time>2009-09-19T15:48:24Z</time>
      </trkpt>
      <trkpt lat="45.01918" lon="4.85796">
        <ele>127.91999816894</ele>
        <time>2009-09-19T15:48:31Z</time>
      </trkpt>
      <trkpt lat="45.01959" lon="4.85805">
        <ele>127.56300354004</ele>
        <time>2009-09-19T15:48:35Z</time>
      </trkpt>
      <trkpt lat="45.01969" lon="4.85807">
        <ele>127.422996521</ele>
        <time>2009-09-19T15:48:36Z</time>
      </trkpt>
      <trkpt lat="45.02001" lon="4.85855">
        <ele>127.92700195312</ele>
        <time>2009-09-19T15:48:41Z</time>
      </trkpt>
      <trkpt lat="45.02017" lon="4.85903">
        <ele>128.40899658203</ele>
        <time>2009-09-19T15:48:45Z</time>
      </trkpt>
      <trkpt lat="45.02065" lon="4.86001">
        <ele>130.01100158691</ele>
        <time>2009-09-19T15:48:55Z</time>
      </trkpt>
      <trkpt lat="45.02121" lon="4.86118">
        <ele>133.28100585938</ele>
        <time>2009-09-19T15:49:09Z</time>
      </trkpt>
      <trkpt lat="45.02171" lon="4.8621">
        <ele>136.91900634766</ele>
        <time>2009-09-19T15:49:20Z</time>
      </trkpt>
      <trkpt lat="45.02185" lon="4.86244">
        <ele>138.81799316406</ele>
        <time>2009-09-19T15:49:24Z</time>
      </trkpt>
      <trkpt lat="45.02241" lon="4.86343">
        <ele>141.18400573731</ele>
        <time>2009-09-19T15:49:37Z</time>
      </trkpt>
      <trkpt lat="45.02273" lon="4.86403">
        <ele>140.72099304199</ele>
        <time>2009-09-19T15:49:44Z</time>
      </trkpt>
      <trkpt lat="45.02318" lon="4.86493">
        <ele>140.65199279785</ele>
        <time>2009-09-19T15:49:54Z</time>
      </trkpt>
      <trkpt lat="45.02417" lon="4.86687">
        <ele>141.72599792481</ele>
        <time>2009-09-19T15:50:16Z</time>
      </trkpt>
      <trkpt lat="45.02475" lon="4.86802">
        <ele>142.19500732422</ele>
        <time>2009-09-19T15:50:30Z</time>
      </trkpt>
      <trkpt lat="45.02478" lon="4.86808">
        <ele>141.82099914551</ele>
        <time>2009-09-19T15:50:31Z</time>
      </trkpt>
      <trkpt lat="45.02483" lon="4.86826">
        <ele>143.82099914551</ele>
        <time>2009-09-19T15:50:38Z</time>
      </trkpt>
      <trkpt lat="45.02484" lon="4.86831">
        <ele>143.41200256348</ele>
        <time>2009-09-19T15:50:43Z</time>
      </trkpt>
      <trkpt lat="45.02489" lon="4.86841">
        <ele>143.21299743652</ele>
        <time>2009-09-19T15:50:46Z</time>
      </trkpt>
      <trkpt lat="45.02498" lon="4.86857">
        <ele>141.67399597168</ele>
        <time>2009-09-19T15:50:49Z</time>
      </trkpt>
      <trkpt lat="45.02538" lon="4.86962">
        <ele>141.91700744629</ele>
        <time>2009-09-19T15:51:02Z</time>
      </trkpt>
      <trkpt lat="45.02601" lon="4.8713">
        <ele>139.85499572754</ele>
        <time>2009-09-19T15:51:19Z</time>
      </trkpt>
      <trkpt lat="45.02697" lon="4.87353">
        <ele>139.77200317383</ele>
        <time>2009-09-19T15:51:40Z</time>
      </trkpt>
      <trkpt lat="45.0271" lon="4.87381">
        <ele>141.27900695801</ele>
        <time>2009-09-19T15:51:43Z</time>
      </trkpt>
      <trkpt lat="45.02721" lon="4.87408">
        <ele>143.42900085449</ele>
        <time>2009-09-19T15:51:46Z</time>
      </trkpt>
      <trkpt lat="45.02749" lon="4.87471">
        <ele>145.82499694824</ele>
        <time>2009-09-19T15:51:54Z</time>
      </trkpt>
      <trkpt lat="45.02777" lon="4.87535">
        <ele>146.17900085449</ele>
        <time>2009-09-19T15:52:02Z</time>
      </trkpt>
      <trkpt lat="45.02834" lon="4.87659">
        <ele>142.68800354004</ele>
        <time>2009-09-19T15:52:14Z</time>
      </trkpt>
      <trkpt lat="45.02922" lon="4.87827">
        <ele>141.61399841309</ele>
        <time>2009-09-19T15:52:30Z</time>
      </trkpt>
      <trkpt lat="45.02957" lon="4.87892">
        <ele>141.61700439453</ele>
        <time>2009-09-19T15:52:36Z</time>
      </trkpt>
      <trkpt lat="45.03036" lon="4.87954">
        <ele>142.49299621582</ele>
        <time>2009-09-19T15:52:46Z</time>
      </trkpt>
      <trkpt lat="45.03143" lon="4.88034">
        <ele>143.54299926758</ele>
        <time>2009-09-19T15:53:01Z</time>
      </trkpt>
      <trkpt lat="45.03277" lon="4.88135">
        <ele>144.76400756836</ele>
        <time>2009-09-19T15:53:19Z</time>
      </trkpt>
      <trkpt lat="45.03393" lon="4.88226">
        <ele>145.18099975586</ele>
        <time>2009-09-19T15:53:34Z</time>
      </trkpt>
      <trkpt lat="45.03539" lon="4.88324">
        <ele>144.44099426269</ele>
        <time>2009-09-19T15:53:51Z</time>
      </trkpt>
      <trkpt lat="45.03676" lon="4.88444">
        <ele>145.77200317383</ele>
        <time>2009-09-19T15:54:08Z</time>
      </trkpt>
      <trkpt lat="45.0378" lon="4.8854">
        <ele>145.14999389648</ele>
        <time>2009-09-19T15:54:23Z</time>
      </trkpt>
      <trkpt lat="45.03883" lon="4.88637">
        <ele>144.31599426269</ele>
        <time>2009-09-19T15:54:37Z</time>
      </trkpt>
      <trkpt lat="45.03902" lon="4.88657">
        <ele>144.54899597168</ele>
        <time>2009-09-19T15:54:40Z</time>
      </trkpt>
      <trkpt lat="45.03925" lon="4.88685">
        <ele>147.31599426269</ele>
        <time>2009-09-19T15:54:47Z</time>
      </trkpt>
      <trkpt lat="45.03925" lon="4.88685">
        <ele>146.98699951172</ele>
        <time>2009-09-19T15:54:48Z</time>
      </trkpt>
      <trkpt lat="45.0393" lon="4.88699">
        <ele>146.07899475098</ele>
        <time>2009-09-19T15:55:02Z</time>
      </trkpt>
      <trkpt lat="45.03931" lon="4.88703">
        <ele>146.09800720215</ele>
        <time>2009-09-19T15:55:03Z</time>
      </trkpt>
      <trkpt lat="45.03943" lon="4.88726">
        <ele>145.63499450684</ele>
        <time>2009-09-19T15:55:10Z</time>
      </trkpt>
      <trkpt lat="45.03947" lon="4.88729">
        <ele>145.82299804688</ele>
        <time>2009-09-19T15:55:14Z</time>
      </trkpt>
      <trkpt lat="45.03954" lon="4.88731">
        <ele>144.75100708008</ele>
        <time>2009-09-19T15:55:24Z</time>
      </trkpt>
      <trkpt lat="45.03968" lon="4.88724">
        <ele>145.04600524902</ele>
        <time>2009-09-19T15:55:31Z</time>
      </trkpt>
      <trkpt lat="45.03971" lon="4.88718">
        <ele>144.89399719238</ele>
        <time>2009-09-19T15:55:34Z</time>
      </trkpt>
      <trkpt lat="45.03971" lon="4.88718">
        <ele>144.94400024414</ele>
        <time>2009-09-19T15:55:35Z</time>
      </trkpt>
      <trkpt lat="45.03983" lon="4.8873">
        <ele>144.35200500488</ele>
        <time>2009-09-19T15:56:07Z</time>
      </trkpt>
      <trkpt lat="45.04011" lon="4.88756">
        <ele>144.20599365234</ele>
        <time>2009-09-19T15:56:16Z</time>
      </trkpt>
      <trkpt lat="45.04057" lon="4.88807">
        <ele>143.89799499512</ele>
        <time>2009-09-19T15:56:25Z</time>
      </trkpt>
      <trkpt lat="45.04069" lon="4.88819">
        <ele>143.74800109863</ele>
        <time>2009-09-19T15:56:27Z</time>
      </trkpt>
      <trkpt lat="45.04113" lon="4.8886">
        <ele>144.88299560547</ele>
        <time>2009-09-19T15:56:34Z</time>
      </trkpt>
      <trkpt lat="45.04233" lon="4.88957">
        <ele>145.53300476074</ele>
        <time>2009-09-19T15:56:53Z</time>
      </trkpt>
      <trkpt lat="45.04371" lon="4.89069">
        <ele>145.88499450684</ele>
        <time>2009-09-19T15:57:13Z</time>
      </trkpt>
      <trkpt lat="45.04486" lon="4.89164">
        <ele>146.89900207519</ele>
        <time>2009-09-19T15:57:30Z</time>
      </trkpt>
      <trkpt lat="45.04589" lon="4.89271">
        <ele>146.06799316406</ele>
        <time>2009-09-19T15:57:47Z</time>
      </trkpt>
      <trkpt lat="45.04676" lon="4.8936">
        <ele>146.16200256348</ele>
        <time>2009-09-19T15:58:01Z</time>
      </trkpt>
      <trkpt lat="45.04748" lon="4.89437">
        <ele>150.08000183106</ele>
        <time>2009-09-19T15:58:13Z</time>
      </trkpt>
      <trkpt lat="45.04837" lon="4.89504">
        <ele>154.41700744629</ele>
        <time>2009-09-19T15:58:26Z</time>
      </trkpt>
      <trkpt lat="45.04845" lon="4.89508">
        <ele>154.71000671387</ele>
        <time>2009-09-19T15:58:27Z</time>
      </trkpt>
      <trkpt lat="45.04967" lon="4.89578">
        <ele>160.28799438477</ele>
        <time>2009-09-19T15:58:44Z</time>
      </trkpt>
      <trkpt lat="45.05088" lon="4.89665">
        <ele>165.47300720215</ele>
        <time>2009-09-19T15:59:01Z</time>
      </trkpt>
      <trkpt lat="45.0517" lon="4.89728">
        <ele>169.43299865723</ele>
        <time>2009-09-19T15:59:13Z</time>
      </trkpt>
      <trkpt lat="45.05236" lon="4.89798">
        <ele>172.29699707031</ele>
        <time>2009-09-19T15:59:24Z</time>
      </trkpt>
      <trkpt lat="45.05323" lon="4.89956">
        <ele>176.58000183106</ele>
        <time>2009-09-19T15:59:43Z</time>
      </trkpt>
      <trkpt lat="45.05402" lon="4.90064">
        <ele>180.77799987793</ele>
        <time>2009-09-19T15:59:58Z</time>
      </trkpt>
      <trkpt lat="45.05408" lon="4.90069">
        <ele>181.01300048828</ele>
        <time>2009-09-19T15:59:59Z</time>
      </trkpt>
      <trkpt lat="45.05529" lon="4.90166">
        <ele>186.12100219727</ele>
        <time>2009-09-19T16:00:18Z</time>
      </trkpt>
      <trkpt lat="45.05593" lon="4.90221">
        <ele>189.97399902344</ele>
        <time>2009-09-19T16:00:28Z</time>
      </trkpt>
      <trkpt lat="45.0569" lon="4.90315">
        <ele>193.60699462891</ele>
        <time>2009-09-19T16:00:44Z</time>
      </trkpt>
      <trkpt lat="45.05799" lon="4.90428">
        <ele>197.11799621582</ele>
        <time>2009-09-19T16:01:03Z</time>
      </trkpt>
      <trkpt lat="45.05919" lon="4.90538">
        <ele>202.73699951172</ele>
        <time>2009-09-19T16:01:25Z</time>
      </trkpt>
      <trkpt lat="45.05987" lon="4.90596">
        <ele>208.06700134277</ele>
        <time>2009-09-19T16:01:41Z</time>
      </trkpt>
      <trkpt lat="45.05991" lon="4.90598">
        <ele>208.37899780273</ele>
        <time>2009-09-19T16:01:42Z</time>
      </trkpt>
      <trkpt lat="45.05999" lon="4.90607">
        <ele>209.91900634766</ele>
        <time>2009-09-19T16:01:47Z</time>
      </trkpt>
      <trkpt lat="45.06005" lon="4.90613">
        <ele>213.91400146484</ele>
        <time>2009-09-19T16:02:02Z</time>
      </trkpt>
      <trkpt lat="45.0601" lon="4.90622">
        <ele>214.4940032959</ele>
        <time>2009-09-19T16:02:05Z</time>
      </trkpt>
      <trkpt lat="45.06024" lon="4.90679">
        <ele>216.00300598144</ele>
        <time>2009-09-19T16:02:13Z</time>
      </trkpt>
      <trkpt lat="45.06034" lon="4.90715">
        <ele>216.75700378418</ele>
        <time>2009-09-19T16:02:18Z</time>
      </trkpt>
      <trkpt lat="45.06033" lon="4.90736">
        <ele>217.3690032959</ele>
        <time>2009-09-19T16:02:21Z</time>
      </trkpt>
      <trkpt lat="45.06003" lon="4.90886">
        <ele>221.09899902344</ele>
        <time>2009-09-19T16:02:39Z</time>
      </trkpt>
      <trkpt lat="45.05984" lon="4.91054">
        <ele>223.24099731445</ele>
        <time>2009-09-19T16:02:56Z</time>
      </trkpt>
      <trkpt lat="45.05959" lon="4.91204">
        <ele>224.58000183106</ele>
        <time>2009-09-19T16:03:10Z</time>
      </trkpt>
      <trkpt lat="45.05904" lon="4.91404">
        <ele>225.17100524902</ele>
        <time>2009-09-19T16:03:28Z</time>
      </trkpt>
      <trkpt lat="45.05827" lon="4.91632">
        <ele>226.10000610352</ele>
        <time>2009-09-19T16:03:47Z</time>
      </trkpt>
      <trkpt lat="45.05793" lon="4.91776">
        <ele>226.49200439453</ele>
        <time>2009-09-19T16:04:00Z</time>
      </trkpt>
      <trkpt lat="45.0575" lon="4.91969">
        <ele>228.02499389648</ele>
        <time>2009-09-19T16:04:19Z</time>
      </trkpt>
      <trkpt lat="45.0573" lon="4.92131">
        <ele>229.85099792481</ele>
        <time>2009-09-19T16:04:33Z</time>
      </trkpt>
      <trkpt lat="45.05726" lon="4.92319">
        <ele>229.50999450684</ele>
        <time>2009-09-19T16:04:49Z</time>
      </trkpt>
      <trkpt lat="45.05724" lon="4.92342">
        <ele>229.52499389648</ele>
        <time>2009-09-19T16:04:51Z</time>
      </trkpt>
      <trkpt lat="45.05725" lon="4.92396">
        <ele>229.35299682617</ele>
        <time>2009-09-19T16:04:56Z</time>
      </trkpt>
      <trkpt lat="45.05704" lon="4.9249">
        <ele>229.48300170898</ele>
        <time>2009-09-19T16:05:05Z</time>
      </trkpt>
      <trkpt lat="45.05685" lon="4.92548">
        <ele>228.88800048828</ele>
        <time>2009-09-19T16:05:12Z</time>
      </trkpt>
      <trkpt lat="45.05687" lon="4.9259">
        <ele>228.65400695801</ele>
        <time>2009-09-19T16:05:17Z</time>
      </trkpt>
      <trkpt lat="45.05706" lon="4.9264">
        <ele>229.7200012207</ele>
        <time>2009-09-19T16:05:24Z</time>
      </trkpt>
      <trkpt lat="45.05802" lon="4.92762">
        <ele>229.26300048828</ele>
        <time>2009-09-19T16:05:44Z</time>
      </trkpt>
      <trkpt lat="45.05923" lon="4.92897">
        <ele>230.88600158691</ele>
        <time>2009-09-19T16:06:05Z</time>
      </trkpt>
      <trkpt lat="45.06103" lon="4.93013">
        <ele>232.72399902344</ele>
        <time>2009-09-19T16:06:30Z</time>
      </trkpt>
      <trkpt lat="45.06246" lon="4.93089">
        <ele>232.31399536133</ele>
        <time>2009-09-19T16:06:48Z</time>
      </trkpt>
      <trkpt lat="45.06391" lon="4.93155">
        <ele>233.24200439453</ele>
        <time>2009-09-19T16:07:06Z</time>
      </trkpt>
      <trkpt lat="45.06525" lon="4.9321">
        <ele>233.39799499512</ele>
        <time>2009-09-19T16:07:23Z</time>
      </trkpt>
      <trkpt lat="45.06697" lon="4.93248">
        <ele>233.2799987793</ele>
        <time>2009-09-19T16:07:42Z</time>
      </trkpt>
      <trkpt lat="45.06852" lon="4.93316">
        <ele>232.57699584961</ele>
        <time>2009-09-19T16:08:01Z</time>
      </trkpt>
      <trkpt lat="45.06994" lon="4.93369">
        <ele>233.01800537109</ele>
        <time>2009-09-19T16:08:19Z</time>
      </trkpt>
      <trkpt lat="45.07009" lon="4.93373">
        <ele>233.17599487305</ele>
        <time>2009-09-19T16:08:21Z</time>
      </trkpt>
      <trkpt lat="45.07119" lon="4.93426">
        <ele>233.36000061035</ele>
        <time>2009-09-19T16:08:36Z</time>
      </trkpt>
      <trkpt lat="45.07279" lon="4.93503">
        <ele>234.03900146484</ele>
        <time>2009-09-19T16:08:56Z</time>
      </trkpt>
      <trkpt lat="45.0745" lon="4.9357">
        <ele>234.64999389648</ele>
        <time>2009-09-19T16:09:17Z</time>
      </trkpt>
      <trkpt lat="45.07616" lon="4.93619">
        <ele>234.43400573731</ele>
        <time>2009-09-19T16:09:39Z</time>
      </trkpt>
      <trkpt lat="45.07798" lon="4.93671">
        <ele>233.38600158691</ele>
        <time>2009-09-19T16:10:02Z</time>
      </trkpt>
      <trkpt lat="45.07978" lon="4.93723">
        <ele>233.16299438477</ele>
        <time>2009-09-19T16:10:23Z</time>
      </trkpt>
      <trkpt lat="45.08155" lon="4.93752">
        <ele>231.88800048828</ele>
        <time>2009-09-19T16:10:43Z</time>
      </trkpt>
      <trkpt lat="45.08355" lon="4.93722">
        <ele>232.32299804688</ele>
        <time>2009-09-19T16:11:04Z</time>
      </trkpt>
      <trkpt lat="45.08497" lon="4.93698">
        <ele>232.45899963379</ele>
        <time>2009-09-19T16:11:21Z</time>
      </trkpt>
      <trkpt lat="45.08576" lon="4.93673">
        <ele>233.37600708008</ele>
        <time>2009-09-19T16:11:32Z</time>
      </trkpt>
      <trkpt lat="45.08707" lon="4.936">
        <ele>234.52499389648</ele>
        <time>2009-09-19T16:11:51Z</time>
      </trkpt>
      <trkpt lat="45.08813" lon="4.93579">
        <ele>234.80700683594</ele>
        <time>2009-09-19T16:12:06Z</time>
      </trkpt>
      <trkpt lat="45.089" lon="4.93594">
        <ele>234.35899353027</ele>
        <time>2009-09-19T16:12:19Z</time>
      </trkpt>
      <trkpt lat="45.08992" lon="4.93617">
        <ele>234.65800476074</ele>
        <time>2009-09-19T16:12:32Z</time>
      </trkpt>
      <trkpt lat="45.09122" lon="4.93652">
        <ele>233.22799682617</ele>
        <time>2009-09-19T16:12:49Z</time>
      </trkpt>
      <trkpt lat="45.09246" lon="4.93685">
        <ele>233.47999572754</ele>
        <time>2009-09-19T16:13:04Z</time>
      </trkpt>
      <trkpt lat="45.09346" lon="4.93746">
        <ele>233.25</ele>
        <time>2009-09-19T16:13:17Z</time>
      </trkpt>
      <trkpt lat="45.09416" lon="4.93846">
        <ele>233.9940032959</ele>
        <time>2009-09-19T16:13:29Z</time>
      </trkpt>
      <trkpt lat="45.09492" lon="4.93996">
        <ele>234.5890045166</ele>
        <time>2009-09-19T16:13:45Z</time>
      </trkpt>
      <trkpt lat="45.09552" lon="4.94112">
        <ele>235.67900085449</ele>
        <time>2009-09-19T16:13:57Z</time>
      </trkpt>
      <trkpt lat="45.09657" lon="4.94297">
        <ele>236.2380065918</ele>
        <time>2009-09-19T16:14:17Z</time>
      </trkpt>
      <trkpt lat="45.09775" lon="4.94416">
        <ele>236.30599975586</ele>
        <time>2009-09-19T16:14:31Z</time>
      </trkpt>
      <trkpt lat="45.09905" lon="4.94559">
        <ele>236.18600463867</ele>
        <time>2009-09-19T16:14:45Z</time>
      </trkpt>
      <trkpt lat="45.10004" lon="4.94671">
        <ele>236.04800415039</ele>
        <time>2009-09-19T16:14:57Z</time>
      </trkpt>
      <trkpt lat="45.10116" lon="4.94768">
        <ele>236.54499816894</ele>
        <time>2009-09-19T16:15:13Z</time>
      </trkpt>
      <trkpt lat="45.10275" lon="4.94878">
        <ele>237.13000488281</ele>
        <time>2009-09-19T16:15:35Z</time>
      </trkpt>
      <trkpt lat="45.10348" lon="4.94917">
        <ele>237.51600646973</ele>
        <time>2009-09-19T16:15:47Z</time>
      </trkpt>
      <trkpt lat="45.10388" lon="4.9494">
        <ele>237.2200012207</ele>
        <time>2009-09-19T16:15:55Z</time>
      </trkpt>
      <trkpt lat="45.10428" lon="4.94973">
        <ele>237.39999389648</ele>
        <time>2009-09-19T16:16:03Z</time>
      </trkpt>
      <trkpt lat="45.10447" lon="4.94999">
        <ele>237.64500427246</ele>
        <time>2009-09-19T16:16:08Z</time>
      </trkpt>
      <trkpt lat="45.10476" lon="4.95011">
        <ele>237.23699951172</ele>
        <time>2009-09-19T16:16:13Z</time>
      </trkpt>
      <trkpt lat="45.10563" lon="4.95031">
        <ele>236.39799499512</ele>
        <time>2009-09-19T16:16:26Z</time>
      </trkpt>
      <trkpt lat="45.10671" lon="4.95079">
        <ele>236.46800231934</ele>
        <time>2009-09-19T16:16:41Z</time>
      </trkpt>
      <trkpt lat="45.10785" lon="4.95167">
        <ele>236.27400207519</ele>
        <time>2009-09-19T16:16:58Z</time>
      </trkpt>
      <trkpt lat="45.10824" lon="4.95211">
        <ele>236.32400512695</ele>
        <time>2009-09-19T16:17:04Z</time>
      </trkpt>
      <trkpt lat="45.109" lon="4.953">
        <ele>237.10099792481</ele>
        <time>2009-09-19T16:17:16Z</time>
      </trkpt>
      <trkpt lat="45.10938" lon="4.95404">
        <ele>236.66499328613</ele>
        <time>2009-09-19T16:17:26Z</time>
      </trkpt>
      <trkpt lat="45.1097" lon="4.95525">
        <ele>236.86099243164</ele>
        <time>2009-09-19T16:17:38Z</time>
      </trkpt>
      <trkpt lat="45.11032" lon="4.95629">
        <ele>236.06100463867</ele>
        <time>2009-09-19T16:17:52Z</time>
      </trkpt>
      <trkpt lat="45.11118" lon="4.95727">
        <ele>235.16700744629</ele>
        <time>2009-09-19T16:18:06Z</time>
      </trkpt>
      <trkpt lat="45.11212" lon="4.95882">
        <ele>233.42799377441</ele>
        <time>2009-09-19T16:18:23Z</time>
      </trkpt>
      <trkpt lat="45.11251" lon="4.9594">
        <ele>232.91999816894</ele>
        <time>2009-09-19T16:18:30Z</time>
      </trkpt>
      <trkpt lat="45.11314" lon="4.96047">
        <ele>231.67100524902</ele>
        <time>2009-09-19T16:18:44Z</time>
      </trkpt>
      <trkpt lat="45.11402" lon="4.96213">
        <ele>230.94700622559</ele>
        <time>2009-09-19T16:19:06Z</time>
      </trkpt>
      <trkpt lat="45.11483" lon="4.96357">
        <ele>230.06399536133</ele>
        <time>2009-09-19T16:19:26Z</time>
      </trkpt>
      <trkpt lat="45.11518" lon="4.96409">
        <ele>229.91499328613</ele>
        <time>2009-09-19T16:19:34Z</time>
      </trkpt>
      <trkpt lat="45.11535" lon="4.96435">
        <ele>230.16999816894</ele>
        <time>2009-09-19T16:19:38Z</time>
      </trkpt>
      <trkpt lat="45.11551" lon="4.96456">
        <ele>229.98100280762</ele>
        <time>2009-09-19T16:19:42Z</time>
      </trkpt>
      <trkpt lat="45.11573" lon="4.96491">
        <ele>230.39300537109</ele>
        <time>2009-09-19T16:19:49Z</time>
      </trkpt>
      <trkpt lat="45.11582" lon="4.96481">
        <ele>230.6609954834</ele>
        <time>2009-09-19T16:19:54Z</time>
      </trkpt>
      <trkpt lat="45.11584" lon="4.96458">
        <ele>230.63200378418</ele>
        <time>2009-09-19T16:20:00Z</time>
      </trkpt>
      <trkpt lat="45.11578" lon="4.96452">
        <ele>230.18099975586</ele>
        <time>2009-09-19T16:20:07Z</time>
      </trkpt>
    </trkseg>
  </trk>
</gpx>